<?xml version="1.0" encoding="UTF-8" standalone="no" ?>
<gpx xmlns="http://www.topografix.com/GPX/1/1" xmlns:xsi="http://www.w3.org/2001/XMLSchema-instance" xsi:schemaLocation="http://www.topografix.com/GPX/1/1 http://www.topografix.com/GPX/1/1/gpx.xsd" version="1.1" creator="VisuGPX - https://www.visugpx.com">
  <metadata>
    <name>150531RandoCabasse</name>
    <desc><![CDATA[Magnifique randonnee]]></desc>
  </metadata>
  <trk>
    <name><![CDATA[150531RandoCabasse]]></name>
    <trkseg>
      <trkpt lat="43.42826" lon="6.22244">
        <ele>203.39999389648</ele>
        <time>2015-05-31T06:17:56Z</time>
      </trkpt>
      <trkpt lat="43.42827" lon="6.22246">
        <ele>203.39999389648</ele>
        <time>2015-05-31T06:17:57Z</time>
      </trkpt>
      <trkpt lat="43.42833" lon="6.2226">
        <ele>203.39999389648</ele>
        <time>2015-05-31T06:18:01Z</time>
      </trkpt>
      <trkpt lat="43.42837" lon="6.2227">
        <ele>203.60000610352</ele>
        <time>2015-05-31T06:18:03Z</time>
      </trkpt>
      <trkpt lat="43.42844" lon="6.22288">
        <ele>203.80000305176</ele>
        <time>2015-05-31T06:18:06Z</time>
      </trkpt>
      <trkpt lat="43.42846" lon="6.22294">
        <ele>203.80000305176</ele>
        <time>2015-05-31T06:18:07Z</time>
      </trkpt>
      <trkpt lat="43.42857" lon="6.22321">
        <ele>204.19999694824</ele>
        <time>2015-05-31T06:18:13Z</time>
      </trkpt>
      <trkpt lat="43.4286" lon="6.22332">
        <ele>204.60000610352</ele>
        <time>2015-05-31T06:18:17Z</time>
      </trkpt>
      <trkpt lat="43.42859" lon="6.22334">
        <ele>204.60000610352</ele>
        <time>2015-05-31T06:18:18Z</time>
      </trkpt>
      <trkpt lat="43.4285" lon="6.22348">
        <ele>204.39999389648</ele>
        <time>2015-05-31T06:18:22Z</time>
      </trkpt>
      <trkpt lat="43.42829" lon="6.22385">
        <ele>204</ele>
        <time>2015-05-31T06:18:31Z</time>
      </trkpt>
      <trkpt lat="43.42815" lon="6.22408">
        <ele>204</ele>
        <time>2015-05-31T06:18:37Z</time>
      </trkpt>
      <trkpt lat="43.42805" lon="6.22423">
        <ele>203</ele>
        <time>2015-05-31T06:18:41Z</time>
      </trkpt>
      <trkpt lat="43.42801" lon="6.22425">
        <ele>203</ele>
        <time>2015-05-31T06:18:42Z</time>
      </trkpt>
      <trkpt lat="43.42797" lon="6.22424">
        <ele>202.80000305176</ele>
        <time>2015-05-31T06:18:43Z</time>
      </trkpt>
      <trkpt lat="43.42791" lon="6.22415">
        <ele>202.19999694824</ele>
        <time>2015-05-31T06:18:45Z</time>
      </trkpt>
      <trkpt lat="43.42783" lon="6.22406">
        <ele>201.60000610352</ele>
        <time>2015-05-31T06:18:47Z</time>
      </trkpt>
      <trkpt lat="43.42778" lon="6.22404">
        <ele>201</ele>
        <time>2015-05-31T06:18:48Z</time>
      </trkpt>
      <trkpt lat="43.42773" lon="6.22403">
        <ele>200.60000610352</ele>
        <time>2015-05-31T06:18:49Z</time>
      </trkpt>
      <trkpt lat="43.42767" lon="6.22402">
        <ele>200.19999694824</ele>
        <time>2015-05-31T06:18:50Z</time>
      </trkpt>
      <trkpt lat="43.42755" lon="6.22397">
        <ele>199</ele>
        <time>2015-05-31T06:18:52Z</time>
      </trkpt>
      <trkpt lat="43.42749" lon="6.22391">
        <ele>198.60000610352</ele>
        <time>2015-05-31T06:18:53Z</time>
      </trkpt>
      <trkpt lat="43.42743" lon="6.22386">
        <ele>198.39999389648</ele>
        <time>2015-05-31T06:18:54Z</time>
      </trkpt>
      <trkpt lat="43.42736" lon="6.22382">
        <ele>198.39999389648</ele>
        <time>2015-05-31T06:18:55Z</time>
      </trkpt>
      <trkpt lat="43.42717" lon="6.22376">
        <ele>197.80000305176</ele>
        <time>2015-05-31T06:18:58Z</time>
      </trkpt>
      <trkpt lat="43.42703" lon="6.22369">
        <ele>197.60000610352</ele>
        <time>2015-05-31T06:19:00Z</time>
      </trkpt>
      <trkpt lat="43.42691" lon="6.22358">
        <ele>197.39999389648</ele>
        <time>2015-05-31T06:19:02Z</time>
      </trkpt>
      <trkpt lat="43.42669" lon="6.22338">
        <ele>197.60000610352</ele>
        <time>2015-05-31T06:19:06Z</time>
      </trkpt>
      <trkpt lat="43.42664" lon="6.22332">
        <ele>197.39999389648</ele>
        <time>2015-05-31T06:19:07Z</time>
      </trkpt>
      <trkpt lat="43.42653" lon="6.22316">
        <ele>197.19999694824</ele>
        <time>2015-05-31T06:19:10Z</time>
      </trkpt>
      <trkpt lat="43.42649" lon="6.22312">
        <ele>197.39999389648</ele>
        <time>2015-05-31T06:19:11Z</time>
      </trkpt>
      <trkpt lat="43.42641" lon="6.22307">
        <ele>197.19999694824</ele>
        <time>2015-05-31T06:19:15Z</time>
      </trkpt>
      <trkpt lat="43.42633" lon="6.22317">
        <ele>197.39999389648</ele>
        <time>2015-05-31T06:19:18Z</time>
      </trkpt>
      <trkpt lat="43.4262" lon="6.22336">
        <ele>197</ele>
        <time>2015-05-31T06:19:22Z</time>
      </trkpt>
      <trkpt lat="43.42616" lon="6.22342">
        <ele>196.80000305176</ele>
        <time>2015-05-31T06:19:23Z</time>
      </trkpt>
      <trkpt lat="43.42614" lon="6.22347">
        <ele>196.80000305176</ele>
        <time>2015-05-31T06:19:24Z</time>
      </trkpt>
      <trkpt lat="43.42605" lon="6.22374">
        <ele>197</ele>
        <time>2015-05-31T06:19:28Z</time>
      </trkpt>
      <trkpt lat="43.426" lon="6.22393">
        <ele>197.39999389648</ele>
        <time>2015-05-31T06:19:31Z</time>
      </trkpt>
      <trkpt lat="43.42595" lon="6.22405">
        <ele>197.80000305176</ele>
        <time>2015-05-31T06:19:33Z</time>
      </trkpt>
      <trkpt lat="43.42588" lon="6.22423">
        <ele>198.19999694824</ele>
        <time>2015-05-31T06:19:37Z</time>
      </trkpt>
      <trkpt lat="43.42597" lon="6.22438">
        <ele>197.39999389648</ele>
        <time>2015-05-31T06:19:41Z</time>
      </trkpt>
      <trkpt lat="43.42601" lon="6.22441">
        <ele>197.19999694824</ele>
        <time>2015-05-31T06:19:42Z</time>
      </trkpt>
      <trkpt lat="43.42611" lon="6.22451">
        <ele>196.80000305176</ele>
        <time>2015-05-31T06:19:44Z</time>
      </trkpt>
      <trkpt lat="43.42616" lon="6.22457">
        <ele>196.80000305176</ele>
        <time>2015-05-31T06:19:45Z</time>
      </trkpt>
      <trkpt lat="43.42624" lon="6.22478">
        <ele>197</ele>
        <time>2015-05-31T06:19:48Z</time>
      </trkpt>
      <trkpt lat="43.42637" lon="6.22509">
        <ele>197.19999694824</ele>
        <time>2015-05-31T06:19:53Z</time>
      </trkpt>
      <trkpt lat="43.42656" lon="6.22565">
        <ele>197</ele>
        <time>2015-05-31T06:20:01Z</time>
      </trkpt>
      <trkpt lat="43.42668" lon="6.22604">
        <ele>197</ele>
        <time>2015-05-31T06:20:06Z</time>
      </trkpt>
      <trkpt lat="43.42672" lon="6.2262">
        <ele>197</ele>
        <time>2015-05-31T06:20:08Z</time>
      </trkpt>
      <trkpt lat="43.42682" lon="6.22653">
        <ele>197</ele>
        <time>2015-05-31T06:20:13Z</time>
      </trkpt>
      <trkpt lat="43.42688" lon="6.22676">
        <ele>196.80000305176</ele>
        <time>2015-05-31T06:20:16Z</time>
      </trkpt>
      <trkpt lat="43.42691" lon="6.22691">
        <ele>196.60000610352</ele>
        <time>2015-05-31T06:20:18Z</time>
      </trkpt>
      <trkpt lat="43.42702" lon="6.22729">
        <ele>197</ele>
        <time>2015-05-31T06:20:23Z</time>
      </trkpt>
      <trkpt lat="43.42712" lon="6.22758">
        <ele>196.80000305176</ele>
        <time>2015-05-31T06:20:27Z</time>
      </trkpt>
      <trkpt lat="43.42722" lon="6.22779">
        <ele>196.60000610352</ele>
        <time>2015-05-31T06:20:30Z</time>
      </trkpt>
      <trkpt lat="43.42733" lon="6.22821">
        <ele>197.39999389648</ele>
        <time>2015-05-31T06:20:36Z</time>
      </trkpt>
      <trkpt lat="43.42737" lon="6.22833">
        <ele>197.80000305176</ele>
        <time>2015-05-31T06:20:38Z</time>
      </trkpt>
      <trkpt lat="43.42739" lon="6.22838">
        <ele>198</ele>
        <time>2015-05-31T06:20:39Z</time>
      </trkpt>
      <trkpt lat="43.42746" lon="6.22847">
        <ele>198.19999694824</ele>
        <time>2015-05-31T06:20:41Z</time>
      </trkpt>
      <trkpt lat="43.42755" lon="6.22855">
        <ele>198.19999694824</ele>
        <time>2015-05-31T06:20:43Z</time>
      </trkpt>
      <trkpt lat="43.42762" lon="6.22863">
        <ele>198.39999389648</ele>
        <time>2015-05-31T06:20:45Z</time>
      </trkpt>
      <trkpt lat="43.42776" lon="6.22874">
        <ele>198.39999389648</ele>
        <time>2015-05-31T06:20:48Z</time>
      </trkpt>
      <trkpt lat="43.42792" lon="6.22885">
        <ele>198.60000610352</ele>
        <time>2015-05-31T06:20:51Z</time>
      </trkpt>
      <trkpt lat="43.42797" lon="6.22887">
        <ele>198.39999389648</ele>
        <time>2015-05-31T06:20:52Z</time>
      </trkpt>
      <trkpt lat="43.4281" lon="6.22893">
        <ele>198.60000610352</ele>
        <time>2015-05-31T06:20:55Z</time>
      </trkpt>
      <trkpt lat="43.42836" lon="6.22899">
        <ele>198.80000305176</ele>
        <time>2015-05-31T06:21:00Z</time>
      </trkpt>
      <trkpt lat="43.4284" lon="6.229">
        <ele>198.80000305176</ele>
        <time>2015-05-31T06:21:01Z</time>
      </trkpt>
      <trkpt lat="43.42864" lon="6.22907">
        <ele>199.60000610352</ele>
        <time>2015-05-31T06:21:06Z</time>
      </trkpt>
      <trkpt lat="43.42868" lon="6.22908">
        <ele>199.80000305176</ele>
        <time>2015-05-31T06:21:07Z</time>
      </trkpt>
      <trkpt lat="43.42873" lon="6.22907">
        <ele>200</ele>
        <time>2015-05-31T06:21:08Z</time>
      </trkpt>
      <trkpt lat="43.42882" lon="6.22902">
        <ele>200.80000305176</ele>
        <time>2015-05-31T06:21:10Z</time>
      </trkpt>
      <trkpt lat="43.42886" lon="6.22898">
        <ele>201.19999694824</ele>
        <time>2015-05-31T06:21:11Z</time>
      </trkpt>
      <trkpt lat="43.42889" lon="6.22894">
        <ele>201.39999389648</ele>
        <time>2015-05-31T06:21:12Z</time>
      </trkpt>
      <trkpt lat="43.42898" lon="6.22883">
        <ele>202.19999694824</ele>
        <time>2015-05-31T06:21:15Z</time>
      </trkpt>
      <trkpt lat="43.42906" lon="6.22877">
        <ele>202.39999389648</ele>
        <time>2015-05-31T06:21:17Z</time>
      </trkpt>
      <trkpt lat="43.42916" lon="6.22875">
        <ele>202</ele>
        <time>2015-05-31T06:21:19Z</time>
      </trkpt>
      <trkpt lat="43.42931" lon="6.22883">
        <ele>202</ele>
        <time>2015-05-31T06:21:22Z</time>
      </trkpt>
      <trkpt lat="43.42943" lon="6.22905">
        <ele>202.19999694824</ele>
        <time>2015-05-31T06:21:26Z</time>
      </trkpt>
      <trkpt lat="43.42945" lon="6.22911">
        <ele>202.39999389648</ele>
        <time>2015-05-31T06:21:27Z</time>
      </trkpt>
      <trkpt lat="43.42952" lon="6.2293">
        <ele>203.19999694824</ele>
        <time>2015-05-31T06:21:30Z</time>
      </trkpt>
      <trkpt lat="43.42958" lon="6.22958">
        <ele>203.19999694824</ele>
        <time>2015-05-31T06:21:34Z</time>
      </trkpt>
      <trkpt lat="43.42965" lon="6.22987">
        <ele>203</ele>
        <time>2015-05-31T06:21:38Z</time>
      </trkpt>
      <trkpt lat="43.42971" lon="6.2301">
        <ele>202.39999389648</ele>
        <time>2015-05-31T06:21:41Z</time>
      </trkpt>
      <trkpt lat="43.42976" lon="6.23026">
        <ele>202.19999694824</ele>
        <time>2015-05-31T06:21:43Z</time>
      </trkpt>
      <trkpt lat="43.42989" lon="6.23054">
        <ele>201.80000305176</ele>
        <time>2015-05-31T06:21:47Z</time>
      </trkpt>
      <trkpt lat="43.43003" lon="6.23079">
        <ele>201.60000610352</ele>
        <time>2015-05-31T06:21:51Z</time>
      </trkpt>
      <trkpt lat="43.4301" lon="6.23091">
        <ele>201.80000305176</ele>
        <time>2015-05-31T06:21:53Z</time>
      </trkpt>
      <trkpt lat="43.43036" lon="6.23129">
        <ele>201.80000305176</ele>
        <time>2015-05-31T06:22:00Z</time>
      </trkpt>
      <trkpt lat="43.43061" lon="6.23144">
        <ele>201.60000610352</ele>
        <time>2015-05-31T06:22:05Z</time>
      </trkpt>
      <trkpt lat="43.43097" lon="6.23165">
        <ele>201.80000305176</ele>
        <time>2015-05-31T06:22:12Z</time>
      </trkpt>
      <trkpt lat="43.43119" lon="6.2318">
        <ele>202.60000610352</ele>
        <time>2015-05-31T06:22:17Z</time>
      </trkpt>
      <trkpt lat="43.43123" lon="6.23185">
        <ele>202.80000305176</ele>
        <time>2015-05-31T06:22:18Z</time>
      </trkpt>
      <trkpt lat="43.43144" lon="6.23213">
        <ele>202</ele>
        <time>2015-05-31T06:22:23Z</time>
      </trkpt>
      <trkpt lat="43.43161" lon="6.23238">
        <ele>201.39999389648</ele>
        <time>2015-05-31T06:22:27Z</time>
      </trkpt>
      <trkpt lat="43.43169" lon="6.2325">
        <ele>201.19999694824</ele>
        <time>2015-05-31T06:22:29Z</time>
      </trkpt>
      <trkpt lat="43.43177" lon="6.23262">
        <ele>201.39999389648</ele>
        <time>2015-05-31T06:22:31Z</time>
      </trkpt>
      <trkpt lat="43.432" lon="6.23295">
        <ele>201.39999389648</ele>
        <time>2015-05-31T06:22:37Z</time>
      </trkpt>
      <trkpt lat="43.43204" lon="6.23298">
        <ele>201.39999389648</ele>
        <time>2015-05-31T06:22:38Z</time>
      </trkpt>
      <trkpt lat="43.43222" lon="6.23299">
        <ele>202</ele>
        <time>2015-05-31T06:22:42Z</time>
      </trkpt>
      <trkpt lat="43.43258" lon="6.233">
        <ele>201</ele>
        <time>2015-05-31T06:22:48Z</time>
      </trkpt>
      <trkpt lat="43.43296" lon="6.23299">
        <ele>200.19999694824</ele>
        <time>2015-05-31T06:22:54Z</time>
      </trkpt>
      <trkpt lat="43.4331" lon="6.23299">
        <ele>199.19999694824</ele>
        <time>2015-05-31T06:22:56Z</time>
      </trkpt>
      <trkpt lat="43.43331" lon="6.233">
        <ele>198.39999389648</ele>
        <time>2015-05-31T06:22:59Z</time>
      </trkpt>
      <trkpt lat="43.43346" lon="6.23301">
        <ele>197.60000610352</ele>
        <time>2015-05-31T06:23:01Z</time>
      </trkpt>
      <trkpt lat="43.43363" lon="6.23301">
        <ele>197</ele>
        <time>2015-05-31T06:23:03Z</time>
      </trkpt>
      <trkpt lat="43.43396" lon="6.23303">
        <ele>196.60000610352</ele>
        <time>2015-05-31T06:23:07Z</time>
      </trkpt>
      <trkpt lat="43.4341" lon="6.23304">
        <ele>196</ele>
        <time>2015-05-31T06:23:09Z</time>
      </trkpt>
      <trkpt lat="43.4343" lon="6.23304">
        <ele>195.80000305176</ele>
        <time>2015-05-31T06:23:12Z</time>
      </trkpt>
      <trkpt lat="43.43449" lon="6.23305">
        <ele>195.60000610352</ele>
        <time>2015-05-31T06:23:15Z</time>
      </trkpt>
      <trkpt lat="43.43496" lon="6.23306">
        <ele>195.80000305176</ele>
        <time>2015-05-31T06:23:23Z</time>
      </trkpt>
      <trkpt lat="43.43536" lon="6.23304">
        <ele>195.80000305176</ele>
        <time>2015-05-31T06:23:30Z</time>
      </trkpt>
      <trkpt lat="43.43541" lon="6.23301">
        <ele>195.80000305176</ele>
        <time>2015-05-31T06:23:31Z</time>
      </trkpt>
      <trkpt lat="43.43561" lon="6.23277">
        <ele>195</ele>
        <time>2015-05-31T06:23:35Z</time>
      </trkpt>
      <trkpt lat="43.43575" lon="6.23257">
        <ele>194.80000305176</ele>
        <time>2015-05-31T06:23:38Z</time>
      </trkpt>
      <trkpt lat="43.43585" lon="6.23246">
        <ele>195</ele>
        <time>2015-05-31T06:23:40Z</time>
      </trkpt>
      <trkpt lat="43.43591" lon="6.23243">
        <ele>194.80000305176</ele>
        <time>2015-05-31T06:23:41Z</time>
      </trkpt>
      <trkpt lat="43.4361" lon="6.23242">
        <ele>194.80000305176</ele>
        <time>2015-05-31T06:23:44Z</time>
      </trkpt>
      <trkpt lat="43.43628" lon="6.23244">
        <ele>195</ele>
        <time>2015-05-31T06:23:47Z</time>
      </trkpt>
      <trkpt lat="43.43647" lon="6.23246">
        <ele>194.80000305176</ele>
        <time>2015-05-31T06:23:50Z</time>
      </trkpt>
      <trkpt lat="43.43664" lon="6.23251">
        <ele>195</ele>
        <time>2015-05-31T06:23:53Z</time>
      </trkpt>
      <trkpt lat="43.43674" lon="6.23258">
        <ele>195</ele>
        <time>2015-05-31T06:23:55Z</time>
      </trkpt>
      <trkpt lat="43.43684" lon="6.23269">
        <ele>195.19999694824</ele>
        <time>2015-05-31T06:23:57Z</time>
      </trkpt>
      <trkpt lat="43.43693" lon="6.2328">
        <ele>195.39999389648</ele>
        <time>2015-05-31T06:23:59Z</time>
      </trkpt>
      <trkpt lat="43.43697" lon="6.23285">
        <ele>195.60000610352</ele>
        <time>2015-05-31T06:24:00Z</time>
      </trkpt>
      <trkpt lat="43.43705" lon="6.23295">
        <ele>196</ele>
        <time>2015-05-31T06:24:02Z</time>
      </trkpt>
      <trkpt lat="43.4371" lon="6.23298">
        <ele>196</ele>
        <time>2015-05-31T06:24:03Z</time>
      </trkpt>
      <trkpt lat="43.4372" lon="6.23299">
        <ele>196</ele>
        <time>2015-05-31T06:24:05Z</time>
      </trkpt>
      <trkpt lat="43.43737" lon="6.23297">
        <ele>196.60000610352</ele>
        <time>2015-05-31T06:24:08Z</time>
      </trkpt>
      <trkpt lat="43.43742" lon="6.23299">
        <ele>197</ele>
        <time>2015-05-31T06:24:09Z</time>
      </trkpt>
      <trkpt lat="43.43755" lon="6.23313">
        <ele>197.60000610352</ele>
        <time>2015-05-31T06:24:12Z</time>
      </trkpt>
      <trkpt lat="43.43766" lon="6.2333">
        <ele>198.19999694824</ele>
        <time>2015-05-31T06:24:15Z</time>
      </trkpt>
      <trkpt lat="43.43777" lon="6.23346">
        <ele>199</ele>
        <time>2015-05-31T06:24:18Z</time>
      </trkpt>
      <trkpt lat="43.43788" lon="6.23362">
        <ele>199.19999694824</ele>
        <time>2015-05-31T06:24:21Z</time>
      </trkpt>
      <trkpt lat="43.43802" lon="6.23392">
        <ele>200.19999694824</ele>
        <time>2015-05-31T06:24:26Z</time>
      </trkpt>
      <trkpt lat="43.43806" lon="6.23403">
        <ele>200.39999389648</ele>
        <time>2015-05-31T06:24:28Z</time>
      </trkpt>
      <trkpt lat="43.43816" lon="6.23426">
        <ele>201.39999389648</ele>
        <time>2015-05-31T06:24:32Z</time>
      </trkpt>
      <trkpt lat="43.43822" lon="6.23442">
        <ele>202.39999389648</ele>
        <time>2015-05-31T06:24:35Z</time>
      </trkpt>
      <trkpt lat="43.43826" lon="6.23452">
        <ele>203.19999694824</ele>
        <time>2015-05-31T06:24:37Z</time>
      </trkpt>
      <trkpt lat="43.4383" lon="6.2346">
        <ele>203.60000610352</ele>
        <time>2015-05-31T06:24:39Z</time>
      </trkpt>
      <trkpt lat="43.43835" lon="6.23468">
        <ele>204.19999694824</ele>
        <time>2015-05-31T06:24:41Z</time>
      </trkpt>
      <trkpt lat="43.43839" lon="6.23475">
        <ele>204.60000610352</ele>
        <time>2015-05-31T06:24:43Z</time>
      </trkpt>
      <trkpt lat="43.43845" lon="6.23486">
        <ele>205.39999389648</ele>
        <time>2015-05-31T06:24:46Z</time>
      </trkpt>
      <trkpt lat="43.43849" lon="6.23494">
        <ele>206</ele>
        <time>2015-05-31T06:24:48Z</time>
      </trkpt>
      <trkpt lat="43.43852" lon="6.23509">
        <ele>206.80000305176</ele>
        <time>2015-05-31T06:24:52Z</time>
      </trkpt>
      <trkpt lat="43.43853" lon="6.23512">
        <ele>207.19999694824</ele>
        <time>2015-05-31T06:24:53Z</time>
      </trkpt>
      <trkpt lat="43.43852" lon="6.2352">
        <ele>208.19999694824</ele>
        <time>2015-05-31T06:24:56Z</time>
      </trkpt>
      <trkpt lat="43.43851" lon="6.23524">
        <ele>208.80000305176</ele>
        <time>2015-05-31T06:24:58Z</time>
      </trkpt>
      <trkpt lat="43.43851" lon="6.23538">
        <ele>209.80000305176</ele>
        <time>2015-05-31T06:25:03Z</time>
      </trkpt>
      <trkpt lat="43.43851" lon="6.23541">
        <ele>210.19999694824</ele>
        <time>2015-05-31T06:25:04Z</time>
      </trkpt>
      <trkpt lat="43.43852" lon="6.23555">
        <ele>210.80000305176</ele>
        <time>2015-05-31T06:25:08Z</time>
      </trkpt>
      <trkpt lat="43.43853" lon="6.23568">
        <ele>211.60000610352</ele>
        <time>2015-05-31T06:25:12Z</time>
      </trkpt>
      <trkpt lat="43.43852" lon="6.23586">
        <ele>212.60000610352</ele>
        <time>2015-05-31T06:25:18Z</time>
      </trkpt>
      <trkpt lat="43.43852" lon="6.236">
        <ele>213.19999694824</ele>
        <time>2015-05-31T06:25:23Z</time>
      </trkpt>
      <trkpt lat="43.43853" lon="6.23605">
        <ele>213.60000610352</ele>
        <time>2015-05-31T06:25:25Z</time>
      </trkpt>
      <trkpt lat="43.43852" lon="6.23612">
        <ele>214.19999694824</ele>
        <time>2015-05-31T06:25:28Z</time>
      </trkpt>
      <trkpt lat="43.43852" lon="6.23616">
        <ele>214.60000610352</ele>
        <time>2015-05-31T06:25:30Z</time>
      </trkpt>
      <trkpt lat="43.43853" lon="6.2363">
        <ele>215.60000610352</ele>
        <time>2015-05-31T06:25:36Z</time>
      </trkpt>
      <trkpt lat="43.43852" lon="6.23636">
        <ele>216.39999389648</ele>
        <time>2015-05-31T06:25:39Z</time>
      </trkpt>
      <trkpt lat="43.43853" lon="6.23639">
        <ele>216.60000610352</ele>
        <time>2015-05-31T06:25:40Z</time>
      </trkpt>
      <trkpt lat="43.43853" lon="6.23644">
        <ele>217</ele>
        <time>2015-05-31T06:25:42Z</time>
      </trkpt>
      <trkpt lat="43.43853" lon="6.23651">
        <ele>217.39999389648</ele>
        <time>2015-05-31T06:25:45Z</time>
      </trkpt>
      <trkpt lat="43.43854" lon="6.23664">
        <ele>218.60000610352</ele>
        <time>2015-05-31T06:25:50Z</time>
      </trkpt>
      <trkpt lat="43.43855" lon="6.23679">
        <ele>219.19999694824</ele>
        <time>2015-05-31T06:25:56Z</time>
      </trkpt>
      <trkpt lat="43.43857" lon="6.23697">
        <ele>220.39999389648</ele>
        <time>2015-05-31T06:26:03Z</time>
      </trkpt>
      <trkpt lat="43.43861" lon="6.23718">
        <ele>221.80000305176</ele>
        <time>2015-05-31T06:26:12Z</time>
      </trkpt>
      <trkpt lat="43.43863" lon="6.23731">
        <ele>223</ele>
        <time>2015-05-31T06:26:17Z</time>
      </trkpt>
      <trkpt lat="43.43865" lon="6.23746">
        <ele>224</ele>
        <time>2015-05-31T06:26:23Z</time>
      </trkpt>
      <trkpt lat="43.43866" lon="6.23748">
        <ele>224.19999694824</ele>
        <time>2015-05-31T06:26:24Z</time>
      </trkpt>
      <trkpt lat="43.43871" lon="6.23768">
        <ele>225.39999389648</ele>
        <time>2015-05-31T06:26:32Z</time>
      </trkpt>
      <trkpt lat="43.43876" lon="6.23785">
        <ele>226</ele>
        <time>2015-05-31T06:26:39Z</time>
      </trkpt>
      <trkpt lat="43.43876" lon="6.23787">
        <ele>226.19999694824</ele>
        <time>2015-05-31T06:26:40Z</time>
      </trkpt>
      <trkpt lat="43.4388" lon="6.23797">
        <ele>227.39999389648</ele>
        <time>2015-05-31T06:26:45Z</time>
      </trkpt>
      <trkpt lat="43.43881" lon="6.23798">
        <ele>227.60000610352</ele>
        <time>2015-05-31T06:26:46Z</time>
      </trkpt>
      <trkpt lat="43.4389" lon="6.23808">
        <ele>228.19999694824</ele>
        <time>2015-05-31T06:26:52Z</time>
      </trkpt>
      <trkpt lat="43.43892" lon="6.23809">
        <ele>228.39999389648</ele>
        <time>2015-05-31T06:26:53Z</time>
      </trkpt>
      <trkpt lat="43.439" lon="6.23816">
        <ele>229</ele>
        <time>2015-05-31T06:26:58Z</time>
      </trkpt>
      <trkpt lat="43.43906" lon="6.23819">
        <ele>229.39999389648</ele>
        <time>2015-05-31T06:27:01Z</time>
      </trkpt>
      <trkpt lat="43.43913" lon="6.23823">
        <ele>230.19999694824</ele>
        <time>2015-05-31T06:27:05Z</time>
      </trkpt>
      <trkpt lat="43.43919" lon="6.23826">
        <ele>230.39999389648</ele>
        <time>2015-05-31T06:27:08Z</time>
      </trkpt>
      <trkpt lat="43.43929" lon="6.23833">
        <ele>231.39999389648</ele>
        <time>2015-05-31T06:27:14Z</time>
      </trkpt>
      <trkpt lat="43.43941" lon="6.23841">
        <ele>232.60000610352</ele>
        <time>2015-05-31T06:27:21Z</time>
      </trkpt>
      <trkpt lat="43.43943" lon="6.23842">
        <ele>232.80000305176</ele>
        <time>2015-05-31T06:27:22Z</time>
      </trkpt>
      <trkpt lat="43.43958" lon="6.23856">
        <ele>233.80000305176</ele>
        <time>2015-05-31T06:27:31Z</time>
      </trkpt>
      <trkpt lat="43.43964" lon="6.23862">
        <ele>234.60000610352</ele>
        <time>2015-05-31T06:27:35Z</time>
      </trkpt>
      <trkpt lat="43.43968" lon="6.23867">
        <ele>235.19999694824</ele>
        <time>2015-05-31T06:27:38Z</time>
      </trkpt>
      <trkpt lat="43.4397" lon="6.2387">
        <ele>235.60000610352</ele>
        <time>2015-05-31T06:27:40Z</time>
      </trkpt>
      <trkpt lat="43.43977" lon="6.23878">
        <ele>236.39999389648</ele>
        <time>2015-05-31T06:27:45Z</time>
      </trkpt>
      <trkpt lat="43.43979" lon="6.23881">
        <ele>236.80000305176</ele>
        <time>2015-05-31T06:27:47Z</time>
      </trkpt>
      <trkpt lat="43.43984" lon="6.23889">
        <ele>237.39999389648</ele>
        <time>2015-05-31T06:27:52Z</time>
      </trkpt>
      <trkpt lat="43.43995" lon="6.23906">
        <ele>239</ele>
        <time>2015-05-31T06:28:03Z</time>
      </trkpt>
      <trkpt lat="43.43998" lon="6.23909">
        <ele>239.39999389648</ele>
        <time>2015-05-31T06:28:05Z</time>
      </trkpt>
      <trkpt lat="43.44004" lon="6.23919">
        <ele>240</ele>
        <time>2015-05-31T06:28:11Z</time>
      </trkpt>
      <trkpt lat="43.4401" lon="6.23932">
        <ele>241.39999389648</ele>
        <time>2015-05-31T06:28:18Z</time>
      </trkpt>
      <trkpt lat="43.44016" lon="6.23944">
        <ele>242.39999389648</ele>
        <time>2015-05-31T06:28:25Z</time>
      </trkpt>
      <trkpt lat="43.44024" lon="6.23955">
        <ele>243.60000610352</ele>
        <time>2015-05-31T06:28:32Z</time>
      </trkpt>
      <trkpt lat="43.4403" lon="6.23965">
        <ele>244.39999389648</ele>
        <time>2015-05-31T06:28:38Z</time>
      </trkpt>
      <trkpt lat="43.44036" lon="6.23976">
        <ele>245.60000610352</ele>
        <time>2015-05-31T06:28:45Z</time>
      </trkpt>
      <trkpt lat="43.44042" lon="6.23983">
        <ele>246.80000305176</ele>
        <time>2015-05-31T06:28:50Z</time>
      </trkpt>
      <trkpt lat="43.44048" lon="6.23989">
        <ele>247.60000610352</ele>
        <time>2015-05-31T06:28:55Z</time>
      </trkpt>
      <trkpt lat="43.4405" lon="6.2399">
        <ele>247.80000305176</ele>
        <time>2015-05-31T06:28:56Z</time>
      </trkpt>
      <trkpt lat="43.44059" lon="6.23994">
        <ele>249</ele>
        <time>2015-05-31T06:29:02Z</time>
      </trkpt>
      <trkpt lat="43.44061" lon="6.23996">
        <ele>249</ele>
        <time>2015-05-31T06:29:04Z</time>
      </trkpt>
      <trkpt lat="43.44069" lon="6.24001">
        <ele>250.19999694824</ele>
        <time>2015-05-31T06:29:10Z</time>
      </trkpt>
      <trkpt lat="43.44071" lon="6.24003">
        <ele>250.19999694824</ele>
        <time>2015-05-31T06:29:12Z</time>
      </trkpt>
      <trkpt lat="43.44081" lon="6.24013">
        <ele>251.19999694824</ele>
        <time>2015-05-31T06:29:20Z</time>
      </trkpt>
      <trkpt lat="43.44088" lon="6.24025">
        <ele>252</ele>
        <time>2015-05-31T06:29:27Z</time>
      </trkpt>
      <trkpt lat="43.44094" lon="6.2404">
        <ele>253</ele>
        <time>2015-05-31T06:29:35Z</time>
      </trkpt>
      <trkpt lat="43.44095" lon="6.24043">
        <ele>253.39999389648</ele>
        <time>2015-05-31T06:29:37Z</time>
      </trkpt>
      <trkpt lat="43.44097" lon="6.24053">
        <ele>253.60000610352</ele>
        <time>2015-05-31T06:29:42Z</time>
      </trkpt>
      <trkpt lat="43.44099" lon="6.2406">
        <ele>254.39999389648</ele>
        <time>2015-05-31T06:29:46Z</time>
      </trkpt>
      <trkpt lat="43.44103" lon="6.24075">
        <ele>255.39999389648</ele>
        <time>2015-05-31T06:29:53Z</time>
      </trkpt>
      <trkpt lat="43.44105" lon="6.24091">
        <ele>256.79998779297</ele>
        <time>2015-05-31T06:30:00Z</time>
      </trkpt>
      <trkpt lat="43.44106" lon="6.24105">
        <ele>257.60000610352</ele>
        <time>2015-05-31T06:30:06Z</time>
      </trkpt>
      <trkpt lat="43.44106" lon="6.2411">
        <ele>258</ele>
        <time>2015-05-31T06:30:08Z</time>
      </trkpt>
      <trkpt lat="43.44107" lon="6.24116">
        <ele>258.79998779297</ele>
        <time>2015-05-31T06:30:11Z</time>
      </trkpt>
      <trkpt lat="43.44107" lon="6.24124">
        <ele>259.20001220703</ele>
        <time>2015-05-31T06:30:15Z</time>
      </trkpt>
      <trkpt lat="43.44109" lon="6.24132">
        <ele>259.79998779297</ele>
        <time>2015-05-31T06:30:20Z</time>
      </trkpt>
      <trkpt lat="43.4411" lon="6.24136">
        <ele>260.20001220703</ele>
        <time>2015-05-31T06:30:22Z</time>
      </trkpt>
      <trkpt lat="43.44111" lon="6.24143">
        <ele>261.20001220703</ele>
        <time>2015-05-31T06:30:25Z</time>
      </trkpt>
      <trkpt lat="43.44112" lon="6.2415">
        <ele>261.60000610352</ele>
        <time>2015-05-31T06:30:29Z</time>
      </trkpt>
      <trkpt lat="43.44115" lon="6.24161">
        <ele>262.20001220703</ele>
        <time>2015-05-31T06:30:34Z</time>
      </trkpt>
      <trkpt lat="43.44119" lon="6.24182">
        <ele>264.20001220703</ele>
        <time>2015-05-31T06:30:44Z</time>
      </trkpt>
      <trkpt lat="43.44119" lon="6.24185">
        <ele>264.39999389648</ele>
        <time>2015-05-31T06:30:45Z</time>
      </trkpt>
      <trkpt lat="43.44118" lon="6.24195">
        <ele>265.39999389648</ele>
        <time>2015-05-31T06:30:50Z</time>
      </trkpt>
      <trkpt lat="43.44117" lon="6.24203">
        <ele>266.39999389648</ele>
        <time>2015-05-31T06:30:55Z</time>
      </trkpt>
      <trkpt lat="43.44115" lon="6.24209">
        <ele>266.79998779297</ele>
        <time>2015-05-31T06:30:58Z</time>
      </trkpt>
      <trkpt lat="43.44111" lon="6.24223">
        <ele>268.60000610352</ele>
        <time>2015-05-31T06:31:06Z</time>
      </trkpt>
      <trkpt lat="43.44111" lon="6.24225">
        <ele>268.60000610352</ele>
        <time>2015-05-31T06:31:07Z</time>
      </trkpt>
      <trkpt lat="43.44111" lon="6.24236">
        <ele>269.79998779297</ele>
        <time>2015-05-31T06:31:13Z</time>
      </trkpt>
      <trkpt lat="43.44111" lon="6.24249">
        <ele>270.60000610352</ele>
        <time>2015-05-31T06:31:20Z</time>
      </trkpt>
      <trkpt lat="43.44111" lon="6.24252">
        <ele>271</ele>
        <time>2015-05-31T06:31:22Z</time>
      </trkpt>
      <trkpt lat="43.44112" lon="6.2426">
        <ele>271.39999389648</ele>
        <time>2015-05-31T06:31:26Z</time>
      </trkpt>
      <trkpt lat="43.44114" lon="6.24267">
        <ele>272</ele>
        <time>2015-05-31T06:31:30Z</time>
      </trkpt>
      <trkpt lat="43.44116" lon="6.24272">
        <ele>272.20001220703</ele>
        <time>2015-05-31T06:31:32Z</time>
      </trkpt>
      <trkpt lat="43.4412" lon="6.24283">
        <ele>272.60000610352</ele>
        <time>2015-05-31T06:31:38Z</time>
      </trkpt>
      <trkpt lat="43.44125" lon="6.24293">
        <ele>272.39999389648</ele>
        <time>2015-05-31T06:31:43Z</time>
      </trkpt>
      <trkpt lat="43.44127" lon="6.24298">
        <ele>272.39999389648</ele>
        <time>2015-05-31T06:31:45Z</time>
      </trkpt>
      <trkpt lat="43.44135" lon="6.24311">
        <ele>272.79998779297</ele>
        <time>2015-05-31T06:31:51Z</time>
      </trkpt>
      <trkpt lat="43.44145" lon="6.2433">
        <ele>273.20001220703</ele>
        <time>2015-05-31T06:31:58Z</time>
      </trkpt>
      <trkpt lat="43.44152" lon="6.24346">
        <ele>273.20001220703</ele>
        <time>2015-05-31T06:32:03Z</time>
      </trkpt>
      <trkpt lat="43.44156" lon="6.24352">
        <ele>273.39999389648</ele>
        <time>2015-05-31T06:32:05Z</time>
      </trkpt>
      <trkpt lat="43.44165" lon="6.24368">
        <ele>273.60000610352</ele>
        <time>2015-05-31T06:32:11Z</time>
      </trkpt>
      <trkpt lat="43.44173" lon="6.24381">
        <ele>274</ele>
        <time>2015-05-31T06:32:16Z</time>
      </trkpt>
      <trkpt lat="43.44176" lon="6.24383">
        <ele>274.20001220703</ele>
        <time>2015-05-31T06:32:17Z</time>
      </trkpt>
      <trkpt lat="43.44201" lon="6.24411">
        <ele>276</ele>
        <time>2015-05-31T06:32:30Z</time>
      </trkpt>
      <trkpt lat="43.44202" lon="6.24413">
        <ele>276.20001220703</ele>
        <time>2015-05-31T06:32:31Z</time>
      </trkpt>
      <trkpt lat="43.44205" lon="6.24415">
        <ele>276.39999389648</ele>
        <time>2015-05-31T06:32:32Z</time>
      </trkpt>
      <trkpt lat="43.44223" lon="6.24424">
        <ele>278.20001220703</ele>
        <time>2015-05-31T06:32:40Z</time>
      </trkpt>
      <trkpt lat="43.44234" lon="6.2443">
        <ele>278.60000610352</ele>
        <time>2015-05-31T06:32:45Z</time>
      </trkpt>
      <trkpt lat="43.44241" lon="6.24432">
        <ele>278.79998779297</ele>
        <time>2015-05-31T06:32:48Z</time>
      </trkpt>
      <trkpt lat="43.44256" lon="6.24438">
        <ele>279.79998779297</ele>
        <time>2015-05-31T06:32:55Z</time>
      </trkpt>
      <trkpt lat="43.44262" lon="6.24439">
        <ele>280.60000610352</ele>
        <time>2015-05-31T06:32:58Z</time>
      </trkpt>
      <trkpt lat="43.44273" lon="6.24445">
        <ele>281.60000610352</ele>
        <time>2015-05-31T06:33:04Z</time>
      </trkpt>
      <trkpt lat="43.44285" lon="6.24449">
        <ele>282.60000610352</ele>
        <time>2015-05-31T06:33:10Z</time>
      </trkpt>
      <trkpt lat="43.44299" lon="6.24453">
        <ele>283.60000610352</ele>
        <time>2015-05-31T06:33:17Z</time>
      </trkpt>
      <trkpt lat="43.44311" lon="6.24458">
        <ele>284.60000610352</ele>
        <time>2015-05-31T06:33:24Z</time>
      </trkpt>
      <trkpt lat="43.44321" lon="6.24464">
        <ele>285.79998779297</ele>
        <time>2015-05-31T06:33:30Z</time>
      </trkpt>
      <trkpt lat="43.44333" lon="6.24478">
        <ele>286.39999389648</ele>
        <time>2015-05-31T06:33:37Z</time>
      </trkpt>
      <trkpt lat="43.44337" lon="6.24494">
        <ele>286.79998779297</ele>
        <time>2015-05-31T06:33:43Z</time>
      </trkpt>
      <trkpt lat="43.44342" lon="6.24507">
        <ele>287.79998779297</ele>
        <time>2015-05-31T06:33:48Z</time>
      </trkpt>
      <trkpt lat="43.44345" lon="6.24522">
        <ele>288.79998779297</ele>
        <time>2015-05-31T06:33:53Z</time>
      </trkpt>
      <trkpt lat="43.44346" lon="6.2453">
        <ele>289.60000610352</ele>
        <time>2015-05-31T06:33:56Z</time>
      </trkpt>
      <trkpt lat="43.44346" lon="6.24536">
        <ele>290</ele>
        <time>2015-05-31T06:33:58Z</time>
      </trkpt>
      <trkpt lat="43.44346" lon="6.24548">
        <ele>290.39999389648</ele>
        <time>2015-05-31T06:34:02Z</time>
      </trkpt>
      <trkpt lat="43.44348" lon="6.24577">
        <ele>291.20001220703</ele>
        <time>2015-05-31T06:34:11Z</time>
      </trkpt>
      <trkpt lat="43.44349" lon="6.24596">
        <ele>292.20001220703</ele>
        <time>2015-05-31T06:34:17Z</time>
      </trkpt>
      <trkpt lat="43.44349" lon="6.24618">
        <ele>293.20001220703</ele>
        <time>2015-05-31T06:34:24Z</time>
      </trkpt>
      <trkpt lat="43.44349" lon="6.24628">
        <ele>293.39999389648</ele>
        <time>2015-05-31T06:34:27Z</time>
      </trkpt>
      <trkpt lat="43.44349" lon="6.24647">
        <ele>293.79998779297</ele>
        <time>2015-05-31T06:34:33Z</time>
      </trkpt>
      <trkpt lat="43.44349" lon="6.24653">
        <ele>293.79998779297</ele>
        <time>2015-05-31T06:34:35Z</time>
      </trkpt>
      <trkpt lat="43.44347" lon="6.24679">
        <ele>294</ele>
        <time>2015-05-31T06:34:42Z</time>
      </trkpt>
      <trkpt lat="43.44347" lon="6.24682">
        <ele>294</ele>
        <time>2015-05-31T06:34:43Z</time>
      </trkpt>
      <trkpt lat="43.44347" lon="6.24692">
        <ele>294.20001220703</ele>
        <time>2015-05-31T06:34:46Z</time>
      </trkpt>
      <trkpt lat="43.44345" lon="6.24713">
        <ele>295.39999389648</ele>
        <time>2015-05-31T06:34:53Z</time>
      </trkpt>
      <trkpt lat="43.44346" lon="6.24725">
        <ele>296.20001220703</ele>
        <time>2015-05-31T06:34:57Z</time>
      </trkpt>
      <trkpt lat="43.44346" lon="6.2473">
        <ele>296.60000610352</ele>
        <time>2015-05-31T06:34:59Z</time>
      </trkpt>
      <trkpt lat="43.44346" lon="6.24744">
        <ele>297</ele>
        <time>2015-05-31T06:35:03Z</time>
      </trkpt>
      <trkpt lat="43.44347" lon="6.24766">
        <ele>297.39999389648</ele>
        <time>2015-05-31T06:35:10Z</time>
      </trkpt>
      <trkpt lat="43.44349" lon="6.24776">
        <ele>297.60000610352</ele>
        <time>2015-05-31T06:35:14Z</time>
      </trkpt>
      <trkpt lat="43.4435" lon="6.24779">
        <ele>297.79998779297</ele>
        <time>2015-05-31T06:35:15Z</time>
      </trkpt>
      <trkpt lat="43.44354" lon="6.24788">
        <ele>298.60000610352</ele>
        <time>2015-05-31T06:35:19Z</time>
      </trkpt>
      <trkpt lat="43.44361" lon="6.24801">
        <ele>299.79998779297</ele>
        <time>2015-05-31T06:35:24Z</time>
      </trkpt>
      <trkpt lat="43.44367" lon="6.24817">
        <ele>300.79998779297</ele>
        <time>2015-05-31T06:35:30Z</time>
      </trkpt>
      <trkpt lat="43.44368" lon="6.2482">
        <ele>301</ele>
        <time>2015-05-31T06:35:31Z</time>
      </trkpt>
      <trkpt lat="43.44374" lon="6.24839">
        <ele>301.20001220703</ele>
        <time>2015-05-31T06:35:37Z</time>
      </trkpt>
      <trkpt lat="43.44379" lon="6.24856">
        <ele>300.20001220703</ele>
        <time>2015-05-31T06:35:41Z</time>
      </trkpt>
      <trkpt lat="43.44383" lon="6.24866">
        <ele>299.60000610352</ele>
        <time>2015-05-31T06:35:44Z</time>
      </trkpt>
      <trkpt lat="43.44392" lon="6.24877">
        <ele>299</ele>
        <time>2015-05-31T06:35:49Z</time>
      </trkpt>
      <trkpt lat="43.44402" lon="6.24888">
        <ele>297.60000610352</ele>
        <time>2015-05-31T06:35:52Z</time>
      </trkpt>
      <trkpt lat="43.44406" lon="6.24892">
        <ele>297.20001220703</ele>
        <time>2015-05-31T06:35:53Z</time>
      </trkpt>
      <trkpt lat="43.44418" lon="6.24903">
        <ele>296</ele>
        <time>2015-05-31T06:35:56Z</time>
      </trkpt>
      <trkpt lat="43.44434" lon="6.24915">
        <ele>294.60000610352</ele>
        <time>2015-05-31T06:35:59Z</time>
      </trkpt>
      <trkpt lat="43.44445" lon="6.24924">
        <ele>293.20001220703</ele>
        <time>2015-05-31T06:36:01Z</time>
      </trkpt>
      <trkpt lat="43.44457" lon="6.24934">
        <ele>292.20001220703</ele>
        <time>2015-05-31T06:36:03Z</time>
      </trkpt>
      <trkpt lat="43.44469" lon="6.24943">
        <ele>291.20001220703</ele>
        <time>2015-05-31T06:36:05Z</time>
      </trkpt>
      <trkpt lat="43.44476" lon="6.24948">
        <ele>290.20001220703</ele>
        <time>2015-05-31T06:36:06Z</time>
      </trkpt>
      <trkpt lat="43.44483" lon="6.24953">
        <ele>289.20001220703</ele>
        <time>2015-05-31T06:36:07Z</time>
      </trkpt>
      <trkpt lat="43.4449" lon="6.24958">
        <ele>288.20001220703</ele>
        <time>2015-05-31T06:36:08Z</time>
      </trkpt>
      <trkpt lat="43.44503" lon="6.24968">
        <ele>287.60000610352</ele>
        <time>2015-05-31T06:36:10Z</time>
      </trkpt>
      <trkpt lat="43.4453" lon="6.24988">
        <ele>285.79998779297</ele>
        <time>2015-05-31T06:36:15Z</time>
      </trkpt>
      <trkpt lat="43.44541" lon="6.24993">
        <ele>285.39999389648</ele>
        <time>2015-05-31T06:36:17Z</time>
      </trkpt>
      <trkpt lat="43.44551" lon="6.24992">
        <ele>285.20001220703</ele>
        <time>2015-05-31T06:36:19Z</time>
      </trkpt>
      <trkpt lat="43.44587" lon="6.24982">
        <ele>285.39999389648</ele>
        <time>2015-05-31T06:36:26Z</time>
      </trkpt>
      <trkpt lat="43.44604" lon="6.24974">
        <ele>285.20001220703</ele>
        <time>2015-05-31T06:36:30Z</time>
      </trkpt>
      <trkpt lat="43.44613" lon="6.24971">
        <ele>285.39999389648</ele>
        <time>2015-05-31T06:36:32Z</time>
      </trkpt>
      <trkpt lat="43.44648" lon="6.24956">
        <ele>285.60000610352</ele>
        <time>2015-05-31T06:36:39Z</time>
      </trkpt>
      <trkpt lat="43.44677" lon="6.24943">
        <ele>286.39999389648</ele>
        <time>2015-05-31T06:36:45Z</time>
      </trkpt>
      <trkpt lat="43.44686" lon="6.24939">
        <ele>286</ele>
        <time>2015-05-31T06:36:47Z</time>
      </trkpt>
      <trkpt lat="43.44732" lon="6.24917">
        <ele>283</ele>
        <time>2015-05-31T06:36:54Z</time>
      </trkpt>
      <trkpt lat="43.44747" lon="6.24909">
        <ele>281.79998779297</ele>
        <time>2015-05-31T06:36:56Z</time>
      </trkpt>
      <trkpt lat="43.44754" lon="6.24905">
        <ele>280.79998779297</ele>
        <time>2015-05-31T06:36:57Z</time>
      </trkpt>
      <trkpt lat="43.44776" lon="6.24896">
        <ele>279.20001220703</ele>
        <time>2015-05-31T06:37:00Z</time>
      </trkpt>
      <trkpt lat="43.44806" lon="6.24881">
        <ele>277.20001220703</ele>
        <time>2015-05-31T06:37:04Z</time>
      </trkpt>
      <trkpt lat="43.44814" lon="6.24878">
        <ele>276.60000610352</ele>
        <time>2015-05-31T06:37:05Z</time>
      </trkpt>
      <trkpt lat="43.4483" lon="6.24872">
        <ele>275.20001220703</ele>
        <time>2015-05-31T06:37:07Z</time>
      </trkpt>
      <trkpt lat="43.44846" lon="6.24865">
        <ele>274.20001220703</ele>
        <time>2015-05-31T06:37:09Z</time>
      </trkpt>
      <trkpt lat="43.44854" lon="6.24862">
        <ele>273.79998779297</ele>
        <time>2015-05-31T06:37:10Z</time>
      </trkpt>
      <trkpt lat="43.44876" lon="6.24854">
        <ele>272.79998779297</ele>
        <time>2015-05-31T06:37:13Z</time>
      </trkpt>
      <trkpt lat="43.4489" lon="6.2485">
        <ele>272.20001220703</ele>
        <time>2015-05-31T06:37:15Z</time>
      </trkpt>
      <trkpt lat="43.44897" lon="6.24847">
        <ele>271.60000610352</ele>
        <time>2015-05-31T06:37:16Z</time>
      </trkpt>
      <trkpt lat="43.44918" lon="6.24836">
        <ele>271.20001220703</ele>
        <time>2015-05-31T06:37:19Z</time>
      </trkpt>
      <trkpt lat="43.44931" lon="6.24829">
        <ele>270.20001220703</ele>
        <time>2015-05-31T06:37:21Z</time>
      </trkpt>
      <trkpt lat="43.4495" lon="6.24821">
        <ele>269.39999389648</ele>
        <time>2015-05-31T06:37:24Z</time>
      </trkpt>
      <trkpt lat="43.44955" lon="6.24819">
        <ele>269.39999389648</ele>
        <time>2015-05-31T06:37:25Z</time>
      </trkpt>
      <trkpt lat="43.44974" lon="6.2481">
        <ele>269</ele>
        <time>2015-05-31T06:37:28Z</time>
      </trkpt>
      <trkpt lat="43.45004" lon="6.24793">
        <ele>268.20001220703</ele>
        <time>2015-05-31T06:37:33Z</time>
      </trkpt>
      <trkpt lat="43.45017" lon="6.24785">
        <ele>267.79998779297</ele>
        <time>2015-05-31T06:37:35Z</time>
      </trkpt>
      <trkpt lat="43.45034" lon="6.24771">
        <ele>266.79998779297</ele>
        <time>2015-05-31T06:37:38Z</time>
      </trkpt>
      <trkpt lat="43.45046" lon="6.24764">
        <ele>266.39999389648</ele>
        <time>2015-05-31T06:37:40Z</time>
      </trkpt>
      <trkpt lat="43.4506" lon="6.24761">
        <ele>265.39999389648</ele>
        <time>2015-05-31T06:37:42Z</time>
      </trkpt>
      <trkpt lat="43.45081" lon="6.24756">
        <ele>264</ele>
        <time>2015-05-31T06:37:45Z</time>
      </trkpt>
      <trkpt lat="43.45087" lon="6.24753">
        <ele>263.39999389648</ele>
        <time>2015-05-31T06:37:46Z</time>
      </trkpt>
      <trkpt lat="43.4511" lon="6.24735">
        <ele>262.60000610352</ele>
        <time>2015-05-31T06:37:50Z</time>
      </trkpt>
      <trkpt lat="43.45121" lon="6.24728">
        <ele>262.39999389648</ele>
        <time>2015-05-31T06:37:52Z</time>
      </trkpt>
      <trkpt lat="43.45139" lon="6.2472">
        <ele>263.39999389648</ele>
        <time>2015-05-31T06:37:55Z</time>
      </trkpt>
      <trkpt lat="43.4515" lon="6.24715">
        <ele>263.39999389648</ele>
        <time>2015-05-31T06:37:57Z</time>
      </trkpt>
      <trkpt lat="43.45161" lon="6.24709">
        <ele>263.60000610352</ele>
        <time>2015-05-31T06:37:59Z</time>
      </trkpt>
      <trkpt lat="43.45185" lon="6.24699">
        <ele>263.39999389648</ele>
        <time>2015-05-31T06:38:03Z</time>
      </trkpt>
      <trkpt lat="43.45197" lon="6.24694">
        <ele>263.39999389648</ele>
        <time>2015-05-31T06:38:05Z</time>
      </trkpt>
      <trkpt lat="43.45221" lon="6.24685">
        <ele>263.20001220703</ele>
        <time>2015-05-31T06:38:09Z</time>
      </trkpt>
      <trkpt lat="43.45238" lon="6.24678">
        <ele>263</ele>
        <time>2015-05-31T06:38:12Z</time>
      </trkpt>
      <trkpt lat="43.45258" lon="6.24669">
        <ele>262.39999389648</ele>
        <time>2015-05-31T06:38:15Z</time>
      </trkpt>
      <trkpt lat="43.45278" lon="6.24659">
        <ele>261.60000610352</ele>
        <time>2015-05-31T06:38:18Z</time>
      </trkpt>
      <trkpt lat="43.45305" lon="6.24646">
        <ele>261.20001220703</ele>
        <time>2015-05-31T06:38:22Z</time>
      </trkpt>
      <trkpt lat="43.45327" lon="6.24637">
        <ele>260.60000610352</ele>
        <time>2015-05-31T06:38:25Z</time>
      </trkpt>
      <trkpt lat="43.4534" lon="6.24631">
        <ele>260.20001220703</ele>
        <time>2015-05-31T06:38:27Z</time>
      </trkpt>
      <trkpt lat="43.45364" lon="6.2462">
        <ele>260.20001220703</ele>
        <time>2015-05-31T06:38:31Z</time>
      </trkpt>
      <trkpt lat="43.45397" lon="6.24605">
        <ele>260.79998779297</ele>
        <time>2015-05-31T06:38:38Z</time>
      </trkpt>
      <trkpt lat="43.45399" lon="6.24601">
        <ele>261</ele>
        <time>2015-05-31T06:38:40Z</time>
      </trkpt>
      <trkpt lat="43.45401" lon="6.24595">
        <ele>261</ele>
        <time>2015-05-31T06:38:42Z</time>
      </trkpt>
      <trkpt lat="43.45396" lon="6.24584">
        <ele>260.60000610352</ele>
        <time>2015-05-31T06:38:45Z</time>
      </trkpt>
      <trkpt lat="43.45388" lon="6.2457">
        <ele>259.79998779297</ele>
        <time>2015-05-31T06:38:50Z</time>
      </trkpt>
      <trkpt lat="43.4539" lon="6.24568">
        <ele>259.60000610352</ele>
        <time>2015-05-31T06:38:51Z</time>
      </trkpt>
      <trkpt lat="43.45394" lon="6.24562">
        <ele>259.79998779297</ele>
        <time>2015-05-31T06:38:54Z</time>
      </trkpt>
      <trkpt lat="43.45396" lon="6.24554">
        <ele>259.39999389648</ele>
        <time>2015-05-31T06:38:57Z</time>
      </trkpt>
      <trkpt lat="43.45398" lon="6.24548">
        <ele>259.20001220703</ele>
        <time>2015-05-31T06:38:59Z</time>
      </trkpt>
      <trkpt lat="43.45403" lon="6.2452">
        <ele>259.20001220703</ele>
        <time>2015-05-31T06:39:05Z</time>
      </trkpt>
      <trkpt lat="43.45403" lon="6.24503">
        <ele>258.60000610352</ele>
        <time>2015-05-31T06:39:08Z</time>
      </trkpt>
      <trkpt lat="43.45401" lon="6.2449">
        <ele>258.39999389648</ele>
        <time>2015-05-31T06:39:10Z</time>
      </trkpt>
      <trkpt lat="43.454" lon="6.24483">
        <ele>258</ele>
        <time>2015-05-31T06:39:11Z</time>
      </trkpt>
      <trkpt lat="43.45386" lon="6.24448">
        <ele>257.39999389648</ele>
        <time>2015-05-31T06:39:17Z</time>
      </trkpt>
      <trkpt lat="43.45372" lon="6.24427">
        <ele>257.39999389648</ele>
        <time>2015-05-31T06:39:21Z</time>
      </trkpt>
      <trkpt lat="43.45361" lon="6.24411">
        <ele>257.20001220703</ele>
        <time>2015-05-31T06:39:24Z</time>
      </trkpt>
      <trkpt lat="43.45358" lon="6.24406">
        <ele>257</ele>
        <time>2015-05-31T06:39:25Z</time>
      </trkpt>
      <trkpt lat="43.45339" lon="6.24383">
        <ele>257.20001220703</ele>
        <time>2015-05-31T06:39:30Z</time>
      </trkpt>
      <trkpt lat="43.45326" lon="6.24364">
        <ele>257.20001220703</ele>
        <time>2015-05-31T06:39:34Z</time>
      </trkpt>
      <trkpt lat="43.45318" lon="6.24357">
        <ele>257</ele>
        <time>2015-05-31T06:39:36Z</time>
      </trkpt>
      <trkpt lat="43.45307" lon="6.24346">
        <ele>256.79998779297</ele>
        <time>2015-05-31T06:39:39Z</time>
      </trkpt>
      <trkpt lat="43.45301" lon="6.24343">
        <ele>257</ele>
        <time>2015-05-31T06:39:41Z</time>
      </trkpt>
      <trkpt lat="43.45293" lon="6.24337">
        <ele>256.60000610352</ele>
        <time>2015-05-31T06:39:45Z</time>
      </trkpt>
      <trkpt lat="43.4529" lon="6.24336">
        <ele>256.39999389648</ele>
        <time>2015-05-31T06:39:46Z</time>
      </trkpt>
      <trkpt lat="43.45284" lon="6.24331">
        <ele>256.20001220703</ele>
        <time>2015-05-31T06:39:48Z</time>
      </trkpt>
      <trkpt lat="43.45276" lon="6.24326">
        <ele>255.80000305176</ele>
        <time>2015-05-31T06:39:50Z</time>
      </trkpt>
      <trkpt lat="43.45261" lon="6.24325">
        <ele>254.80000305176</ele>
        <time>2015-05-31T06:39:53Z</time>
      </trkpt>
      <trkpt lat="43.45256" lon="6.24324">
        <ele>254</ele>
        <time>2015-05-31T06:39:54Z</time>
      </trkpt>
      <trkpt lat="43.4525" lon="6.24323">
        <ele>253.60000610352</ele>
        <time>2015-05-31T06:39:55Z</time>
      </trkpt>
      <trkpt lat="43.4523" lon="6.2432">
        <ele>253.19999694824</ele>
        <time>2015-05-31T06:39:59Z</time>
      </trkpt>
      <trkpt lat="43.45225" lon="6.24318">
        <ele>253.19999694824</ele>
        <time>2015-05-31T06:40:00Z</time>
      </trkpt>
      <trkpt lat="43.45216" lon="6.2432">
        <ele>252.60000610352</ele>
        <time>2015-05-31T06:40:02Z</time>
      </trkpt>
      <trkpt lat="43.45213" lon="6.24324">
        <ele>252.19999694824</ele>
        <time>2015-05-31T06:40:03Z</time>
      </trkpt>
      <trkpt lat="43.45207" lon="6.24338">
        <ele>252.39999389648</ele>
        <time>2015-05-31T06:40:06Z</time>
      </trkpt>
      <trkpt lat="43.45206" lon="6.24344">
        <ele>252.19999694824</ele>
        <time>2015-05-31T06:40:07Z</time>
      </trkpt>
      <trkpt lat="43.45201" lon="6.24354">
        <ele>252.19999694824</ele>
        <time>2015-05-31T06:40:09Z</time>
      </trkpt>
      <trkpt lat="43.45195" lon="6.24367">
        <ele>252.60000610352</ele>
        <time>2015-05-31T06:40:12Z</time>
      </trkpt>
      <trkpt lat="43.4519" lon="6.24374">
        <ele>253.60000610352</ele>
        <time>2015-05-31T06:40:14Z</time>
      </trkpt>
      <trkpt lat="43.45184" lon="6.24383">
        <ele>254.19999694824</ele>
        <time>2015-05-31T06:40:17Z</time>
      </trkpt>
      <trkpt lat="43.45175" lon="6.24396">
        <ele>255</ele>
        <time>2015-05-31T06:40:21Z</time>
      </trkpt>
      <trkpt lat="43.45171" lon="6.24401">
        <ele>255.39999389648</ele>
        <time>2015-05-31T06:40:23Z</time>
      </trkpt>
      <trkpt lat="43.45165" lon="6.24405">
        <ele>256.20001220703</ele>
        <time>2015-05-31T06:40:25Z</time>
      </trkpt>
      <trkpt lat="43.45155" lon="6.24413">
        <ele>256.60000610352</ele>
        <time>2015-05-31T06:40:29Z</time>
      </trkpt>
      <trkpt lat="43.45147" lon="6.24419">
        <ele>257.20001220703</ele>
        <time>2015-05-31T06:40:32Z</time>
      </trkpt>
      <trkpt lat="43.45145" lon="6.2442">
        <ele>257.39999389648</ele>
        <time>2015-05-31T06:40:33Z</time>
      </trkpt>
      <trkpt lat="43.45131" lon="6.24422">
        <ele>258.20001220703</ele>
        <time>2015-05-31T06:40:38Z</time>
      </trkpt>
      <trkpt lat="43.45116" lon="6.24427">
        <ele>258.39999389648</ele>
        <time>2015-05-31T06:40:43Z</time>
      </trkpt>
      <trkpt lat="43.45101" lon="6.2444">
        <ele>258.39999389648</ele>
        <time>2015-05-31T06:40:48Z</time>
      </trkpt>
      <trkpt lat="43.45083" lon="6.2445">
        <ele>257.79998779297</ele>
        <time>2015-05-31T06:40:53Z</time>
      </trkpt>
      <trkpt lat="43.45078" lon="6.24452">
        <ele>257.39999389648</ele>
        <time>2015-05-31T06:40:54Z</time>
      </trkpt>
      <trkpt lat="43.45063" lon="6.24455">
        <ele>256</ele>
        <time>2015-05-31T06:40:57Z</time>
      </trkpt>
      <trkpt lat="43.45058" lon="6.24457">
        <ele>255.39999389648</ele>
        <time>2015-05-31T06:40:58Z</time>
      </trkpt>
      <trkpt lat="43.45045" lon="6.24469">
        <ele>255.19999694824</ele>
        <time>2015-05-31T06:41:01Z</time>
      </trkpt>
      <trkpt lat="43.45041" lon="6.24472">
        <ele>254.80000305176</ele>
        <time>2015-05-31T06:41:02Z</time>
      </trkpt>
      <trkpt lat="43.45036" lon="6.24476">
        <ele>253.60000610352</ele>
        <time>2015-05-31T06:41:05Z</time>
      </trkpt>
      <trkpt lat="43.45036" lon="6.24479">
        <ele>253.39999389648</ele>
        <time>2015-05-31T06:41:10Z</time>
      </trkpt>
      <trkpt lat="43.45035" lon="6.24484">
        <ele>254.19999694824</ele>
        <time>2015-05-31T06:41:17Z</time>
      </trkpt>
      <trkpt lat="43.45034" lon="6.24489">
        <ele>254.39999389648</ele>
        <time>2015-05-31T06:41:25Z</time>
      </trkpt>
      <trkpt lat="43.45031" lon="6.24494">
        <ele>255</ele>
        <time>2015-05-31T06:41:28Z</time>
      </trkpt>
      <trkpt lat="43.45028" lon="6.24498">
        <ele>255.60000610352</ele>
        <time>2015-05-31T06:41:31Z</time>
      </trkpt>
      <trkpt lat="43.45026" lon="6.24504">
        <ele>256.20001220703</ele>
        <time>2015-05-31T06:41:34Z</time>
      </trkpt>
      <trkpt lat="43.45025" lon="6.24505">
        <ele>256.39999389648</ele>
        <time>2015-05-31T06:41:35Z</time>
      </trkpt>
      <trkpt lat="43.45018" lon="6.24509">
        <ele>257.20001220703</ele>
        <time>2015-05-31T06:41:40Z</time>
      </trkpt>
      <trkpt lat="43.45015" lon="6.24508">
        <ele>257.20001220703</ele>
        <time>2015-05-31T06:41:42Z</time>
      </trkpt>
      <trkpt lat="43.45009" lon="6.24509">
        <ele>257</ele>
        <time>2015-05-31T06:41:46Z</time>
      </trkpt>
      <trkpt lat="43.45" lon="6.24506">
        <ele>257</ele>
        <time>2015-05-31T06:41:52Z</time>
      </trkpt>
      <trkpt lat="43.44992" lon="6.24509">
        <ele>257.20001220703</ele>
        <time>2015-05-31T06:41:57Z</time>
      </trkpt>
      <trkpt lat="43.44985" lon="6.24513">
        <ele>257.79998779297</ele>
        <time>2015-05-31T06:42:02Z</time>
      </trkpt>
      <trkpt lat="43.44983" lon="6.24512">
        <ele>257.79998779297</ele>
        <time>2015-05-31T06:42:03Z</time>
      </trkpt>
      <trkpt lat="43.4498" lon="6.24504">
        <ele>257.39999389648</ele>
        <time>2015-05-31T06:42:07Z</time>
      </trkpt>
      <trkpt lat="43.44978" lon="6.24489">
        <ele>257.39999389648</ele>
        <time>2015-05-31T06:42:11Z</time>
      </trkpt>
      <trkpt lat="43.44978" lon="6.24481">
        <ele>256.60000610352</ele>
        <time>2015-05-31T06:42:13Z</time>
      </trkpt>
      <trkpt lat="43.44979" lon="6.24473">
        <ele>256.39999389648</ele>
        <time>2015-05-31T06:42:15Z</time>
      </trkpt>
      <trkpt lat="43.44979" lon="6.24468">
        <ele>256.39999389648</ele>
        <time>2015-05-31T06:42:16Z</time>
      </trkpt>
      <trkpt lat="43.44977" lon="6.24457">
        <ele>255.39999389648</ele>
        <time>2015-05-31T06:42:18Z</time>
      </trkpt>
      <trkpt lat="43.44977" lon="6.24452">
        <ele>254.60000610352</ele>
        <time>2015-05-31T06:42:19Z</time>
      </trkpt>
      <trkpt lat="43.44976" lon="6.24446">
        <ele>254.19999694824</ele>
        <time>2015-05-31T06:42:20Z</time>
      </trkpt>
      <trkpt lat="43.44978" lon="6.24416">
        <ele>252.80000305176</ele>
        <time>2015-05-31T06:42:25Z</time>
      </trkpt>
      <trkpt lat="43.44973" lon="6.24394">
        <ele>251.80000305176</ele>
        <time>2015-05-31T06:42:29Z</time>
      </trkpt>
      <trkpt lat="43.44963" lon="6.24365">
        <ele>251.60000610352</ele>
        <time>2015-05-31T06:42:34Z</time>
      </trkpt>
      <trkpt lat="43.44958" lon="6.24354">
        <ele>251.60000610352</ele>
        <time>2015-05-31T06:42:36Z</time>
      </trkpt>
      <trkpt lat="43.44954" lon="6.2435">
        <ele>251.39999389648</ele>
        <time>2015-05-31T06:42:38Z</time>
      </trkpt>
      <trkpt lat="43.44952" lon="6.24349">
        <ele>251.19999694824</ele>
        <time>2015-05-31T06:42:39Z</time>
      </trkpt>
      <trkpt lat="43.44939" lon="6.24357">
        <ele>251.19999694824</ele>
        <time>2015-05-31T06:42:43Z</time>
      </trkpt>
      <trkpt lat="43.44932" lon="6.24361">
        <ele>250.80000305176</ele>
        <time>2015-05-31T06:42:45Z</time>
      </trkpt>
      <trkpt lat="43.44923" lon="6.24362">
        <ele>250.39999389648</ele>
        <time>2015-05-31T06:42:47Z</time>
      </trkpt>
      <trkpt lat="43.44918" lon="6.24363">
        <ele>250</ele>
        <time>2015-05-31T06:42:48Z</time>
      </trkpt>
      <trkpt lat="43.44908" lon="6.24364">
        <ele>249.19999694824</ele>
        <time>2015-05-31T06:42:50Z</time>
      </trkpt>
      <trkpt lat="43.44893" lon="6.24361">
        <ele>249.80000305176</ele>
        <time>2015-05-31T06:42:53Z</time>
      </trkpt>
      <trkpt lat="43.44871" lon="6.24356">
        <ele>249.80000305176</ele>
        <time>2015-05-31T06:42:58Z</time>
      </trkpt>
      <trkpt lat="43.44846" lon="6.24349">
        <ele>250.39999389648</ele>
        <time>2015-05-31T06:43:04Z</time>
      </trkpt>
      <trkpt lat="43.44827" lon="6.24344">
        <ele>251</ele>
        <time>2015-05-31T06:43:09Z</time>
      </trkpt>
      <trkpt lat="43.44807" lon="6.24336">
        <ele>251.39999389648</ele>
        <time>2015-05-31T06:43:14Z</time>
      </trkpt>
      <trkpt lat="43.44803" lon="6.24334">
        <ele>251.39999389648</ele>
        <time>2015-05-31T06:43:15Z</time>
      </trkpt>
      <trkpt lat="43.44799" lon="6.24332">
        <ele>251.39999389648</ele>
        <time>2015-05-31T06:43:16Z</time>
      </trkpt>
      <trkpt lat="43.44781" lon="6.24326">
        <ele>251.39999389648</ele>
        <time>2015-05-31T06:43:20Z</time>
      </trkpt>
      <trkpt lat="43.44764" lon="6.2432">
        <ele>251.19999694824</ele>
        <time>2015-05-31T06:43:24Z</time>
      </trkpt>
      <trkpt lat="43.4476" lon="6.24319">
        <ele>251.19999694824</ele>
        <time>2015-05-31T06:43:25Z</time>
      </trkpt>
      <trkpt lat="43.44736" lon="6.24315">
        <ele>250.19999694824</ele>
        <time>2015-05-31T06:43:31Z</time>
      </trkpt>
      <trkpt lat="43.44728" lon="6.24314">
        <ele>249.60000610352</ele>
        <time>2015-05-31T06:43:34Z</time>
      </trkpt>
      <trkpt lat="43.44725" lon="6.24313">
        <ele>250</ele>
        <time>2015-05-31T06:43:35Z</time>
      </trkpt>
      <trkpt lat="43.44713" lon="6.24311">
        <ele>249.80000305176</ele>
        <time>2015-05-31T06:43:39Z</time>
      </trkpt>
      <trkpt lat="43.44707" lon="6.24309">
        <ele>250.60000610352</ele>
        <time>2015-05-31T06:43:41Z</time>
      </trkpt>
      <trkpt lat="43.44684" lon="6.24303">
        <ele>249.39999389648</ele>
        <time>2015-05-31T06:43:47Z</time>
      </trkpt>
      <trkpt lat="43.44655" lon="6.24312">
        <ele>250.19999694824</ele>
        <time>2015-05-31T06:43:54Z</time>
      </trkpt>
      <trkpt lat="43.44638" lon="6.24312">
        <ele>249.80000305176</ele>
        <time>2015-05-31T06:43:58Z</time>
      </trkpt>
      <trkpt lat="43.44635" lon="6.24308">
        <ele>249.60000610352</ele>
        <time>2015-05-31T06:43:59Z</time>
      </trkpt>
      <trkpt lat="43.4463" lon="6.24291">
        <ele>249.60000610352</ele>
        <time>2015-05-31T06:44:02Z</time>
      </trkpt>
      <trkpt lat="43.44629" lon="6.24279">
        <ele>249</ele>
        <time>2015-05-31T06:44:04Z</time>
      </trkpt>
      <trkpt lat="43.44628" lon="6.24273">
        <ele>248.60000610352</ele>
        <time>2015-05-31T06:44:05Z</time>
      </trkpt>
      <trkpt lat="43.44624" lon="6.24255">
        <ele>248.60000610352</ele>
        <time>2015-05-31T06:44:08Z</time>
      </trkpt>
      <trkpt lat="43.44621" lon="6.2425">
        <ele>248.39999389648</ele>
        <time>2015-05-31T06:44:09Z</time>
      </trkpt>
      <trkpt lat="43.44611" lon="6.24236">
        <ele>247.80000305176</ele>
        <time>2015-05-31T06:44:12Z</time>
      </trkpt>
      <trkpt lat="43.44608" lon="6.24227">
        <ele>247.19999694824</ele>
        <time>2015-05-31T06:44:14Z</time>
      </trkpt>
      <trkpt lat="43.44602" lon="6.2421">
        <ele>246.60000610352</ele>
        <time>2015-05-31T06:44:18Z</time>
      </trkpt>
      <trkpt lat="43.44601" lon="6.24205">
        <ele>246.39999389648</ele>
        <time>2015-05-31T06:44:19Z</time>
      </trkpt>
      <trkpt lat="43.44602" lon="6.24202">
        <ele>246.19999694824</ele>
        <time>2015-05-31T06:44:20Z</time>
      </trkpt>
      <trkpt lat="43.44612" lon="6.24189">
        <ele>245.80000305176</ele>
        <time>2015-05-31T06:44:25Z</time>
      </trkpt>
      <trkpt lat="43.44617" lon="6.24186">
        <ele>245.80000305176</ele>
        <time>2015-05-31T06:44:27Z</time>
      </trkpt>
      <trkpt lat="43.44625" lon="6.24177">
        <ele>246.80000305176</ele>
        <time>2015-05-31T06:44:31Z</time>
      </trkpt>
      <trkpt lat="43.44627" lon="6.24172">
        <ele>247.19999694824</ele>
        <time>2015-05-31T06:44:33Z</time>
      </trkpt>
      <trkpt lat="43.44627" lon="6.24171">
        <ele>247.19999694824</ele>
        <time>2015-05-31T06:44:34Z</time>
      </trkpt>
      <trkpt lat="43.44624" lon="6.24167">
        <ele>247.19999694824</ele>
        <time>2015-05-31T06:44:36Z</time>
      </trkpt>
      <trkpt lat="43.4462" lon="6.24158">
        <ele>247</ele>
        <time>2015-05-31T06:44:39Z</time>
      </trkpt>
      <trkpt lat="43.4462" lon="6.24154">
        <ele>246.80000305176</ele>
        <time>2015-05-31T06:44:40Z</time>
      </trkpt>
      <trkpt lat="43.44621" lon="6.2415">
        <ele>246.60000610352</ele>
        <time>2015-05-31T06:44:41Z</time>
      </trkpt>
      <trkpt lat="43.44623" lon="6.24142">
        <ele>246.19999694824</ele>
        <time>2015-05-31T06:44:43Z</time>
      </trkpt>
      <trkpt lat="43.44621" lon="6.24132">
        <ele>245.80000305176</ele>
        <time>2015-05-31T06:44:46Z</time>
      </trkpt>
      <trkpt lat="43.4462" lon="6.24128">
        <ele>245.60000610352</ele>
        <time>2015-05-31T06:44:47Z</time>
      </trkpt>
      <trkpt lat="43.44617" lon="6.24121">
        <ele>245.19999694824</ele>
        <time>2015-05-31T06:44:49Z</time>
      </trkpt>
      <trkpt lat="43.44614" lon="6.24114">
        <ele>245</ele>
        <time>2015-05-31T06:44:51Z</time>
      </trkpt>
      <trkpt lat="43.44605" lon="6.24096">
        <ele>244.39999389648</ele>
        <time>2015-05-31T06:44:55Z</time>
      </trkpt>
      <trkpt lat="43.44594" lon="6.24084">
        <ele>244.80000305176</ele>
        <time>2015-05-31T06:44:59Z</time>
      </trkpt>
      <trkpt lat="43.44581" lon="6.24064">
        <ele>245.39999389648</ele>
        <time>2015-05-31T06:45:05Z</time>
      </trkpt>
      <trkpt lat="43.44576" lon="6.24052">
        <ele>245.39999389648</ele>
        <time>2015-05-31T06:45:10Z</time>
      </trkpt>
      <trkpt lat="43.4457" lon="6.24041">
        <ele>246</ele>
        <time>2015-05-31T06:45:15Z</time>
      </trkpt>
      <trkpt lat="43.44572" lon="6.24027">
        <ele>246.39999389648</ele>
        <time>2015-05-31T06:45:19Z</time>
      </trkpt>
      <trkpt lat="43.44573" lon="6.24022">
        <ele>246.39999389648</ele>
        <time>2015-05-31T06:45:20Z</time>
      </trkpt>
      <trkpt lat="43.44577" lon="6.24006">
        <ele>246.39999389648</ele>
        <time>2015-05-31T06:45:24Z</time>
      </trkpt>
      <trkpt lat="43.44579" lon="6.23997">
        <ele>246.80000305176</ele>
        <time>2015-05-31T06:45:26Z</time>
      </trkpt>
      <trkpt lat="43.44577" lon="6.2399">
        <ele>246.39999389648</ele>
        <time>2015-05-31T06:45:28Z</time>
      </trkpt>
      <trkpt lat="43.44575" lon="6.23984">
        <ele>246.60000610352</ele>
        <time>2015-05-31T06:45:30Z</time>
      </trkpt>
      <trkpt lat="43.44569" lon="6.23973">
        <ele>246.39999389648</ele>
        <time>2015-05-31T06:45:34Z</time>
      </trkpt>
      <trkpt lat="43.44564" lon="6.23961">
        <ele>246.39999389648</ele>
        <time>2015-05-31T06:45:38Z</time>
      </trkpt>
      <trkpt lat="43.44561" lon="6.23954">
        <ele>248</ele>
        <time>2015-05-31T06:45:42Z</time>
      </trkpt>
      <trkpt lat="43.4456" lon="6.23952">
        <ele>248.19999694824</ele>
        <time>2015-05-31T06:45:43Z</time>
      </trkpt>
      <trkpt lat="43.44558" lon="6.23948">
        <ele>248.60000610352</ele>
        <time>2015-05-31T06:45:45Z</time>
      </trkpt>
      <trkpt lat="43.44557" lon="6.23945">
        <ele>249</ele>
        <time>2015-05-31T06:45:47Z</time>
      </trkpt>
      <trkpt lat="43.44556" lon="6.23941">
        <ele>249.39999389648</ele>
        <time>2015-05-31T06:45:49Z</time>
      </trkpt>
      <trkpt lat="43.44555" lon="6.23938">
        <ele>249.80000305176</ele>
        <time>2015-05-31T06:45:51Z</time>
      </trkpt>
      <trkpt lat="43.44554" lon="6.23937">
        <ele>250</ele>
        <time>2015-05-31T06:45:52Z</time>
      </trkpt>
      <trkpt lat="43.44553" lon="6.23934">
        <ele>250.19999694824</ele>
        <time>2015-05-31T06:45:53Z</time>
      </trkpt>
      <trkpt lat="43.4455" lon="6.23923">
        <ele>251.19999694824</ele>
        <time>2015-05-31T06:45:59Z</time>
      </trkpt>
      <trkpt lat="43.44551" lon="6.23919">
        <ele>251.60000610352</ele>
        <time>2015-05-31T06:46:01Z</time>
      </trkpt>
      <trkpt lat="43.44549" lon="6.23906">
        <ele>251.39999389648</ele>
        <time>2015-05-31T06:46:06Z</time>
      </trkpt>
      <trkpt lat="43.44545" lon="6.23893">
        <ele>252.60000610352</ele>
        <time>2015-05-31T06:46:13Z</time>
      </trkpt>
      <trkpt lat="43.44542" lon="6.23888">
        <ele>253</ele>
        <time>2015-05-31T06:46:16Z</time>
      </trkpt>
      <trkpt lat="43.44539" lon="6.23885">
        <ele>254</ele>
        <time>2015-05-31T06:46:18Z</time>
      </trkpt>
      <trkpt lat="43.44536" lon="6.23879">
        <ele>254.19999694824</ele>
        <time>2015-05-31T06:46:21Z</time>
      </trkpt>
      <trkpt lat="43.44532" lon="6.23874">
        <ele>255.60000610352</ele>
        <time>2015-05-31T06:46:25Z</time>
      </trkpt>
      <trkpt lat="43.44528" lon="6.2387">
        <ele>256.39999389648</ele>
        <time>2015-05-31T06:46:29Z</time>
      </trkpt>
      <trkpt lat="43.44527" lon="6.2387">
        <ele>256.60000610352</ele>
        <time>2015-05-31T06:46:30Z</time>
      </trkpt>
      <trkpt lat="43.44527" lon="6.23871">
        <ele>256.79998779297</ele>
        <time>2015-05-31T06:46:31Z</time>
      </trkpt>
      <trkpt lat="43.44527" lon="6.2387">
        <ele>256.79998779297</ele>
        <time>2015-05-31T06:46:38Z</time>
      </trkpt>
      <trkpt lat="43.44527" lon="6.2387">
        <ele>256.79998779297</ele>
        <time>2015-05-31T06:46:40Z</time>
      </trkpt>
      <trkpt lat="43.44527" lon="6.2387">
        <ele>257</ele>
        <time>2015-05-31T06:46:43Z</time>
      </trkpt>
      <trkpt lat="43.44525" lon="6.23867">
        <ele>257.60000610352</ele>
        <time>2015-05-31T06:46:50Z</time>
      </trkpt>
      <trkpt lat="43.44523" lon="6.23863">
        <ele>257.60000610352</ele>
        <time>2015-05-31T06:46:54Z</time>
      </trkpt>
      <trkpt lat="43.44521" lon="6.2386">
        <ele>258</ele>
        <time>2015-05-31T06:46:58Z</time>
      </trkpt>
      <trkpt lat="43.4452" lon="6.23859">
        <ele>258.20001220703</ele>
        <time>2015-05-31T06:47:00Z</time>
      </trkpt>
      <trkpt lat="43.44517" lon="6.2385">
        <ele>259</ele>
        <time>2015-05-31T06:47:09Z</time>
      </trkpt>
      <trkpt lat="43.44517" lon="6.23849">
        <ele>259.39999389648</ele>
        <time>2015-05-31T06:47:11Z</time>
      </trkpt>
      <trkpt lat="43.44515" lon="6.23844">
        <ele>260</ele>
        <time>2015-05-31T06:47:16Z</time>
      </trkpt>
      <trkpt lat="43.44514" lon="6.2384">
        <ele>260.39999389648</ele>
        <time>2015-05-31T06:47:22Z</time>
      </trkpt>
      <trkpt lat="43.44514" lon="6.23839">
        <ele>260.39999389648</ele>
        <time>2015-05-31T06:47:29Z</time>
      </trkpt>
      <trkpt lat="43.44514" lon="6.23832">
        <ele>260.60000610352</ele>
        <time>2015-05-31T06:47:32Z</time>
      </trkpt>
      <trkpt lat="43.44514" lon="6.23829">
        <ele>260.60000610352</ele>
        <time>2015-05-31T06:47:34Z</time>
      </trkpt>
      <trkpt lat="43.44517" lon="6.2382">
        <ele>260.20001220703</ele>
        <time>2015-05-31T06:47:40Z</time>
      </trkpt>
      <trkpt lat="43.44519" lon="6.23816">
        <ele>260.79998779297</ele>
        <time>2015-05-31T06:47:43Z</time>
      </trkpt>
      <trkpt lat="43.44521" lon="6.23815">
        <ele>261.39999389648</ele>
        <time>2015-05-31T06:47:45Z</time>
      </trkpt>
      <trkpt lat="43.44525" lon="6.23813">
        <ele>260.79998779297</ele>
        <time>2015-05-31T06:47:50Z</time>
      </trkpt>
      <trkpt lat="43.44526" lon="6.23812">
        <ele>260.79998779297</ele>
        <time>2015-05-31T06:47:51Z</time>
      </trkpt>
      <trkpt lat="43.44538" lon="6.23808">
        <ele>260.20001220703</ele>
        <time>2015-05-31T06:47:57Z</time>
      </trkpt>
      <trkpt lat="43.44558" lon="6.23801">
        <ele>261</ele>
        <time>2015-05-31T06:48:05Z</time>
      </trkpt>
      <trkpt lat="43.44604" lon="6.23777">
        <ele>262.20001220703</ele>
        <time>2015-05-31T06:48:21Z</time>
      </trkpt>
      <trkpt lat="43.44619" lon="6.23781">
        <ele>262.20001220703</ele>
        <time>2015-05-31T06:48:26Z</time>
      </trkpt>
      <trkpt lat="43.44623" lon="6.23789">
        <ele>262.20001220703</ele>
        <time>2015-05-31T06:48:29Z</time>
      </trkpt>
      <trkpt lat="43.44624" lon="6.23793">
        <ele>262.20001220703</ele>
        <time>2015-05-31T06:48:30Z</time>
      </trkpt>
      <trkpt lat="43.44632" lon="6.23806">
        <ele>261.39999389648</ele>
        <time>2015-05-31T06:48:34Z</time>
      </trkpt>
      <trkpt lat="43.44635" lon="6.23827">
        <ele>260.60000610352</ele>
        <time>2015-05-31T06:48:39Z</time>
      </trkpt>
      <trkpt lat="43.44637" lon="6.23831">
        <ele>260.60000610352</ele>
        <time>2015-05-31T06:48:40Z</time>
      </trkpt>
      <trkpt lat="43.44642" lon="6.23837">
        <ele>260.39999389648</ele>
        <time>2015-05-31T06:48:42Z</time>
      </trkpt>
      <trkpt lat="43.44648" lon="6.23851">
        <ele>260.20001220703</ele>
        <time>2015-05-31T06:48:45Z</time>
      </trkpt>
      <trkpt lat="43.4465" lon="6.23855">
        <ele>260</ele>
        <time>2015-05-31T06:48:46Z</time>
      </trkpt>
      <trkpt lat="43.44658" lon="6.23862">
        <ele>259.60000610352</ele>
        <time>2015-05-31T06:48:49Z</time>
      </trkpt>
      <trkpt lat="43.44663" lon="6.2387">
        <ele>259.39999389648</ele>
        <time>2015-05-31T06:48:51Z</time>
      </trkpt>
      <trkpt lat="43.44671" lon="6.23879">
        <ele>258.60000610352</ele>
        <time>2015-05-31T06:48:54Z</time>
      </trkpt>
      <trkpt lat="43.44675" lon="6.23882">
        <ele>258.60000610352</ele>
        <time>2015-05-31T06:48:55Z</time>
      </trkpt>
      <trkpt lat="43.44679" lon="6.23885">
        <ele>258.20001220703</ele>
        <time>2015-05-31T06:48:56Z</time>
      </trkpt>
      <trkpt lat="43.44688" lon="6.23891">
        <ele>257</ele>
        <time>2015-05-31T06:48:58Z</time>
      </trkpt>
      <trkpt lat="43.44694" lon="6.23894">
        <ele>256</ele>
        <time>2015-05-31T06:49:00Z</time>
      </trkpt>
      <trkpt lat="43.44697" lon="6.23896">
        <ele>254.60000610352</ele>
        <time>2015-05-31T06:49:02Z</time>
      </trkpt>
      <trkpt lat="43.44702" lon="6.23902">
        <ele>253.60000610352</ele>
        <time>2015-05-31T06:49:07Z</time>
      </trkpt>
      <trkpt lat="43.44701" lon="6.23902">
        <ele>253.60000610352</ele>
        <time>2015-05-31T06:49:11Z</time>
      </trkpt>
      <trkpt lat="43.44701" lon="6.23902">
        <ele>253.39999389648</ele>
        <time>2015-05-31T06:49:13Z</time>
      </trkpt>
      <trkpt lat="43.44703" lon="6.23906">
        <ele>252.60000610352</ele>
        <time>2015-05-31T06:49:19Z</time>
      </trkpt>
      <trkpt lat="43.44703" lon="6.23907">
        <ele>252.39999389648</ele>
        <time>2015-05-31T06:49:20Z</time>
      </trkpt>
      <trkpt lat="43.44705" lon="6.2391">
        <ele>251.19999694824</ele>
        <time>2015-05-31T06:49:27Z</time>
      </trkpt>
      <trkpt lat="43.44706" lon="6.23911">
        <ele>250.19999694824</ele>
        <time>2015-05-31T06:49:34Z</time>
      </trkpt>
      <trkpt lat="43.44707" lon="6.23911">
        <ele>249.80000305176</ele>
        <time>2015-05-31T06:49:38Z</time>
      </trkpt>
      <trkpt lat="43.44708" lon="6.2391">
        <ele>249.19999694824</ele>
        <time>2015-05-31T06:49:40Z</time>
      </trkpt>
      <trkpt lat="43.44709" lon="6.2391">
        <ele>248.39999389648</ele>
        <time>2015-05-31T06:49:44Z</time>
      </trkpt>
      <trkpt lat="43.44712" lon="6.23911">
        <ele>248</ele>
        <time>2015-05-31T06:49:49Z</time>
      </trkpt>
      <trkpt lat="43.44716" lon="6.23911">
        <ele>247.39999389648</ele>
        <time>2015-05-31T06:49:51Z</time>
      </trkpt>
      <trkpt lat="43.44719" lon="6.2391">
        <ele>247.19999694824</ele>
        <time>2015-05-31T06:49:52Z</time>
      </trkpt>
      <trkpt lat="43.44721" lon="6.2391">
        <ele>247</ele>
        <time>2015-05-31T06:49:53Z</time>
      </trkpt>
      <trkpt lat="43.44727" lon="6.23908">
        <ele>247.19999694824</ele>
        <time>2015-05-31T06:49:56Z</time>
      </trkpt>
      <trkpt lat="43.44738" lon="6.23917">
        <ele>247.39999389648</ele>
        <time>2015-05-31T06:50:01Z</time>
      </trkpt>
      <trkpt lat="43.44746" lon="6.23936">
        <ele>247.60000610352</ele>
        <time>2015-05-31T06:50:06Z</time>
      </trkpt>
      <trkpt lat="43.44758" lon="6.23964">
        <ele>247</ele>
        <time>2015-05-31T06:50:12Z</time>
      </trkpt>
      <trkpt lat="43.4476" lon="6.23969">
        <ele>246.80000305176</ele>
        <time>2015-05-31T06:50:13Z</time>
      </trkpt>
      <trkpt lat="43.4477" lon="6.23993">
        <ele>245.60000610352</ele>
        <time>2015-05-31T06:50:18Z</time>
      </trkpt>
      <trkpt lat="43.44773" lon="6.23998">
        <ele>245.60000610352</ele>
        <time>2015-05-31T06:50:20Z</time>
      </trkpt>
      <trkpt lat="43.44776" lon="6.23994">
        <ele>245</ele>
        <time>2015-05-31T06:50:22Z</time>
      </trkpt>
      <trkpt lat="43.44777" lon="6.2399">
        <ele>244.39999389648</ele>
        <time>2015-05-31T06:50:23Z</time>
      </trkpt>
      <trkpt lat="43.44775" lon="6.23974">
        <ele>243</ele>
        <time>2015-05-31T06:50:26Z</time>
      </trkpt>
      <trkpt lat="43.44775" lon="6.23967">
        <ele>241.60000610352</ele>
        <time>2015-05-31T06:50:27Z</time>
      </trkpt>
      <trkpt lat="43.44776" lon="6.2396">
        <ele>240.39999389648</ele>
        <time>2015-05-31T06:50:28Z</time>
      </trkpt>
      <trkpt lat="43.44779" lon="6.23945">
        <ele>239</ele>
        <time>2015-05-31T06:50:31Z</time>
      </trkpt>
      <trkpt lat="43.44784" lon="6.23942">
        <ele>238.60000610352</ele>
        <time>2015-05-31T06:50:33Z</time>
      </trkpt>
      <trkpt lat="43.44786" lon="6.23944">
        <ele>238.60000610352</ele>
        <time>2015-05-31T06:50:34Z</time>
      </trkpt>
      <trkpt lat="43.44789" lon="6.23932">
        <ele>238.19999694824</ele>
        <time>2015-05-31T06:50:38Z</time>
      </trkpt>
      <trkpt lat="43.44788" lon="6.23927">
        <ele>238.19999694824</ele>
        <time>2015-05-31T06:50:39Z</time>
      </trkpt>
      <trkpt lat="43.44786" lon="6.23914">
        <ele>238</ele>
        <time>2015-05-31T06:50:41Z</time>
      </trkpt>
      <trkpt lat="43.44784" lon="6.23901">
        <ele>237.60000610352</ele>
        <time>2015-05-31T06:50:43Z</time>
      </trkpt>
      <trkpt lat="43.4478" lon="6.2388">
        <ele>236.80000305176</ele>
        <time>2015-05-31T06:50:46Z</time>
      </trkpt>
      <trkpt lat="43.44775" lon="6.23856">
        <ele>236.19999694824</ele>
        <time>2015-05-31T06:50:49Z</time>
      </trkpt>
      <trkpt lat="43.44773" lon="6.23847">
        <ele>235.60000610352</ele>
        <time>2015-05-31T06:50:50Z</time>
      </trkpt>
      <trkpt lat="43.4477" lon="6.23839">
        <ele>235.39999389648</ele>
        <time>2015-05-31T06:50:51Z</time>
      </trkpt>
      <trkpt lat="43.44761" lon="6.23814">
        <ele>234.80000305176</ele>
        <time>2015-05-31T06:50:54Z</time>
      </trkpt>
      <trkpt lat="43.44759" lon="6.23804">
        <ele>234.19999694824</ele>
        <time>2015-05-31T06:50:55Z</time>
      </trkpt>
      <trkpt lat="43.44752" lon="6.23773">
        <ele>235</ele>
        <time>2015-05-31T06:50:59Z</time>
      </trkpt>
      <trkpt lat="43.44746" lon="6.23745">
        <ele>233.60000610352</ele>
        <time>2015-05-31T06:51:04Z</time>
      </trkpt>
      <trkpt lat="43.44745" lon="6.23739">
        <ele>233.80000305176</ele>
        <time>2015-05-31T06:51:05Z</time>
      </trkpt>
      <trkpt lat="43.4474" lon="6.23709">
        <ele>233.39999389648</ele>
        <time>2015-05-31T06:51:10Z</time>
      </trkpt>
      <trkpt lat="43.44735" lon="6.23678">
        <ele>232.80000305176</ele>
        <time>2015-05-31T06:51:16Z</time>
      </trkpt>
      <trkpt lat="43.44728" lon="6.2366">
        <ele>231.60000610352</ele>
        <time>2015-05-31T06:51:21Z</time>
      </trkpt>
      <trkpt lat="43.44728" lon="6.23644">
        <ele>231.80000305176</ele>
        <time>2015-05-31T06:51:25Z</time>
      </trkpt>
      <trkpt lat="43.44733" lon="6.23622">
        <ele>231.60000610352</ele>
        <time>2015-05-31T06:51:30Z</time>
      </trkpt>
      <trkpt lat="43.44735" lon="6.23611">
        <ele>231</ele>
        <time>2015-05-31T06:51:32Z</time>
      </trkpt>
      <trkpt lat="43.44739" lon="6.23595">
        <ele>230.80000305176</ele>
        <time>2015-05-31T06:51:35Z</time>
      </trkpt>
      <trkpt lat="43.44743" lon="6.23583">
        <ele>230.60000610352</ele>
        <time>2015-05-31T06:51:37Z</time>
      </trkpt>
      <trkpt lat="43.4475" lon="6.23558">
        <ele>230</ele>
        <time>2015-05-31T06:51:42Z</time>
      </trkpt>
      <trkpt lat="43.44756" lon="6.23532">
        <ele>230.19999694824</ele>
        <time>2015-05-31T06:51:47Z</time>
      </trkpt>
      <trkpt lat="43.4476" lon="6.23522">
        <ele>229.19999694824</ele>
        <time>2015-05-31T06:51:49Z</time>
      </trkpt>
      <trkpt lat="43.44764" lon="6.23506">
        <ele>228.80000305176</ele>
        <time>2015-05-31T06:51:53Z</time>
      </trkpt>
      <trkpt lat="43.44766" lon="6.23487">
        <ele>228.80000305176</ele>
        <time>2015-05-31T06:51:58Z</time>
      </trkpt>
      <trkpt lat="43.44762" lon="6.2347">
        <ele>229.80000305176</ele>
        <time>2015-05-31T06:52:03Z</time>
      </trkpt>
      <trkpt lat="43.44761" lon="6.23468">
        <ele>229.80000305176</ele>
        <time>2015-05-31T06:52:04Z</time>
      </trkpt>
      <trkpt lat="43.44757" lon="6.23463">
        <ele>229.80000305176</ele>
        <time>2015-05-31T06:52:06Z</time>
      </trkpt>
      <trkpt lat="43.44752" lon="6.23461">
        <ele>229.60000610352</ele>
        <time>2015-05-31T06:52:08Z</time>
      </trkpt>
      <trkpt lat="43.44748" lon="6.23462">
        <ele>230.19999694824</ele>
        <time>2015-05-31T06:52:10Z</time>
      </trkpt>
      <trkpt lat="43.44741" lon="6.23462">
        <ele>231.19999694824</ele>
        <time>2015-05-31T06:52:13Z</time>
      </trkpt>
      <trkpt lat="43.44738" lon="6.23462">
        <ele>231.60000610352</ele>
        <time>2015-05-31T06:52:15Z</time>
      </trkpt>
      <trkpt lat="43.4473" lon="6.23462">
        <ele>232.39999389648</ele>
        <time>2015-05-31T06:52:19Z</time>
      </trkpt>
      <trkpt lat="43.44721" lon="6.23462">
        <ele>233.80000305176</ele>
        <time>2015-05-31T06:52:24Z</time>
      </trkpt>
      <trkpt lat="43.4471" lon="6.23462">
        <ele>234.80000305176</ele>
        <time>2015-05-31T06:52:31Z</time>
      </trkpt>
      <trkpt lat="43.44699" lon="6.2346">
        <ele>235.80000305176</ele>
        <time>2015-05-31T06:52:38Z</time>
      </trkpt>
      <trkpt lat="43.4469" lon="6.23459">
        <ele>236.80000305176</ele>
        <time>2015-05-31T06:52:44Z</time>
      </trkpt>
      <trkpt lat="43.44685" lon="6.23456">
        <ele>236.80000305176</ele>
        <time>2015-05-31T06:52:47Z</time>
      </trkpt>
      <trkpt lat="43.44674" lon="6.23446">
        <ele>237.60000610352</ele>
        <time>2015-05-31T06:52:55Z</time>
      </trkpt>
      <trkpt lat="43.44672" lon="6.23443">
        <ele>237.80000305176</ele>
        <time>2015-05-31T06:52:57Z</time>
      </trkpt>
      <trkpt lat="43.44659" lon="6.23415">
        <ele>238.80000305176</ele>
        <time>2015-05-31T06:53:09Z</time>
      </trkpt>
      <trkpt lat="43.44656" lon="6.23407">
        <ele>239</ele>
        <time>2015-05-31T06:53:12Z</time>
      </trkpt>
      <trkpt lat="43.4465" lon="6.23393">
        <ele>239.80000305176</ele>
        <time>2015-05-31T06:53:17Z</time>
      </trkpt>
      <trkpt lat="43.44643" lon="6.2338">
        <ele>239.60000610352</ele>
        <time>2015-05-31T06:53:22Z</time>
      </trkpt>
      <trkpt lat="43.44635" lon="6.23362">
        <ele>240</ele>
        <time>2015-05-31T06:53:29Z</time>
      </trkpt>
      <trkpt lat="43.44629" lon="6.23348">
        <ele>240.39999389648</ele>
        <time>2015-05-31T06:53:34Z</time>
      </trkpt>
      <trkpt lat="43.44624" lon="6.23338">
        <ele>241</ele>
        <time>2015-05-31T06:53:38Z</time>
      </trkpt>
      <trkpt lat="43.44609" lon="6.23308">
        <ele>241.80000305176</ele>
        <time>2015-05-31T06:53:50Z</time>
      </trkpt>
      <trkpt lat="43.44602" lon="6.23291">
        <ele>242.80000305176</ele>
        <time>2015-05-31T06:53:57Z</time>
      </trkpt>
      <trkpt lat="43.44599" lon="6.23287">
        <ele>243</ele>
        <time>2015-05-31T06:53:59Z</time>
      </trkpt>
      <trkpt lat="43.44592" lon="6.23278">
        <ele>244</ele>
        <time>2015-05-31T06:54:04Z</time>
      </trkpt>
      <trkpt lat="43.44589" lon="6.23275">
        <ele>244.19999694824</ele>
        <time>2015-05-31T06:54:06Z</time>
      </trkpt>
      <trkpt lat="43.44581" lon="6.23269">
        <ele>245.39999389648</ele>
        <time>2015-05-31T06:54:11Z</time>
      </trkpt>
      <trkpt lat="43.44571" lon="6.23261">
        <ele>246.60000610352</ele>
        <time>2015-05-31T06:54:18Z</time>
      </trkpt>
      <trkpt lat="43.44563" lon="6.23253">
        <ele>247.19999694824</ele>
        <time>2015-05-31T06:54:24Z</time>
      </trkpt>
      <trkpt lat="43.44559" lon="6.23251">
        <ele>247.60000610352</ele>
        <time>2015-05-31T06:54:26Z</time>
      </trkpt>
      <trkpt lat="43.44553" lon="6.23244">
        <ele>248.80000305176</ele>
        <time>2015-05-31T06:54:31Z</time>
      </trkpt>
      <trkpt lat="43.44549" lon="6.23239">
        <ele>249.19999694824</ele>
        <time>2015-05-31T06:54:34Z</time>
      </trkpt>
      <trkpt lat="43.44544" lon="6.23219">
        <ele>249.19999694824</ele>
        <time>2015-05-31T06:54:41Z</time>
      </trkpt>
      <trkpt lat="43.44543" lon="6.23193">
        <ele>248.60000610352</ele>
        <time>2015-05-31T06:54:47Z</time>
      </trkpt>
      <trkpt lat="43.44543" lon="6.23174">
        <ele>248.19999694824</ele>
        <time>2015-05-31T06:54:52Z</time>
      </trkpt>
      <trkpt lat="43.44542" lon="6.23143">
        <ele>248.60000610352</ele>
        <time>2015-05-31T06:54:59Z</time>
      </trkpt>
      <trkpt lat="43.44541" lon="6.23115">
        <ele>248.19999694824</ele>
        <time>2015-05-31T06:55:05Z</time>
      </trkpt>
      <trkpt lat="43.44538" lon="6.23095">
        <ele>247.60000610352</ele>
        <time>2015-05-31T06:55:09Z</time>
      </trkpt>
      <trkpt lat="43.44526" lon="6.23064">
        <ele>247.80000305176</ele>
        <time>2015-05-31T06:55:16Z</time>
      </trkpt>
      <trkpt lat="43.44516" lon="6.23033">
        <ele>248.19999694824</ele>
        <time>2015-05-31T06:55:23Z</time>
      </trkpt>
      <trkpt lat="43.44513" lon="6.23026">
        <ele>248.80000305176</ele>
        <time>2015-05-31T06:55:25Z</time>
      </trkpt>
      <trkpt lat="43.44509" lon="6.23018">
        <ele>248.60000610352</ele>
        <time>2015-05-31T06:55:27Z</time>
      </trkpt>
      <trkpt lat="43.44503" lon="6.23">
        <ele>248.19999694824</ele>
        <time>2015-05-31T06:55:31Z</time>
      </trkpt>
      <trkpt lat="43.44495" lon="6.22973">
        <ele>247.19999694824</ele>
        <time>2015-05-31T06:55:36Z</time>
      </trkpt>
      <trkpt lat="43.44489" lon="6.22955">
        <ele>246.60000610352</ele>
        <time>2015-05-31T06:55:39Z</time>
      </trkpt>
      <trkpt lat="43.44484" lon="6.22938">
        <ele>246.19999694824</ele>
        <time>2015-05-31T06:55:42Z</time>
      </trkpt>
      <trkpt lat="43.44481" lon="6.22921">
        <ele>246</ele>
        <time>2015-05-31T06:55:45Z</time>
      </trkpt>
      <trkpt lat="43.44476" lon="6.22907">
        <ele>245.80000305176</ele>
        <time>2015-05-31T06:55:48Z</time>
      </trkpt>
      <trkpt lat="43.44466" lon="6.22872">
        <ele>247</ele>
        <time>2015-05-31T06:55:55Z</time>
      </trkpt>
      <trkpt lat="43.44457" lon="6.22847">
        <ele>245.80000305176</ele>
        <time>2015-05-31T06:56:00Z</time>
      </trkpt>
      <trkpt lat="43.44453" lon="6.22832">
        <ele>245.19999694824</ele>
        <time>2015-05-31T06:56:03Z</time>
      </trkpt>
      <trkpt lat="43.4445" lon="6.22815">
        <ele>245.80000305176</ele>
        <time>2015-05-31T06:56:06Z</time>
      </trkpt>
      <trkpt lat="43.44448" lon="6.22784">
        <ele>244.19999694824</ele>
        <time>2015-05-31T06:56:12Z</time>
      </trkpt>
      <trkpt lat="43.44449" lon="6.22781">
        <ele>244</ele>
        <time>2015-05-31T06:56:13Z</time>
      </trkpt>
      <trkpt lat="43.4445" lon="6.22774">
        <ele>242.39999389648</ele>
        <time>2015-05-31T06:56:15Z</time>
      </trkpt>
      <trkpt lat="43.44452" lon="6.22766">
        <ele>241</ele>
        <time>2015-05-31T06:56:17Z</time>
      </trkpt>
      <trkpt lat="43.44456" lon="6.22751">
        <ele>239</ele>
        <time>2015-05-31T06:56:20Z</time>
      </trkpt>
      <trkpt lat="43.44459" lon="6.2274">
        <ele>238</ele>
        <time>2015-05-31T06:56:22Z</time>
      </trkpt>
      <trkpt lat="43.4446" lon="6.22735">
        <ele>237.60000610352</ele>
        <time>2015-05-31T06:56:23Z</time>
      </trkpt>
      <trkpt lat="43.44465" lon="6.22711">
        <ele>235</ele>
        <time>2015-05-31T06:56:28Z</time>
      </trkpt>
      <trkpt lat="43.44469" lon="6.22701">
        <ele>234</ele>
        <time>2015-05-31T06:56:30Z</time>
      </trkpt>
      <trkpt lat="43.44474" lon="6.22687">
        <ele>232.80000305176</ele>
        <time>2015-05-31T06:56:32Z</time>
      </trkpt>
      <trkpt lat="43.44477" lon="6.22677">
        <ele>231.39999389648</ele>
        <time>2015-05-31T06:56:34Z</time>
      </trkpt>
      <trkpt lat="43.44479" lon="6.22668">
        <ele>230.19999694824</ele>
        <time>2015-05-31T06:56:36Z</time>
      </trkpt>
      <trkpt lat="43.44483" lon="6.22655">
        <ele>229</ele>
        <time>2015-05-31T06:56:39Z</time>
      </trkpt>
      <trkpt lat="43.44482" lon="6.22645">
        <ele>227.80000305176</ele>
        <time>2015-05-31T06:56:42Z</time>
      </trkpt>
      <trkpt lat="43.44479" lon="6.22635">
        <ele>226.60000610352</ele>
        <time>2015-05-31T06:56:45Z</time>
      </trkpt>
      <trkpt lat="43.44477" lon="6.22625">
        <ele>225</ele>
        <time>2015-05-31T06:56:49Z</time>
      </trkpt>
      <trkpt lat="43.44475" lon="6.22617">
        <ele>223.60000610352</ele>
        <time>2015-05-31T06:56:52Z</time>
      </trkpt>
      <trkpt lat="43.44471" lon="6.22608">
        <ele>222.19999694824</ele>
        <time>2015-05-31T06:56:55Z</time>
      </trkpt>
      <trkpt lat="43.44468" lon="6.22602">
        <ele>221.19999694824</ele>
        <time>2015-05-31T06:56:57Z</time>
      </trkpt>
      <trkpt lat="43.44464" lon="6.22596">
        <ele>220</ele>
        <time>2015-05-31T06:56:59Z</time>
      </trkpt>
      <trkpt lat="43.44462" lon="6.2259">
        <ele>218.80000305176</ele>
        <time>2015-05-31T06:57:01Z</time>
      </trkpt>
      <trkpt lat="43.44459" lon="6.22584">
        <ele>217.80000305176</ele>
        <time>2015-05-31T06:57:04Z</time>
      </trkpt>
      <trkpt lat="43.44456" lon="6.22581">
        <ele>217</ele>
        <time>2015-05-31T06:57:06Z</time>
      </trkpt>
      <trkpt lat="43.44455" lon="6.2258">
        <ele>216.80000305176</ele>
        <time>2015-05-31T06:57:07Z</time>
      </trkpt>
      <trkpt lat="43.44453" lon="6.22576">
        <ele>216.60000610352</ele>
        <time>2015-05-31T06:57:09Z</time>
      </trkpt>
      <trkpt lat="43.44449" lon="6.22568">
        <ele>214.39999389648</ele>
        <time>2015-05-31T06:57:14Z</time>
      </trkpt>
      <trkpt lat="43.44447" lon="6.22565">
        <ele>213.19999694824</ele>
        <time>2015-05-31T06:57:16Z</time>
      </trkpt>
      <trkpt lat="43.44443" lon="6.22559">
        <ele>211.80000305176</ele>
        <time>2015-05-31T06:57:19Z</time>
      </trkpt>
      <trkpt lat="43.44443" lon="6.22558">
        <ele>211.60000610352</ele>
        <time>2015-05-31T06:57:20Z</time>
      </trkpt>
      <trkpt lat="43.44441" lon="6.22554">
        <ele>210.80000305176</ele>
        <time>2015-05-31T06:57:22Z</time>
      </trkpt>
      <trkpt lat="43.44438" lon="6.2255">
        <ele>210</ele>
        <time>2015-05-31T06:57:23Z</time>
      </trkpt>
      <trkpt lat="43.44436" lon="6.22546">
        <ele>209.39999389648</ele>
        <time>2015-05-31T06:57:24Z</time>
      </trkpt>
      <trkpt lat="43.44434" lon="6.22544">
        <ele>208.39999389648</ele>
        <time>2015-05-31T06:57:25Z</time>
      </trkpt>
      <trkpt lat="43.44427" lon="6.22533">
        <ele>206</ele>
        <time>2015-05-31T06:57:29Z</time>
      </trkpt>
      <trkpt lat="43.44424" lon="6.22528">
        <ele>205</ele>
        <time>2015-05-31T06:57:31Z</time>
      </trkpt>
      <trkpt lat="43.44421" lon="6.22522">
        <ele>203.60000610352</ele>
        <time>2015-05-31T06:57:34Z</time>
      </trkpt>
      <trkpt lat="43.44421" lon="6.2252">
        <ele>203.39999389648</ele>
        <time>2015-05-31T06:57:35Z</time>
      </trkpt>
      <trkpt lat="43.44419" lon="6.22517">
        <ele>202.39999389648</ele>
        <time>2015-05-31T06:57:37Z</time>
      </trkpt>
      <trkpt lat="43.44417" lon="6.22513">
        <ele>201.60000610352</ele>
        <time>2015-05-31T06:57:41Z</time>
      </trkpt>
      <trkpt lat="43.44413" lon="6.22499">
        <ele>199.80000305176</ele>
        <time>2015-05-31T06:57:47Z</time>
      </trkpt>
      <trkpt lat="43.4441" lon="6.22493">
        <ele>198.60000610352</ele>
        <time>2015-05-31T06:57:49Z</time>
      </trkpt>
      <trkpt lat="43.44409" lon="6.22488">
        <ele>197.60000610352</ele>
        <time>2015-05-31T06:57:51Z</time>
      </trkpt>
      <trkpt lat="43.44408" lon="6.22485">
        <ele>196.80000305176</ele>
        <time>2015-05-31T06:57:52Z</time>
      </trkpt>
      <trkpt lat="43.44407" lon="6.22481">
        <ele>195.60000610352</ele>
        <time>2015-05-31T06:57:53Z</time>
      </trkpt>
      <trkpt lat="43.44404" lon="6.22468">
        <ele>195</ele>
        <time>2015-05-31T06:57:56Z</time>
      </trkpt>
      <trkpt lat="43.44395" lon="6.2245">
        <ele>194.39999389648</ele>
        <time>2015-05-31T06:58:01Z</time>
      </trkpt>
      <trkpt lat="43.44386" lon="6.22428">
        <ele>194.19999694824</ele>
        <time>2015-05-31T06:58:07Z</time>
      </trkpt>
      <trkpt lat="43.44383" lon="6.22409">
        <ele>195.19999694824</ele>
        <time>2015-05-31T06:58:12Z</time>
      </trkpt>
      <trkpt lat="43.44385" lon="6.22389">
        <ele>195.60000610352</ele>
        <time>2015-05-31T06:58:16Z</time>
      </trkpt>
      <trkpt lat="43.44385" lon="6.22385">
        <ele>196</ele>
        <time>2015-05-31T06:58:17Z</time>
      </trkpt>
      <trkpt lat="43.44384" lon="6.22379">
        <ele>196.60000610352</ele>
        <time>2015-05-31T06:58:19Z</time>
      </trkpt>
      <trkpt lat="43.44378" lon="6.22353">
        <ele>197</ele>
        <time>2015-05-31T06:58:27Z</time>
      </trkpt>
      <trkpt lat="43.44374" lon="6.2234">
        <ele>197</ele>
        <time>2015-05-31T06:58:32Z</time>
      </trkpt>
      <trkpt lat="43.44374" lon="6.22338">
        <ele>196.60000610352</ele>
        <time>2015-05-31T06:58:33Z</time>
      </trkpt>
      <trkpt lat="43.44376" lon="6.22332">
        <ele>195.19999694824</ele>
        <time>2015-05-31T06:58:36Z</time>
      </trkpt>
      <trkpt lat="43.44376" lon="6.22329">
        <ele>195</ele>
        <time>2015-05-31T06:58:37Z</time>
      </trkpt>
      <trkpt lat="43.44376" lon="6.22324">
        <ele>194.39999389648</ele>
        <time>2015-05-31T06:58:40Z</time>
      </trkpt>
      <trkpt lat="43.44376" lon="6.2232">
        <ele>193.39999389648</ele>
        <time>2015-05-31T06:58:42Z</time>
      </trkpt>
      <trkpt lat="43.44374" lon="6.22317">
        <ele>193</ele>
        <time>2015-05-31T06:58:43Z</time>
      </trkpt>
      <trkpt lat="43.44373" lon="6.22309">
        <ele>191.80000305176</ele>
        <time>2015-05-31T06:58:45Z</time>
      </trkpt>
      <trkpt lat="43.44372" lon="6.22306">
        <ele>191.19999694824</ele>
        <time>2015-05-31T06:58:46Z</time>
      </trkpt>
      <trkpt lat="43.44368" lon="6.223">
        <ele>190.60000610352</ele>
        <time>2015-05-31T06:58:48Z</time>
      </trkpt>
      <trkpt lat="43.44366" lon="6.2229">
        <ele>190.19999694824</ele>
        <time>2015-05-31T06:58:50Z</time>
      </trkpt>
      <trkpt lat="43.44367" lon="6.22286">
        <ele>190.39999389648</ele>
        <time>2015-05-31T06:58:51Z</time>
      </trkpt>
      <trkpt lat="43.4437" lon="6.22278">
        <ele>190.39999389648</ele>
        <time>2015-05-31T06:58:53Z</time>
      </trkpt>
      <trkpt lat="43.44379" lon="6.22267">
        <ele>190</ele>
        <time>2015-05-31T06:58:57Z</time>
      </trkpt>
      <trkpt lat="43.44386" lon="6.22273">
        <ele>191.19999694824</ele>
        <time>2015-05-31T06:59:01Z</time>
      </trkpt>
      <trkpt lat="43.44389" lon="6.22276">
        <ele>191.39999389648</ele>
        <time>2015-05-31T06:59:03Z</time>
      </trkpt>
      <trkpt lat="43.44392" lon="6.22284">
        <ele>192</ele>
        <time>2015-05-31T06:59:06Z</time>
      </trkpt>
      <trkpt lat="43.44394" lon="6.22289">
        <ele>192.39999389648</ele>
        <time>2015-05-31T06:59:08Z</time>
      </trkpt>
      <trkpt lat="43.44396" lon="6.22294">
        <ele>193.19999694824</ele>
        <time>2015-05-31T06:59:10Z</time>
      </trkpt>
      <trkpt lat="43.444" lon="6.22302">
        <ele>194.39999389648</ele>
        <time>2015-05-31T06:59:14Z</time>
      </trkpt>
      <trkpt lat="43.44401" lon="6.22302">
        <ele>194.60000610352</ele>
        <time>2015-05-31T06:59:15Z</time>
      </trkpt>
      <trkpt lat="43.44401" lon="6.22291">
        <ele>194.80000305176</ele>
        <time>2015-05-31T06:59:19Z</time>
      </trkpt>
      <trkpt lat="43.444" lon="6.22287">
        <ele>194.80000305176</ele>
        <time>2015-05-31T06:59:20Z</time>
      </trkpt>
      <trkpt lat="43.44397" lon="6.22273">
        <ele>194.39999389648</ele>
        <time>2015-05-31T06:59:23Z</time>
      </trkpt>
      <trkpt lat="43.44393" lon="6.22263">
        <ele>194</ele>
        <time>2015-05-31T06:59:25Z</time>
      </trkpt>
      <trkpt lat="43.44387" lon="6.22247">
        <ele>193.60000610352</ele>
        <time>2015-05-31T06:59:28Z</time>
      </trkpt>
      <trkpt lat="43.44381" lon="6.22239">
        <ele>193.19999694824</ele>
        <time>2015-05-31T06:59:30Z</time>
      </trkpt>
      <trkpt lat="43.44377" lon="6.22237">
        <ele>193.39999389648</ele>
        <time>2015-05-31T06:59:31Z</time>
      </trkpt>
      <trkpt lat="43.44362" lon="6.22236">
        <ele>193.39999389648</ele>
        <time>2015-05-31T06:59:35Z</time>
      </trkpt>
      <trkpt lat="43.44358" lon="6.22236">
        <ele>193.39999389648</ele>
        <time>2015-05-31T06:59:36Z</time>
      </trkpt>
      <trkpt lat="43.44331" lon="6.22238">
        <ele>193.39999389648</ele>
        <time>2015-05-31T06:59:43Z</time>
      </trkpt>
      <trkpt lat="43.44307" lon="6.22238">
        <ele>194.19999694824</ele>
        <time>2015-05-31T06:59:50Z</time>
      </trkpt>
      <trkpt lat="43.44306" lon="6.22236">
        <ele>194.39999389648</ele>
        <time>2015-05-31T06:59:51Z</time>
      </trkpt>
      <trkpt lat="43.44304" lon="6.22231">
        <ele>195.80000305176</ele>
        <time>2015-05-31T06:59:54Z</time>
      </trkpt>
      <trkpt lat="43.44301" lon="6.22226">
        <ele>196.19999694824</ele>
        <time>2015-05-31T06:59:57Z</time>
      </trkpt>
      <trkpt lat="43.44298" lon="6.22221">
        <ele>196.80000305176</ele>
        <time>2015-05-31T07:00:00Z</time>
      </trkpt>
      <trkpt lat="43.44298" lon="6.22219">
        <ele>197.19999694824</ele>
        <time>2015-05-31T07:00:01Z</time>
      </trkpt>
      <trkpt lat="43.44299" lon="6.22209">
        <ele>197.39999389648</ele>
        <time>2015-05-31T07:00:05Z</time>
      </trkpt>
      <trkpt lat="43.44303" lon="6.22195">
        <ele>198</ele>
        <time>2015-05-31T07:00:11Z</time>
      </trkpt>
      <trkpt lat="43.44302" lon="6.22191">
        <ele>198.19999694824</ele>
        <time>2015-05-31T07:00:14Z</time>
      </trkpt>
      <trkpt lat="43.44302" lon="6.22193">
        <ele>197.80000305176</ele>
        <time>2015-05-31T07:00:16Z</time>
      </trkpt>
      <trkpt lat="43.443" lon="6.22197">
        <ele>198</ele>
        <time>2015-05-31T07:00:21Z</time>
      </trkpt>
      <trkpt lat="43.443" lon="6.22199">
        <ele>197.80000305176</ele>
        <time>2015-05-31T07:00:22Z</time>
      </trkpt>
      <trkpt lat="43.44298" lon="6.22216">
        <ele>197.39999389648</ele>
        <time>2015-05-31T07:00:28Z</time>
      </trkpt>
      <trkpt lat="43.443" lon="6.22226">
        <ele>196.60000610352</ele>
        <time>2015-05-31T07:00:33Z</time>
      </trkpt>
      <trkpt lat="43.44303" lon="6.22228">
        <ele>196.80000305176</ele>
        <time>2015-05-31T07:00:35Z</time>
      </trkpt>
      <trkpt lat="43.44307" lon="6.22236">
        <ele>195.80000305176</ele>
        <time>2015-05-31T07:00:40Z</time>
      </trkpt>
      <trkpt lat="43.44307" lon="6.22238">
        <ele>195.60000610352</ele>
        <time>2015-05-31T07:00:41Z</time>
      </trkpt>
      <trkpt lat="43.44309" lon="6.22244">
        <ele>194.39999389648</ele>
        <time>2015-05-31T07:00:44Z</time>
      </trkpt>
      <trkpt lat="43.44313" lon="6.22245">
        <ele>194</ele>
        <time>2015-05-31T07:00:46Z</time>
      </trkpt>
      <trkpt lat="43.4432" lon="6.22242">
        <ele>193.80000305176</ele>
        <time>2015-05-31T07:00:49Z</time>
      </trkpt>
      <trkpt lat="43.44324" lon="6.22238">
        <ele>193.60000610352</ele>
        <time>2015-05-31T07:00:51Z</time>
      </trkpt>
      <trkpt lat="43.44326" lon="6.22229">
        <ele>193.39999389648</ele>
        <time>2015-05-31T07:00:53Z</time>
      </trkpt>
      <trkpt lat="43.44326" lon="6.22224">
        <ele>193.19999694824</ele>
        <time>2015-05-31T07:00:54Z</time>
      </trkpt>
      <trkpt lat="43.44328" lon="6.2221">
        <ele>191.80000305176</ele>
        <time>2015-05-31T07:00:56Z</time>
      </trkpt>
      <trkpt lat="43.4433" lon="6.22194">
        <ele>191.39999389648</ele>
        <time>2015-05-31T07:00:58Z</time>
      </trkpt>
      <trkpt lat="43.44331" lon="6.22178">
        <ele>191</ele>
        <time>2015-05-31T07:01:00Z</time>
      </trkpt>
      <trkpt lat="43.44331" lon="6.2217">
        <ele>190.60000610352</ele>
        <time>2015-05-31T07:01:01Z</time>
      </trkpt>
      <trkpt lat="43.4433" lon="6.22162">
        <ele>190.19999694824</ele>
        <time>2015-05-31T07:01:02Z</time>
      </trkpt>
      <trkpt lat="43.44329" lon="6.22147">
        <ele>190.19999694824</ele>
        <time>2015-05-31T07:01:04Z</time>
      </trkpt>
      <trkpt lat="43.44329" lon="6.2212">
        <ele>190</ele>
        <time>2015-05-31T07:01:08Z</time>
      </trkpt>
      <trkpt lat="43.44332" lon="6.22109">
        <ele>190</ele>
        <time>2015-05-31T07:01:10Z</time>
      </trkpt>
      <trkpt lat="43.44334" lon="6.22104">
        <ele>190.39999389648</ele>
        <time>2015-05-31T07:01:11Z</time>
      </trkpt>
      <trkpt lat="43.44339" lon="6.22067">
        <ele>189.39999389648</ele>
        <time>2015-05-31T07:01:17Z</time>
      </trkpt>
      <trkpt lat="43.44341" lon="6.22055">
        <ele>190.19999694824</ele>
        <time>2015-05-31T07:01:19Z</time>
      </trkpt>
      <trkpt lat="43.44344" lon="6.22029">
        <ele>189.80000305176</ele>
        <time>2015-05-31T07:01:23Z</time>
      </trkpt>
      <trkpt lat="43.44344" lon="6.21984">
        <ele>189.19999694824</ele>
        <time>2015-05-31T07:01:29Z</time>
      </trkpt>
      <trkpt lat="43.44343" lon="6.21962">
        <ele>189</ele>
        <time>2015-05-31T07:01:32Z</time>
      </trkpt>
      <trkpt lat="43.44336" lon="6.21943">
        <ele>188.60000610352</ele>
        <time>2015-05-31T07:01:35Z</time>
      </trkpt>
      <trkpt lat="43.44335" lon="6.21939">
        <ele>188.80000305176</ele>
        <time>2015-05-31T07:01:36Z</time>
      </trkpt>
      <trkpt lat="43.44329" lon="6.21929">
        <ele>189.80000305176</ele>
        <time>2015-05-31T07:01:39Z</time>
      </trkpt>
      <trkpt lat="43.44313" lon="6.21913">
        <ele>190.19999694824</ele>
        <time>2015-05-31T07:01:44Z</time>
      </trkpt>
      <trkpt lat="43.44311" lon="6.21909">
        <ele>190.39999389648</ele>
        <time>2015-05-31T07:01:45Z</time>
      </trkpt>
      <trkpt lat="43.44299" lon="6.21889">
        <ele>191</ele>
        <time>2015-05-31T07:01:50Z</time>
      </trkpt>
      <trkpt lat="43.44291" lon="6.21881">
        <ele>191.19999694824</ele>
        <time>2015-05-31T07:01:53Z</time>
      </trkpt>
      <trkpt lat="43.44285" lon="6.21876">
        <ele>191.80000305176</ele>
        <time>2015-05-31T07:01:55Z</time>
      </trkpt>
      <trkpt lat="43.44278" lon="6.21859">
        <ele>192.39999389648</ele>
        <time>2015-05-31T07:01:59Z</time>
      </trkpt>
      <trkpt lat="43.44283" lon="6.21838">
        <ele>192.39999389648</ele>
        <time>2015-05-31T07:02:03Z</time>
      </trkpt>
      <trkpt lat="43.44284" lon="6.21834">
        <ele>192.60000610352</ele>
        <time>2015-05-31T07:02:04Z</time>
      </trkpt>
      <trkpt lat="43.44288" lon="6.21811">
        <ele>191.39999389648</ele>
        <time>2015-05-31T07:02:08Z</time>
      </trkpt>
      <trkpt lat="43.44289" lon="6.21798">
        <ele>191.19999694824</ele>
        <time>2015-05-31T07:02:10Z</time>
      </trkpt>
      <trkpt lat="43.44291" lon="6.21791">
        <ele>191</ele>
        <time>2015-05-31T07:02:11Z</time>
      </trkpt>
      <trkpt lat="43.44292" lon="6.21786">
        <ele>190.80000305176</ele>
        <time>2015-05-31T07:02:12Z</time>
      </trkpt>
      <trkpt lat="43.44295" lon="6.21771">
        <ele>190.60000610352</ele>
        <time>2015-05-31T07:02:15Z</time>
      </trkpt>
      <trkpt lat="43.44298" lon="6.21748">
        <ele>190</ele>
        <time>2015-05-31T07:02:20Z</time>
      </trkpt>
      <trkpt lat="43.44306" lon="6.21724">
        <ele>189.60000610352</ele>
        <time>2015-05-31T07:02:25Z</time>
      </trkpt>
      <trkpt lat="43.44313" lon="6.21699">
        <ele>189.80000305176</ele>
        <time>2015-05-31T07:02:30Z</time>
      </trkpt>
      <trkpt lat="43.4432" lon="6.21677">
        <ele>189.80000305176</ele>
        <time>2015-05-31T07:02:35Z</time>
      </trkpt>
      <trkpt lat="43.44328" lon="6.21653">
        <ele>190</ele>
        <time>2015-05-31T07:02:40Z</time>
      </trkpt>
      <trkpt lat="43.44336" lon="6.21632">
        <ele>191</ele>
        <time>2015-05-31T07:02:44Z</time>
      </trkpt>
      <trkpt lat="43.44342" lon="6.21623">
        <ele>191.39999389648</ele>
        <time>2015-05-31T07:02:46Z</time>
      </trkpt>
      <trkpt lat="43.44347" lon="6.21614">
        <ele>192</ele>
        <time>2015-05-31T07:02:48Z</time>
      </trkpt>
      <trkpt lat="43.44349" lon="6.21606">
        <ele>192</ele>
        <time>2015-05-31T07:02:51Z</time>
      </trkpt>
      <trkpt lat="43.44341" lon="6.21596">
        <ele>192.39999389648</ele>
        <time>2015-05-31T07:02:55Z</time>
      </trkpt>
      <trkpt lat="43.44336" lon="6.21576">
        <ele>191.39999389648</ele>
        <time>2015-05-31T07:02:59Z</time>
      </trkpt>
      <trkpt lat="43.44335" lon="6.2157">
        <ele>191</ele>
        <time>2015-05-31T07:03:00Z</time>
      </trkpt>
      <trkpt lat="43.44334" lon="6.21564">
        <ele>190.80000305176</ele>
        <time>2015-05-31T07:03:01Z</time>
      </trkpt>
      <trkpt lat="43.44333" lon="6.21552">
        <ele>190.60000610352</ele>
        <time>2015-05-31T07:03:03Z</time>
      </trkpt>
      <trkpt lat="43.44332" lon="6.21547">
        <ele>190.39999389648</ele>
        <time>2015-05-31T07:03:04Z</time>
      </trkpt>
      <trkpt lat="43.44326" lon="6.21517">
        <ele>190.60000610352</ele>
        <time>2015-05-31T07:03:09Z</time>
      </trkpt>
      <trkpt lat="43.44323" lon="6.21505">
        <ele>189.39999389648</ele>
        <time>2015-05-31T07:03:11Z</time>
      </trkpt>
      <trkpt lat="43.4432" lon="6.21492">
        <ele>189.19999694824</ele>
        <time>2015-05-31T07:03:13Z</time>
      </trkpt>
      <trkpt lat="43.44316" lon="6.21471">
        <ele>188.39999389648</ele>
        <time>2015-05-31T07:03:16Z</time>
      </trkpt>
      <trkpt lat="43.44317" lon="6.21458">
        <ele>188.19999694824</ele>
        <time>2015-05-31T07:03:18Z</time>
      </trkpt>
      <trkpt lat="43.44319" lon="6.21446">
        <ele>188.60000610352</ele>
        <time>2015-05-31T07:03:20Z</time>
      </trkpt>
      <trkpt lat="43.44321" lon="6.21441">
        <ele>188.60000610352</ele>
        <time>2015-05-31T07:03:21Z</time>
      </trkpt>
      <trkpt lat="43.44323" lon="6.21429">
        <ele>188</ele>
        <time>2015-05-31T07:03:23Z</time>
      </trkpt>
      <trkpt lat="43.44331" lon="6.214">
        <ele>187.39999389648</ele>
        <time>2015-05-31T07:03:28Z</time>
      </trkpt>
      <trkpt lat="43.44331" lon="6.21394">
        <ele>187</ele>
        <time>2015-05-31T07:03:29Z</time>
      </trkpt>
      <trkpt lat="43.44333" lon="6.21365">
        <ele>187.60000610352</ele>
        <time>2015-05-31T07:03:35Z</time>
      </trkpt>
      <trkpt lat="43.44336" lon="6.21342">
        <ele>187.80000305176</ele>
        <time>2015-05-31T07:03:40Z</time>
      </trkpt>
      <trkpt lat="43.44338" lon="6.21315">
        <ele>187.19999694824</ele>
        <time>2015-05-31T07:03:45Z</time>
      </trkpt>
      <trkpt lat="43.44328" lon="6.21295">
        <ele>187</ele>
        <time>2015-05-31T07:03:49Z</time>
      </trkpt>
      <trkpt lat="43.4432" lon="6.21291">
        <ele>187</ele>
        <time>2015-05-31T07:03:51Z</time>
      </trkpt>
      <trkpt lat="43.44312" lon="6.21286">
        <ele>187.80000305176</ele>
        <time>2015-05-31T07:03:53Z</time>
      </trkpt>
      <trkpt lat="43.44309" lon="6.21283">
        <ele>188.19999694824</ele>
        <time>2015-05-31T07:03:54Z</time>
      </trkpt>
      <trkpt lat="43.44303" lon="6.21269">
        <ele>187.60000610352</ele>
        <time>2015-05-31T07:03:58Z</time>
      </trkpt>
      <trkpt lat="43.44308" lon="6.21257">
        <ele>189</ele>
        <time>2015-05-31T07:04:02Z</time>
      </trkpt>
      <trkpt lat="43.44312" lon="6.21252">
        <ele>189.19999694824</ele>
        <time>2015-05-31T07:04:04Z</time>
      </trkpt>
      <trkpt lat="43.44316" lon="6.21247">
        <ele>189.19999694824</ele>
        <time>2015-05-31T07:04:06Z</time>
      </trkpt>
      <trkpt lat="43.44323" lon="6.21238">
        <ele>188</ele>
        <time>2015-05-31T07:04:09Z</time>
      </trkpt>
      <trkpt lat="43.44326" lon="6.21232">
        <ele>188.19999694824</ele>
        <time>2015-05-31T07:04:10Z</time>
      </trkpt>
      <trkpt lat="43.44331" lon="6.21211">
        <ele>187.60000610352</ele>
        <time>2015-05-31T07:04:14Z</time>
      </trkpt>
      <trkpt lat="43.44334" lon="6.21186">
        <ele>188.39999389648</ele>
        <time>2015-05-31T07:04:19Z</time>
      </trkpt>
      <trkpt lat="43.44336" lon="6.21157">
        <ele>188.39999389648</ele>
        <time>2015-05-31T07:04:25Z</time>
      </trkpt>
      <trkpt lat="43.4434" lon="6.21127">
        <ele>188.60000610352</ele>
        <time>2015-05-31T07:04:31Z</time>
      </trkpt>
      <trkpt lat="43.44338" lon="6.21102">
        <ele>188.39999389648</ele>
        <time>2015-05-31T07:04:36Z</time>
      </trkpt>
      <trkpt lat="43.44334" lon="6.21074">
        <ele>189.19999694824</ele>
        <time>2015-05-31T07:04:41Z</time>
      </trkpt>
      <trkpt lat="43.44331" lon="6.21055">
        <ele>189.80000305176</ele>
        <time>2015-05-31T07:04:45Z</time>
      </trkpt>
      <trkpt lat="43.44329" lon="6.21037">
        <ele>190.19999694824</ele>
        <time>2015-05-31T07:04:49Z</time>
      </trkpt>
      <trkpt lat="43.44326" lon="6.21029">
        <ele>190</ele>
        <time>2015-05-31T07:04:51Z</time>
      </trkpt>
      <trkpt lat="43.44318" lon="6.2099">
        <ele>191.19999694824</ele>
        <time>2015-05-31T07:05:01Z</time>
      </trkpt>
      <trkpt lat="43.44313" lon="6.20968">
        <ele>191.80000305176</ele>
        <time>2015-05-31T07:05:07Z</time>
      </trkpt>
      <trkpt lat="43.44312" lon="6.20945">
        <ele>192</ele>
        <time>2015-05-31T07:05:13Z</time>
      </trkpt>
      <trkpt lat="43.44312" lon="6.20942">
        <ele>192.80000305176</ele>
        <time>2015-05-31T07:05:14Z</time>
      </trkpt>
      <trkpt lat="43.44309" lon="6.20923">
        <ele>193</ele>
        <time>2015-05-31T07:05:18Z</time>
      </trkpt>
      <trkpt lat="43.4431" lon="6.20897">
        <ele>191.80000305176</ele>
        <time>2015-05-31T07:05:23Z</time>
      </trkpt>
      <trkpt lat="43.44312" lon="6.20883">
        <ele>191.80000305176</ele>
        <time>2015-05-31T07:05:25Z</time>
      </trkpt>
      <trkpt lat="43.44313" lon="6.2087">
        <ele>190.60000610352</ele>
        <time>2015-05-31T07:05:27Z</time>
      </trkpt>
      <trkpt lat="43.44314" lon="6.20851">
        <ele>188.19999694824</ele>
        <time>2015-05-31T07:05:30Z</time>
      </trkpt>
      <trkpt lat="43.44315" lon="6.20846">
        <ele>186.80000305176</ele>
        <time>2015-05-31T07:05:31Z</time>
      </trkpt>
      <trkpt lat="43.44316" lon="6.20841">
        <ele>186.39999389648</ele>
        <time>2015-05-31T07:05:32Z</time>
      </trkpt>
      <trkpt lat="43.44315" lon="6.2083">
        <ele>185.80000305176</ele>
        <time>2015-05-31T07:05:34Z</time>
      </trkpt>
      <trkpt lat="43.44312" lon="6.20824">
        <ele>185.19999694824</ele>
        <time>2015-05-31T07:05:35Z</time>
      </trkpt>
      <trkpt lat="43.44309" lon="6.20818">
        <ele>184.60000610352</ele>
        <time>2015-05-31T07:05:36Z</time>
      </trkpt>
      <trkpt lat="43.44304" lon="6.20801">
        <ele>183</ele>
        <time>2015-05-31T07:05:39Z</time>
      </trkpt>
      <trkpt lat="43.44302" lon="6.20796">
        <ele>182.60000610352</ele>
        <time>2015-05-31T07:05:40Z</time>
      </trkpt>
      <trkpt lat="43.443" lon="6.2078">
        <ele>182</ele>
        <time>2015-05-31T07:05:44Z</time>
      </trkpt>
      <trkpt lat="43.443" lon="6.20776">
        <ele>181</ele>
        <time>2015-05-31T07:05:45Z</time>
      </trkpt>
      <trkpt lat="43.44301" lon="6.20769">
        <ele>179.60000610352</ele>
        <time>2015-05-31T07:05:47Z</time>
      </trkpt>
      <trkpt lat="43.44302" lon="6.20764">
        <ele>178.60000610352</ele>
        <time>2015-05-31T07:05:49Z</time>
      </trkpt>
      <trkpt lat="43.44302" lon="6.2076">
        <ele>178.19999694824</ele>
        <time>2015-05-31T07:05:50Z</time>
      </trkpt>
      <trkpt lat="43.44303" lon="6.20746">
        <ele>177.60000610352</ele>
        <time>2015-05-31T07:05:53Z</time>
      </trkpt>
      <trkpt lat="43.44304" lon="6.20742">
        <ele>177.39999389648</ele>
        <time>2015-05-31T07:05:54Z</time>
      </trkpt>
      <trkpt lat="43.44305" lon="6.20733">
        <ele>177</ele>
        <time>2015-05-31T07:05:56Z</time>
      </trkpt>
      <trkpt lat="43.44305" lon="6.20728">
        <ele>176.39999389648</ele>
        <time>2015-05-31T07:05:59Z</time>
      </trkpt>
      <trkpt lat="43.44311" lon="6.20718">
        <ele>175.80000305176</ele>
        <time>2015-05-31T07:06:05Z</time>
      </trkpt>
      <trkpt lat="43.44318" lon="6.20699">
        <ele>175.80000305176</ele>
        <time>2015-05-31T07:06:09Z</time>
      </trkpt>
      <trkpt lat="43.44319" lon="6.20695">
        <ele>175.19999694824</ele>
        <time>2015-05-31T07:06:10Z</time>
      </trkpt>
      <trkpt lat="43.44328" lon="6.2068">
        <ele>174.80000305176</ele>
        <time>2015-05-31T07:06:13Z</time>
      </trkpt>
      <trkpt lat="43.44336" lon="6.2066">
        <ele>175.39999389648</ele>
        <time>2015-05-31T07:06:18Z</time>
      </trkpt>
      <trkpt lat="43.44342" lon="6.20641">
        <ele>175.19999694824</ele>
        <time>2015-05-31T07:06:22Z</time>
      </trkpt>
      <trkpt lat="43.44345" lon="6.20637">
        <ele>175.60000610352</ele>
        <time>2015-05-31T07:06:23Z</time>
      </trkpt>
      <trkpt lat="43.4435" lon="6.2062">
        <ele>175.80000305176</ele>
        <time>2015-05-31T07:06:26Z</time>
      </trkpt>
      <trkpt lat="43.44362" lon="6.20593">
        <ele>175.39999389648</ele>
        <time>2015-05-31T07:06:31Z</time>
      </trkpt>
      <trkpt lat="43.44368" lon="6.20575">
        <ele>175.60000610352</ele>
        <time>2015-05-31T07:06:34Z</time>
      </trkpt>
      <trkpt lat="43.44375" lon="6.2055">
        <ele>174.60000610352</ele>
        <time>2015-05-31T07:06:38Z</time>
      </trkpt>
      <trkpt lat="43.44377" lon="6.20529">
        <ele>174.60000610352</ele>
        <time>2015-05-31T07:06:41Z</time>
      </trkpt>
      <trkpt lat="43.44377" lon="6.20523">
        <ele>174.80000305176</ele>
        <time>2015-05-31T07:06:42Z</time>
      </trkpt>
      <trkpt lat="43.44376" lon="6.20506">
        <ele>174.80000305176</ele>
        <time>2015-05-31T07:06:44Z</time>
      </trkpt>
      <trkpt lat="43.44375" lon="6.20493">
        <ele>174.60000610352</ele>
        <time>2015-05-31T07:06:46Z</time>
      </trkpt>
      <trkpt lat="43.44371" lon="6.20466">
        <ele>174.60000610352</ele>
        <time>2015-05-31T07:06:50Z</time>
      </trkpt>
      <trkpt lat="43.44369" lon="6.20445">
        <ele>174.39999389648</ele>
        <time>2015-05-31T07:06:53Z</time>
      </trkpt>
      <trkpt lat="43.44364" lon="6.20423">
        <ele>174.60000610352</ele>
        <time>2015-05-31T07:06:56Z</time>
      </trkpt>
      <trkpt lat="43.4436" lon="6.2041">
        <ele>174.19999694824</ele>
        <time>2015-05-31T07:06:58Z</time>
      </trkpt>
      <trkpt lat="43.44355" lon="6.2039">
        <ele>175</ele>
        <time>2015-05-31T07:07:01Z</time>
      </trkpt>
      <trkpt lat="43.4435" lon="6.20355">
        <ele>174.60000610352</ele>
        <time>2015-05-31T07:07:06Z</time>
      </trkpt>
      <trkpt lat="43.44349" lon="6.20347">
        <ele>174.39999389648</ele>
        <time>2015-05-31T07:07:07Z</time>
      </trkpt>
      <trkpt lat="43.44352" lon="6.20327">
        <ele>174.60000610352</ele>
        <time>2015-05-31T07:07:10Z</time>
      </trkpt>
      <trkpt lat="43.44354" lon="6.20312">
        <ele>174.80000305176</ele>
        <time>2015-05-31T07:07:12Z</time>
      </trkpt>
      <trkpt lat="43.44356" lon="6.2029">
        <ele>174.19999694824</ele>
        <time>2015-05-31T07:07:15Z</time>
      </trkpt>
      <trkpt lat="43.44358" lon="6.20268">
        <ele>174</ele>
        <time>2015-05-31T07:07:18Z</time>
      </trkpt>
      <trkpt lat="43.44358" lon="6.202">
        <ele>174.19999694824</ele>
        <time>2015-05-31T07:07:27Z</time>
      </trkpt>
      <trkpt lat="43.44358" lon="6.20193">
        <ele>174</ele>
        <time>2015-05-31T07:07:28Z</time>
      </trkpt>
      <trkpt lat="43.44363" lon="6.20155">
        <ele>174.19999694824</ele>
        <time>2015-05-31T07:07:33Z</time>
      </trkpt>
      <trkpt lat="43.44372" lon="6.20113">
        <ele>174.80000305176</ele>
        <time>2015-05-31T07:07:39Z</time>
      </trkpt>
      <trkpt lat="43.4438" lon="6.20081">
        <ele>174.19999694824</ele>
        <time>2015-05-31T07:07:44Z</time>
      </trkpt>
      <trkpt lat="43.44384" lon="6.2006">
        <ele>174.19999694824</ele>
        <time>2015-05-31T07:07:47Z</time>
      </trkpt>
      <trkpt lat="43.44393" lon="6.20014">
        <ele>174.19999694824</ele>
        <time>2015-05-31T07:07:54Z</time>
      </trkpt>
      <trkpt lat="43.44395" lon="6.20008">
        <ele>174.19999694824</ele>
        <time>2015-05-31T07:07:55Z</time>
      </trkpt>
      <trkpt lat="43.44399" lon="6.19995">
        <ele>174.60000610352</ele>
        <time>2015-05-31T07:07:57Z</time>
      </trkpt>
      <trkpt lat="43.4441" lon="6.19979">
        <ele>175</ele>
        <time>2015-05-31T07:08:01Z</time>
      </trkpt>
      <trkpt lat="43.44419" lon="6.19965">
        <ele>175.80000305176</ele>
        <time>2015-05-31T07:08:05Z</time>
      </trkpt>
      <trkpt lat="43.44431" lon="6.19947">
        <ele>175.19999694824</ele>
        <time>2015-05-31T07:08:10Z</time>
      </trkpt>
      <trkpt lat="43.44436" lon="6.19939">
        <ele>175.60000610352</ele>
        <time>2015-05-31T07:08:13Z</time>
      </trkpt>
      <trkpt lat="43.44436" lon="6.19937">
        <ele>175.60000610352</ele>
        <time>2015-05-31T07:08:14Z</time>
      </trkpt>
      <trkpt lat="43.44435" lon="6.19936">
        <ele>175.60000610352</ele>
        <time>2015-05-31T07:08:15Z</time>
      </trkpt>
      <trkpt lat="43.44432" lon="6.19938">
        <ele>175.60000610352</ele>
        <time>2015-05-31T07:08:17Z</time>
      </trkpt>
      <trkpt lat="43.44429" lon="6.19952">
        <ele>175.60000610352</ele>
        <time>2015-05-31T07:08:21Z</time>
      </trkpt>
      <trkpt lat="43.44422" lon="6.19961">
        <ele>175.39999389648</ele>
        <time>2015-05-31T07:08:26Z</time>
      </trkpt>
      <trkpt lat="43.44415" lon="6.19963">
        <ele>176</ele>
        <time>2015-05-31T07:08:29Z</time>
      </trkpt>
      <trkpt lat="43.44413" lon="6.19963">
        <ele>176.39999389648</ele>
        <time>2015-05-31T07:08:30Z</time>
      </trkpt>
      <trkpt lat="43.44416" lon="6.19959">
        <ele>176.80000305176</ele>
        <time>2015-05-31T07:08:33Z</time>
      </trkpt>
      <trkpt lat="43.44422" lon="6.19949">
        <ele>176.19999694824</ele>
        <time>2015-05-31T07:08:37Z</time>
      </trkpt>
      <trkpt lat="43.44423" lon="6.19946">
        <ele>176.19999694824</ele>
        <time>2015-05-31T07:08:38Z</time>
      </trkpt>
      <trkpt lat="43.44425" lon="6.19934">
        <ele>176</ele>
        <time>2015-05-31T07:08:41Z</time>
      </trkpt>
      <trkpt lat="43.44425" lon="6.19925">
        <ele>176</ele>
        <time>2015-05-31T07:08:43Z</time>
      </trkpt>
      <trkpt lat="43.44426" lon="6.19897">
        <ele>175.80000305176</ele>
        <time>2015-05-31T07:08:49Z</time>
      </trkpt>
      <trkpt lat="43.44423" lon="6.19874">
        <ele>175.19999694824</ele>
        <time>2015-05-31T07:08:53Z</time>
      </trkpt>
      <trkpt lat="43.44422" lon="6.19862">
        <ele>175.19999694824</ele>
        <time>2015-05-31T07:08:55Z</time>
      </trkpt>
      <trkpt lat="43.44422" lon="6.19855">
        <ele>175.19999694824</ele>
        <time>2015-05-31T07:08:56Z</time>
      </trkpt>
      <trkpt lat="43.44425" lon="6.19833">
        <ele>175</ele>
        <time>2015-05-31T07:08:59Z</time>
      </trkpt>
      <trkpt lat="43.44428" lon="6.19818">
        <ele>174.60000610352</ele>
        <time>2015-05-31T07:09:01Z</time>
      </trkpt>
      <trkpt lat="43.44432" lon="6.19788">
        <ele>174.60000610352</ele>
        <time>2015-05-31T07:09:05Z</time>
      </trkpt>
      <trkpt lat="43.44443" lon="6.19736">
        <ele>174</ele>
        <time>2015-05-31T07:09:12Z</time>
      </trkpt>
      <trkpt lat="43.44455" lon="6.19699">
        <ele>174.39999389648</ele>
        <time>2015-05-31T07:09:18Z</time>
      </trkpt>
      <trkpt lat="43.44462" lon="6.19681">
        <ele>175.60000610352</ele>
        <time>2015-05-31T07:09:22Z</time>
      </trkpt>
      <trkpt lat="43.44463" lon="6.19676">
        <ele>175.80000305176</ele>
        <time>2015-05-31T07:09:23Z</time>
      </trkpt>
      <trkpt lat="43.44468" lon="6.19663">
        <ele>176.80000305176</ele>
        <time>2015-05-31T07:09:26Z</time>
      </trkpt>
      <trkpt lat="43.44469" lon="6.19658">
        <ele>177</ele>
        <time>2015-05-31T07:09:27Z</time>
      </trkpt>
      <trkpt lat="43.44472" lon="6.19646">
        <ele>177.39999389648</ele>
        <time>2015-05-31T07:09:30Z</time>
      </trkpt>
      <trkpt lat="43.44474" lon="6.19638">
        <ele>178</ele>
        <time>2015-05-31T07:09:32Z</time>
      </trkpt>
      <trkpt lat="43.44478" lon="6.19625">
        <ele>178.39999389648</ele>
        <time>2015-05-31T07:09:35Z</time>
      </trkpt>
      <trkpt lat="43.44479" lon="6.19622">
        <ele>178.80000305176</ele>
        <time>2015-05-31T07:09:36Z</time>
      </trkpt>
      <trkpt lat="43.44484" lon="6.19613">
        <ele>179.19999694824</ele>
        <time>2015-05-31T07:09:38Z</time>
      </trkpt>
      <trkpt lat="43.44493" lon="6.19608">
        <ele>180</ele>
        <time>2015-05-31T07:09:41Z</time>
      </trkpt>
      <trkpt lat="43.44496" lon="6.19608">
        <ele>180.19999694824</ele>
        <time>2015-05-31T07:09:42Z</time>
      </trkpt>
      <trkpt lat="43.44509" lon="6.19613">
        <ele>180.60000610352</ele>
        <time>2015-05-31T07:09:46Z</time>
      </trkpt>
      <trkpt lat="43.44527" lon="6.19621">
        <ele>180.80000305176</ele>
        <time>2015-05-31T07:09:52Z</time>
      </trkpt>
      <trkpt lat="43.44546" lon="6.19621">
        <ele>180.60000610352</ele>
        <time>2015-05-31T07:09:58Z</time>
      </trkpt>
      <trkpt lat="43.44566" lon="6.19607">
        <ele>180.39999389648</ele>
        <time>2015-05-31T07:10:04Z</time>
      </trkpt>
      <trkpt lat="43.44591" lon="6.1958">
        <ele>180.60000610352</ele>
        <time>2015-05-31T07:10:11Z</time>
      </trkpt>
      <trkpt lat="43.44602" lon="6.19568">
        <ele>180.19999694824</ele>
        <time>2015-05-31T07:10:14Z</time>
      </trkpt>
      <trkpt lat="43.44613" lon="6.19555">
        <ele>179.60000610352</ele>
        <time>2015-05-31T07:10:17Z</time>
      </trkpt>
      <trkpt lat="43.44642" lon="6.19524">
        <ele>179.19999694824</ele>
        <time>2015-05-31T07:10:24Z</time>
      </trkpt>
      <trkpt lat="43.44664" lon="6.19508">
        <ele>178.80000305176</ele>
        <time>2015-05-31T07:10:29Z</time>
      </trkpt>
      <trkpt lat="43.4469" lon="6.19487">
        <ele>179.39999389648</ele>
        <time>2015-05-31T07:10:35Z</time>
      </trkpt>
      <trkpt lat="43.447" lon="6.19472">
        <ele>179</ele>
        <time>2015-05-31T07:10:38Z</time>
      </trkpt>
      <trkpt lat="43.44707" lon="6.19453">
        <ele>179.19999694824</ele>
        <time>2015-05-31T07:10:41Z</time>
      </trkpt>
      <trkpt lat="43.44708" lon="6.19446">
        <ele>179.19999694824</ele>
        <time>2015-05-31T07:10:42Z</time>
      </trkpt>
      <trkpt lat="43.44714" lon="6.19409">
        <ele>179.39999389648</ele>
        <time>2015-05-31T07:10:48Z</time>
      </trkpt>
      <trkpt lat="43.44717" lon="6.19396">
        <ele>178.60000610352</ele>
        <time>2015-05-31T07:10:50Z</time>
      </trkpt>
      <trkpt lat="43.44721" lon="6.19383">
        <ele>177.60000610352</ele>
        <time>2015-05-31T07:10:52Z</time>
      </trkpt>
      <trkpt lat="43.44727" lon="6.19377">
        <ele>177.19999694824</ele>
        <time>2015-05-31T07:10:53Z</time>
      </trkpt>
      <trkpt lat="43.4474" lon="6.19373">
        <ele>176.19999694824</ele>
        <time>2015-05-31T07:10:55Z</time>
      </trkpt>
      <trkpt lat="43.44746" lon="6.19372">
        <ele>175.80000305176</ele>
        <time>2015-05-31T07:10:56Z</time>
      </trkpt>
      <trkpt lat="43.44753" lon="6.1937">
        <ele>175.80000305176</ele>
        <time>2015-05-31T07:10:57Z</time>
      </trkpt>
      <trkpt lat="43.44764" lon="6.19367">
        <ele>174.80000305176</ele>
        <time>2015-05-31T07:10:59Z</time>
      </trkpt>
      <trkpt lat="43.44785" lon="6.19363">
        <ele>175.39999389648</ele>
        <time>2015-05-31T07:11:03Z</time>
      </trkpt>
      <trkpt lat="43.448" lon="6.1936">
        <ele>175.39999389648</ele>
        <time>2015-05-31T07:11:07Z</time>
      </trkpt>
      <trkpt lat="43.44802" lon="6.1936">
        <ele>175.39999389648</ele>
        <time>2015-05-31T07:11:08Z</time>
      </trkpt>
      <trkpt lat="43.44806" lon="6.19358">
        <ele>175.39999389648</ele>
        <time>2015-05-31T07:11:09Z</time>
      </trkpt>
      <trkpt lat="43.44809" lon="6.19356">
        <ele>175.60000610352</ele>
        <time>2015-05-31T07:11:11Z</time>
      </trkpt>
      <trkpt lat="43.4481" lon="6.19357">
        <ele>175.80000305176</ele>
        <time>2015-05-31T07:11:12Z</time>
      </trkpt>
      <trkpt lat="43.44814" lon="6.19364">
        <ele>176.19999694824</ele>
        <time>2015-05-31T07:11:15Z</time>
      </trkpt>
      <trkpt lat="43.44821" lon="6.19371">
        <ele>176</ele>
        <time>2015-05-31T07:11:18Z</time>
      </trkpt>
      <trkpt lat="43.44827" lon="6.19378">
        <ele>176.19999694824</ele>
        <time>2015-05-31T07:11:20Z</time>
      </trkpt>
      <trkpt lat="43.44837" lon="6.19399">
        <ele>175.19999694824</ele>
        <time>2015-05-31T07:11:25Z</time>
      </trkpt>
      <trkpt lat="43.44841" lon="6.19412">
        <ele>174.60000610352</ele>
        <time>2015-05-31T07:11:27Z</time>
      </trkpt>
      <trkpt lat="43.44844" lon="6.19431">
        <ele>173.80000305176</ele>
        <time>2015-05-31T07:11:30Z</time>
      </trkpt>
      <trkpt lat="43.44846" lon="6.19436">
        <ele>173.60000610352</ele>
        <time>2015-05-31T07:11:31Z</time>
      </trkpt>
      <trkpt lat="43.44854" lon="6.19453">
        <ele>173.60000610352</ele>
        <time>2015-05-31T07:11:35Z</time>
      </trkpt>
      <trkpt lat="43.44859" lon="6.19462">
        <ele>173.60000610352</ele>
        <time>2015-05-31T07:11:37Z</time>
      </trkpt>
      <trkpt lat="43.4487" lon="6.19482">
        <ele>174.39999389648</ele>
        <time>2015-05-31T07:11:41Z</time>
      </trkpt>
      <trkpt lat="43.44878" lon="6.19498">
        <ele>174.39999389648</ele>
        <time>2015-05-31T07:11:44Z</time>
      </trkpt>
      <trkpt lat="43.44889" lon="6.19518">
        <ele>174.39999389648</ele>
        <time>2015-05-31T07:11:48Z</time>
      </trkpt>
      <trkpt lat="43.44905" lon="6.19549">
        <ele>174.60000610352</ele>
        <time>2015-05-31T07:11:54Z</time>
      </trkpt>
      <trkpt lat="43.44911" lon="6.1956">
        <ele>174.60000610352</ele>
        <time>2015-05-31T07:11:56Z</time>
      </trkpt>
      <trkpt lat="43.44927" lon="6.19585">
        <ele>174.60000610352</ele>
        <time>2015-05-31T07:12:01Z</time>
      </trkpt>
      <trkpt lat="43.44953" lon="6.19609">
        <ele>173.80000305176</ele>
        <time>2015-05-31T07:12:07Z</time>
      </trkpt>
      <trkpt lat="43.44992" lon="6.19647">
        <ele>174</ele>
        <time>2015-05-31T07:12:16Z</time>
      </trkpt>
      <trkpt lat="43.4502" lon="6.19673">
        <ele>174.60000610352</ele>
        <time>2015-05-31T07:12:23Z</time>
      </trkpt>
      <trkpt lat="43.45044" lon="6.1969">
        <ele>174.60000610352</ele>
        <time>2015-05-31T07:12:29Z</time>
      </trkpt>
      <trkpt lat="43.4507" lon="6.19704">
        <ele>174.60000610352</ele>
        <time>2015-05-31T07:12:35Z</time>
      </trkpt>
      <trkpt lat="43.45098" lon="6.19731">
        <ele>174.60000610352</ele>
        <time>2015-05-31T07:12:42Z</time>
      </trkpt>
      <trkpt lat="43.45102" lon="6.19737">
        <ele>174.60000610352</ele>
        <time>2015-05-31T07:12:43Z</time>
      </trkpt>
      <trkpt lat="43.45111" lon="6.19755">
        <ele>174.19999694824</ele>
        <time>2015-05-31T07:12:46Z</time>
      </trkpt>
      <trkpt lat="43.45115" lon="6.19761">
        <ele>174.19999694824</ele>
        <time>2015-05-31T07:12:47Z</time>
      </trkpt>
      <trkpt lat="43.45127" lon="6.19793">
        <ele>174.60000610352</ele>
        <time>2015-05-31T07:12:52Z</time>
      </trkpt>
      <trkpt lat="43.45136" lon="6.19819">
        <ele>174.60000610352</ele>
        <time>2015-05-31T07:12:56Z</time>
      </trkpt>
      <trkpt lat="43.45136" lon="6.19826">
        <ele>174.60000610352</ele>
        <time>2015-05-31T07:12:57Z</time>
      </trkpt>
      <trkpt lat="43.45139" lon="6.19873">
        <ele>174.19999694824</ele>
        <time>2015-05-31T07:13:03Z</time>
      </trkpt>
      <trkpt lat="43.45144" lon="6.19914">
        <ele>173.80000305176</ele>
        <time>2015-05-31T07:13:08Z</time>
      </trkpt>
      <trkpt lat="43.45151" lon="6.19957">
        <ele>174.60000610352</ele>
        <time>2015-05-31T07:13:14Z</time>
      </trkpt>
      <trkpt lat="43.45151" lon="6.19962">
        <ele>174.80000305176</ele>
        <time>2015-05-31T07:13:15Z</time>
      </trkpt>
      <trkpt lat="43.45152" lon="6.19979">
        <ele>175.19999694824</ele>
        <time>2015-05-31T07:13:18Z</time>
      </trkpt>
      <trkpt lat="43.45152" lon="6.19999">
        <ele>174.60000610352</ele>
        <time>2015-05-31T07:13:21Z</time>
      </trkpt>
      <trkpt lat="43.45153" lon="6.20015">
        <ele>174.19999694824</ele>
        <time>2015-05-31T07:13:23Z</time>
      </trkpt>
      <trkpt lat="43.45153" lon="6.20029">
        <ele>174</ele>
        <time>2015-05-31T07:13:25Z</time>
      </trkpt>
      <trkpt lat="43.45155" lon="6.20052">
        <ele>174</ele>
        <time>2015-05-31T07:13:28Z</time>
      </trkpt>
      <trkpt lat="43.45154" lon="6.2006">
        <ele>174.19999694824</ele>
        <time>2015-05-31T07:13:29Z</time>
      </trkpt>
      <trkpt lat="43.45151" lon="6.2009">
        <ele>174</ele>
        <time>2015-05-31T07:13:33Z</time>
      </trkpt>
      <trkpt lat="43.45148" lon="6.20104">
        <ele>173.80000305176</ele>
        <time>2015-05-31T07:13:35Z</time>
      </trkpt>
      <trkpt lat="43.45146" lon="6.20125">
        <ele>173.80000305176</ele>
        <time>2015-05-31T07:13:38Z</time>
      </trkpt>
      <trkpt lat="43.45144" lon="6.2016">
        <ele>174</ele>
        <time>2015-05-31T07:13:43Z</time>
      </trkpt>
      <trkpt lat="43.45142" lon="6.2018">
        <ele>173.80000305176</ele>
        <time>2015-05-31T07:13:46Z</time>
      </trkpt>
      <trkpt lat="43.45142" lon="6.20195">
        <ele>173.60000610352</ele>
        <time>2015-05-31T07:13:48Z</time>
      </trkpt>
      <trkpt lat="43.4514" lon="6.20209">
        <ele>173.60000610352</ele>
        <time>2015-05-31T07:13:50Z</time>
      </trkpt>
      <trkpt lat="43.45138" lon="6.20222">
        <ele>173.60000610352</ele>
        <time>2015-05-31T07:13:52Z</time>
      </trkpt>
      <trkpt lat="43.45134" lon="6.20242">
        <ele>173.60000610352</ele>
        <time>2015-05-31T07:13:55Z</time>
      </trkpt>
      <trkpt lat="43.4513" lon="6.20255">
        <ele>173.80000305176</ele>
        <time>2015-05-31T07:13:57Z</time>
      </trkpt>
      <trkpt lat="43.45127" lon="6.2027">
        <ele>173.60000610352</ele>
        <time>2015-05-31T07:13:59Z</time>
      </trkpt>
      <trkpt lat="43.45125" lon="6.20276">
        <ele>173.60000610352</ele>
        <time>2015-05-31T07:14:00Z</time>
      </trkpt>
      <trkpt lat="43.45121" lon="6.20299">
        <ele>173.60000610352</ele>
        <time>2015-05-31T07:14:03Z</time>
      </trkpt>
      <trkpt lat="43.4512" lon="6.20306">
        <ele>173.60000610352</ele>
        <time>2015-05-31T07:14:04Z</time>
      </trkpt>
      <trkpt lat="43.45116" lon="6.20329">
        <ele>173.39999389648</ele>
        <time>2015-05-31T07:14:07Z</time>
      </trkpt>
      <trkpt lat="43.45114" lon="6.20338">
        <ele>173.60000610352</ele>
        <time>2015-05-31T07:14:08Z</time>
      </trkpt>
      <trkpt lat="43.45113" lon="6.20353">
        <ele>173.19999694824</ele>
        <time>2015-05-31T07:14:10Z</time>
      </trkpt>
      <trkpt lat="43.45116" lon="6.20366">
        <ele>173.60000610352</ele>
        <time>2015-05-31T07:14:12Z</time>
      </trkpt>
      <trkpt lat="43.45123" lon="6.20393">
        <ele>174</ele>
        <time>2015-05-31T07:14:16Z</time>
      </trkpt>
      <trkpt lat="43.4513" lon="6.20405">
        <ele>174.19999694824</ele>
        <time>2015-05-31T07:14:18Z</time>
      </trkpt>
      <trkpt lat="43.45132" lon="6.20411">
        <ele>174.39999389648</ele>
        <time>2015-05-31T07:14:19Z</time>
      </trkpt>
      <trkpt lat="43.45143" lon="6.20432">
        <ele>174.80000305176</ele>
        <time>2015-05-31T07:14:23Z</time>
      </trkpt>
      <trkpt lat="43.45145" lon="6.20437">
        <ele>174.60000610352</ele>
        <time>2015-05-31T07:14:24Z</time>
      </trkpt>
      <trkpt lat="43.45156" lon="6.20461">
        <ele>174.39999389648</ele>
        <time>2015-05-31T07:14:28Z</time>
      </trkpt>
      <trkpt lat="43.45176" lon="6.20499">
        <ele>173.80000305176</ele>
        <time>2015-05-31T07:14:34Z</time>
      </trkpt>
      <trkpt lat="43.4519" lon="6.20523">
        <ele>173.80000305176</ele>
        <time>2015-05-31T07:14:38Z</time>
      </trkpt>
      <trkpt lat="43.45196" lon="6.20532">
        <ele>173.60000610352</ele>
        <time>2015-05-31T07:14:40Z</time>
      </trkpt>
      <trkpt lat="43.45202" lon="6.2054">
        <ele>173.80000305176</ele>
        <time>2015-05-31T07:14:43Z</time>
      </trkpt>
      <trkpt lat="43.45206" lon="6.2054">
        <ele>173.80000305176</ele>
        <time>2015-05-31T07:14:44Z</time>
      </trkpt>
      <trkpt lat="43.45218" lon="6.20551">
        <ele>174.39999389648</ele>
        <time>2015-05-31T07:14:49Z</time>
      </trkpt>
      <trkpt lat="43.45226" lon="6.20563">
        <ele>175.60000610352</ele>
        <time>2015-05-31T07:14:53Z</time>
      </trkpt>
      <trkpt lat="43.45233" lon="6.20575">
        <ele>176</ele>
        <time>2015-05-31T07:14:56Z</time>
      </trkpt>
      <trkpt lat="43.4524" lon="6.20594">
        <ele>176.39999389648</ele>
        <time>2015-05-31T07:15:00Z</time>
      </trkpt>
      <trkpt lat="43.45245" lon="6.20603">
        <ele>176.39999389648</ele>
        <time>2015-05-31T07:15:02Z</time>
      </trkpt>
      <trkpt lat="43.45261" lon="6.20635">
        <ele>175.60000610352</ele>
        <time>2015-05-31T07:15:08Z</time>
      </trkpt>
      <trkpt lat="43.45284" lon="6.20672">
        <ele>175.80000305176</ele>
        <time>2015-05-31T07:15:15Z</time>
      </trkpt>
      <trkpt lat="43.45299" lon="6.2069">
        <ele>175.80000305176</ele>
        <time>2015-05-31T07:15:19Z</time>
      </trkpt>
      <trkpt lat="43.45312" lon="6.20703">
        <ele>175.60000610352</ele>
        <time>2015-05-31T07:15:22Z</time>
      </trkpt>
      <trkpt lat="43.45329" lon="6.20722">
        <ele>175.80000305176</ele>
        <time>2015-05-31T07:15:26Z</time>
      </trkpt>
      <trkpt lat="43.45356" lon="6.20752">
        <ele>175.39999389648</ele>
        <time>2015-05-31T07:15:32Z</time>
      </trkpt>
      <trkpt lat="43.45374" lon="6.20773">
        <ele>175.19999694824</ele>
        <time>2015-05-31T07:15:36Z</time>
      </trkpt>
      <trkpt lat="43.45393" lon="6.20792">
        <ele>175</ele>
        <time>2015-05-31T07:15:40Z</time>
      </trkpt>
      <trkpt lat="43.45404" lon="6.20796">
        <ele>174.80000305176</ele>
        <time>2015-05-31T07:15:42Z</time>
      </trkpt>
      <trkpt lat="43.45428" lon="6.20793">
        <ele>174.80000305176</ele>
        <time>2015-05-31T07:15:46Z</time>
      </trkpt>
      <trkpt lat="43.45437" lon="6.20785">
        <ele>174.60000610352</ele>
        <time>2015-05-31T07:15:48Z</time>
      </trkpt>
      <trkpt lat="43.45441" lon="6.20779">
        <ele>174.19999694824</ele>
        <time>2015-05-31T07:15:49Z</time>
      </trkpt>
      <trkpt lat="43.45445" lon="6.20771">
        <ele>175</ele>
        <time>2015-05-31T07:15:51Z</time>
      </trkpt>
      <trkpt lat="43.45448" lon="6.20767">
        <ele>175</ele>
        <time>2015-05-31T07:15:53Z</time>
      </trkpt>
      <trkpt lat="43.45451" lon="6.20765">
        <ele>175.80000305176</ele>
        <time>2015-05-31T07:15:55Z</time>
      </trkpt>
      <trkpt lat="43.45452" lon="6.20764">
        <ele>176</ele>
        <time>2015-05-31T07:15:56Z</time>
      </trkpt>
      <trkpt lat="43.45454" lon="6.20762">
        <ele>176.39999389648</ele>
        <time>2015-05-31T07:15:58Z</time>
      </trkpt>
      <trkpt lat="43.45462" lon="6.20756">
        <ele>178</ele>
        <time>2015-05-31T07:16:04Z</time>
      </trkpt>
      <trkpt lat="43.45462" lon="6.20755">
        <ele>178.39999389648</ele>
        <time>2015-05-31T07:16:05Z</time>
      </trkpt>
      <trkpt lat="43.45465" lon="6.20753">
        <ele>178.80000305176</ele>
        <time>2015-05-31T07:16:07Z</time>
      </trkpt>
      <trkpt lat="43.4547" lon="6.2075">
        <ele>179.39999389648</ele>
        <time>2015-05-31T07:16:10Z</time>
      </trkpt>
      <trkpt lat="43.45473" lon="6.20749">
        <ele>180</ele>
        <time>2015-05-31T07:16:13Z</time>
      </trkpt>
      <trkpt lat="43.45477" lon="6.20748">
        <ele>180.60000610352</ele>
        <time>2015-05-31T07:16:16Z</time>
      </trkpt>
      <trkpt lat="43.4548" lon="6.20742">
        <ele>181.39999389648</ele>
        <time>2015-05-31T07:16:20Z</time>
      </trkpt>
      <trkpt lat="43.4548" lon="6.2074">
        <ele>181.60000610352</ele>
        <time>2015-05-31T07:16:21Z</time>
      </trkpt>
      <trkpt lat="43.45476" lon="6.20734">
        <ele>182.19999694824</ele>
        <time>2015-05-31T07:16:26Z</time>
      </trkpt>
      <trkpt lat="43.45471" lon="6.20735">
        <ele>182.80000305176</ele>
        <time>2015-05-31T07:16:31Z</time>
      </trkpt>
      <trkpt lat="43.45464" lon="6.20736">
        <ele>183.80000305176</ele>
        <time>2015-05-31T07:16:37Z</time>
      </trkpt>
      <trkpt lat="43.45462" lon="6.20736">
        <ele>184.39999389648</ele>
        <time>2015-05-31T07:16:39Z</time>
      </trkpt>
      <trkpt lat="43.45458" lon="6.20735">
        <ele>185</ele>
        <time>2015-05-31T07:16:43Z</time>
      </trkpt>
      <trkpt lat="43.45452" lon="6.20736">
        <ele>186.19999694824</ele>
        <time>2015-05-31T07:16:49Z</time>
      </trkpt>
      <trkpt lat="43.45446" lon="6.20734">
        <ele>187</ele>
        <time>2015-05-31T07:16:55Z</time>
      </trkpt>
      <trkpt lat="43.45443" lon="6.20733">
        <ele>187.60000610352</ele>
        <time>2015-05-31T07:16:59Z</time>
      </trkpt>
      <trkpt lat="43.45441" lon="6.20733">
        <ele>187.80000305176</ele>
        <time>2015-05-31T07:17:02Z</time>
      </trkpt>
      <trkpt lat="43.45438" lon="6.20733">
        <ele>188.19999694824</ele>
        <time>2015-05-31T07:17:05Z</time>
      </trkpt>
      <trkpt lat="43.45432" lon="6.2073">
        <ele>188.80000305176</ele>
        <time>2015-05-31T07:17:11Z</time>
      </trkpt>
      <trkpt lat="43.45429" lon="6.20721">
        <ele>189</ele>
        <time>2015-05-31T07:17:17Z</time>
      </trkpt>
      <trkpt lat="43.45428" lon="6.20717">
        <ele>189.39999389648</ele>
        <time>2015-05-31T07:17:20Z</time>
      </trkpt>
      <trkpt lat="43.4543" lon="6.20714">
        <ele>189.39999389648</ele>
        <time>2015-05-31T07:17:22Z</time>
      </trkpt>
      <trkpt lat="43.45435" lon="6.20716">
        <ele>190</ele>
        <time>2015-05-31T07:17:27Z</time>
      </trkpt>
      <trkpt lat="43.45439" lon="6.20718">
        <ele>190.39999389648</ele>
        <time>2015-05-31T07:17:31Z</time>
      </trkpt>
      <trkpt lat="43.45443" lon="6.20719">
        <ele>191.19999694824</ele>
        <time>2015-05-31T07:17:35Z</time>
      </trkpt>
      <trkpt lat="43.45446" lon="6.2072">
        <ele>191.39999389648</ele>
        <time>2015-05-31T07:17:38Z</time>
      </trkpt>
      <trkpt lat="43.45448" lon="6.2072">
        <ele>191.60000610352</ele>
        <time>2015-05-31T07:17:40Z</time>
      </trkpt>
      <trkpt lat="43.45451" lon="6.20718">
        <ele>192.60000610352</ele>
        <time>2015-05-31T07:17:43Z</time>
      </trkpt>
      <trkpt lat="43.45457" lon="6.20716">
        <ele>192.60000610352</ele>
        <time>2015-05-31T07:17:48Z</time>
      </trkpt>
      <trkpt lat="43.45458" lon="6.20714">
        <ele>193.19999694824</ele>
        <time>2015-05-31T07:17:50Z</time>
      </trkpt>
      <trkpt lat="43.45462" lon="6.20711">
        <ele>193.60000610352</ele>
        <time>2015-05-31T07:17:54Z</time>
      </trkpt>
      <trkpt lat="43.45469" lon="6.20706">
        <ele>194.39999389648</ele>
        <time>2015-05-31T07:18:00Z</time>
      </trkpt>
      <trkpt lat="43.45471" lon="6.20705">
        <ele>194.60000610352</ele>
        <time>2015-05-31T07:18:02Z</time>
      </trkpt>
      <trkpt lat="43.45478" lon="6.20695">
        <ele>195.60000610352</ele>
        <time>2015-05-31T07:18:09Z</time>
      </trkpt>
      <trkpt lat="43.45488" lon="6.2068">
        <ele>196.80000305176</ele>
        <time>2015-05-31T07:18:20Z</time>
      </trkpt>
      <trkpt lat="43.45491" lon="6.20675">
        <ele>197.39999389648</ele>
        <time>2015-05-31T07:18:23Z</time>
      </trkpt>
      <trkpt lat="43.45493" lon="6.20669">
        <ele>197.80000305176</ele>
        <time>2015-05-31T07:18:26Z</time>
      </trkpt>
      <trkpt lat="43.45499" lon="6.20659">
        <ele>199</ele>
        <time>2015-05-31T07:18:33Z</time>
      </trkpt>
      <trkpt lat="43.45503" lon="6.20648">
        <ele>199.60000610352</ele>
        <time>2015-05-31T07:18:39Z</time>
      </trkpt>
      <trkpt lat="43.45509" lon="6.2064">
        <ele>200.19999694824</ele>
        <time>2015-05-31T07:18:44Z</time>
      </trkpt>
      <trkpt lat="43.45512" lon="6.20631">
        <ele>201.19999694824</ele>
        <time>2015-05-31T07:18:49Z</time>
      </trkpt>
      <trkpt lat="43.45517" lon="6.2062">
        <ele>202.39999389648</ele>
        <time>2015-05-31T07:18:56Z</time>
      </trkpt>
      <trkpt lat="43.45528" lon="6.20604">
        <ele>204</ele>
        <time>2015-05-31T07:19:07Z</time>
      </trkpt>
      <trkpt lat="43.4553" lon="6.20589">
        <ele>205.39999389648</ele>
        <time>2015-05-31T07:19:15Z</time>
      </trkpt>
      <trkpt lat="43.45535" lon="6.20577">
        <ele>205.80000305176</ele>
        <time>2015-05-31T07:19:22Z</time>
      </trkpt>
      <trkpt lat="43.45538" lon="6.20572">
        <ele>206.39999389648</ele>
        <time>2015-05-31T07:19:26Z</time>
      </trkpt>
      <trkpt lat="43.4554" lon="6.20569">
        <ele>206.80000305176</ele>
        <time>2015-05-31T07:19:28Z</time>
      </trkpt>
      <trkpt lat="43.45541" lon="6.20568">
        <ele>207</ele>
        <time>2015-05-31T07:19:29Z</time>
      </trkpt>
      <trkpt lat="43.45544" lon="6.20562">
        <ele>207.60000610352</ele>
        <time>2015-05-31T07:19:33Z</time>
      </trkpt>
      <trkpt lat="43.45549" lon="6.20553">
        <ele>208.80000305176</ele>
        <time>2015-05-31T07:19:39Z</time>
      </trkpt>
      <trkpt lat="43.45554" lon="6.20547">
        <ele>208.80000305176</ele>
        <time>2015-05-31T07:19:43Z</time>
      </trkpt>
      <trkpt lat="43.45564" lon="6.20535">
        <ele>209.60000610352</ele>
        <time>2015-05-31T07:19:50Z</time>
      </trkpt>
      <trkpt lat="43.45575" lon="6.20529">
        <ele>210.19999694824</ele>
        <time>2015-05-31T07:19:57Z</time>
      </trkpt>
      <trkpt lat="43.45587" lon="6.20523">
        <ele>210.60000610352</ele>
        <time>2015-05-31T07:20:04Z</time>
      </trkpt>
      <trkpt lat="43.45593" lon="6.20521">
        <ele>211.19999694824</ele>
        <time>2015-05-31T07:20:07Z</time>
      </trkpt>
      <trkpt lat="43.45599" lon="6.20519">
        <ele>212</ele>
        <time>2015-05-31T07:20:11Z</time>
      </trkpt>
      <trkpt lat="43.45606" lon="6.20516">
        <ele>212.39999389648</ele>
        <time>2015-05-31T07:20:15Z</time>
      </trkpt>
      <trkpt lat="43.45611" lon="6.20515">
        <ele>212.60000610352</ele>
        <time>2015-05-31T07:20:18Z</time>
      </trkpt>
      <trkpt lat="43.45633" lon="6.20511">
        <ele>214.60000610352</ele>
        <time>2015-05-31T07:20:31Z</time>
      </trkpt>
      <trkpt lat="43.45647" lon="6.20508">
        <ele>215.60000610352</ele>
        <time>2015-05-31T07:20:39Z</time>
      </trkpt>
      <trkpt lat="43.45661" lon="6.20506">
        <ele>216.39999389648</ele>
        <time>2015-05-31T07:20:46Z</time>
      </trkpt>
      <trkpt lat="43.45684" lon="6.20501">
        <ele>217.60000610352</ele>
        <time>2015-05-31T07:20:58Z</time>
      </trkpt>
      <trkpt lat="43.45688" lon="6.205">
        <ele>218</ele>
        <time>2015-05-31T07:21:00Z</time>
      </trkpt>
      <trkpt lat="43.45697" lon="6.20497">
        <ele>218.39999389648</ele>
        <time>2015-05-31T07:21:05Z</time>
      </trkpt>
      <trkpt lat="43.45699" lon="6.20497">
        <ele>218.39999389648</ele>
        <time>2015-05-31T07:21:06Z</time>
      </trkpt>
      <trkpt lat="43.45712" lon="6.20491">
        <ele>219.39999389648</ele>
        <time>2015-05-31T07:21:13Z</time>
      </trkpt>
      <trkpt lat="43.45714" lon="6.20491">
        <ele>219.39999389648</ele>
        <time>2015-05-31T07:21:14Z</time>
      </trkpt>
      <trkpt lat="43.45725" lon="6.20486">
        <ele>220.39999389648</ele>
        <time>2015-05-31T07:21:20Z</time>
      </trkpt>
      <trkpt lat="43.45733" lon="6.20484">
        <ele>221.19999694824</ele>
        <time>2015-05-31T07:21:25Z</time>
      </trkpt>
      <trkpt lat="43.45737" lon="6.20482">
        <ele>221.60000610352</ele>
        <time>2015-05-31T07:21:28Z</time>
      </trkpt>
      <trkpt lat="43.45747" lon="6.20479">
        <ele>222.60000610352</ele>
        <time>2015-05-31T07:21:34Z</time>
      </trkpt>
      <trkpt lat="43.45758" lon="6.20474">
        <ele>223.39999389648</ele>
        <time>2015-05-31T07:21:42Z</time>
      </trkpt>
      <trkpt lat="43.45768" lon="6.20471">
        <ele>224.60000610352</ele>
        <time>2015-05-31T07:21:50Z</time>
      </trkpt>
      <trkpt lat="43.45778" lon="6.2047">
        <ele>225.80000305176</ele>
        <time>2015-05-31T07:21:56Z</time>
      </trkpt>
      <trkpt lat="43.45779" lon="6.20469">
        <ele>226</ele>
        <time>2015-05-31T07:21:57Z</time>
      </trkpt>
      <trkpt lat="43.4579" lon="6.20467">
        <ele>226.60000610352</ele>
        <time>2015-05-31T07:22:04Z</time>
      </trkpt>
      <trkpt lat="43.458" lon="6.20464">
        <ele>227.80000305176</ele>
        <time>2015-05-31T07:22:11Z</time>
      </trkpt>
      <trkpt lat="43.45808" lon="6.20462">
        <ele>228.80000305176</ele>
        <time>2015-05-31T07:22:17Z</time>
      </trkpt>
      <trkpt lat="43.45818" lon="6.20458">
        <ele>229.80000305176</ele>
        <time>2015-05-31T07:22:24Z</time>
      </trkpt>
      <trkpt lat="43.45826" lon="6.20454">
        <ele>230.19999694824</ele>
        <time>2015-05-31T07:22:30Z</time>
      </trkpt>
      <trkpt lat="43.45832" lon="6.20452">
        <ele>231</ele>
        <time>2015-05-31T07:22:34Z</time>
      </trkpt>
      <trkpt lat="43.45837" lon="6.2045">
        <ele>231.39999389648</ele>
        <time>2015-05-31T07:22:37Z</time>
      </trkpt>
      <trkpt lat="43.45842" lon="6.20447">
        <ele>232</ele>
        <time>2015-05-31T07:22:41Z</time>
      </trkpt>
      <trkpt lat="43.45854" lon="6.2044">
        <ele>233</ele>
        <time>2015-05-31T07:22:49Z</time>
      </trkpt>
      <trkpt lat="43.45859" lon="6.20441">
        <ele>233.80000305176</ele>
        <time>2015-05-31T07:22:52Z</time>
      </trkpt>
      <trkpt lat="43.45866" lon="6.20442">
        <ele>234.19999694824</ele>
        <time>2015-05-31T07:22:57Z</time>
      </trkpt>
      <trkpt lat="43.45869" lon="6.20442">
        <ele>234.60000610352</ele>
        <time>2015-05-31T07:22:59Z</time>
      </trkpt>
      <trkpt lat="43.45886" lon="6.20446">
        <ele>235.19999694824</ele>
        <time>2015-05-31T07:23:10Z</time>
      </trkpt>
      <trkpt lat="43.45892" lon="6.20446">
        <ele>235.60000610352</ele>
        <time>2015-05-31T07:23:14Z</time>
      </trkpt>
      <trkpt lat="43.45901" lon="6.20448">
        <ele>236.19999694824</ele>
        <time>2015-05-31T07:23:19Z</time>
      </trkpt>
      <trkpt lat="43.45909" lon="6.20449">
        <ele>236.80000305176</ele>
        <time>2015-05-31T07:23:24Z</time>
      </trkpt>
      <trkpt lat="43.45914" lon="6.20449">
        <ele>237.39999389648</ele>
        <time>2015-05-31T07:23:27Z</time>
      </trkpt>
      <trkpt lat="43.45922" lon="6.20449">
        <ele>237.39999389648</ele>
        <time>2015-05-31T07:23:32Z</time>
      </trkpt>
      <trkpt lat="43.45937" lon="6.20447">
        <ele>238.39999389648</ele>
        <time>2015-05-31T07:23:40Z</time>
      </trkpt>
      <trkpt lat="43.45944" lon="6.20446">
        <ele>238.39999389648</ele>
        <time>2015-05-31T07:23:44Z</time>
      </trkpt>
      <trkpt lat="43.45946" lon="6.20443">
        <ele>238.39999389648</ele>
        <time>2015-05-31T07:23:45Z</time>
      </trkpt>
      <trkpt lat="43.45946" lon="6.20432">
        <ele>238.60000610352</ele>
        <time>2015-05-31T07:23:50Z</time>
      </trkpt>
      <trkpt lat="43.45943" lon="6.20426">
        <ele>239</ele>
        <time>2015-05-31T07:23:54Z</time>
      </trkpt>
      <trkpt lat="43.45942" lon="6.20421">
        <ele>239.60000610352</ele>
        <time>2015-05-31T07:23:57Z</time>
      </trkpt>
      <trkpt lat="43.45937" lon="6.20406">
        <ele>240.39999389648</ele>
        <time>2015-05-31T07:24:04Z</time>
      </trkpt>
      <trkpt lat="43.45935" lon="6.20404">
        <ele>240.60000610352</ele>
        <time>2015-05-31T07:24:05Z</time>
      </trkpt>
      <trkpt lat="43.45929" lon="6.20394">
        <ele>241.60000610352</ele>
        <time>2015-05-31T07:24:11Z</time>
      </trkpt>
      <trkpt lat="43.45928" lon="6.20393">
        <ele>241.80000305176</ele>
        <time>2015-05-31T07:24:12Z</time>
      </trkpt>
      <trkpt lat="43.45916" lon="6.20383">
        <ele>242.60000610352</ele>
        <time>2015-05-31T07:24:20Z</time>
      </trkpt>
      <trkpt lat="43.45901" lon="6.20375">
        <ele>243.60000610352</ele>
        <time>2015-05-31T07:24:30Z</time>
      </trkpt>
      <trkpt lat="43.4588" lon="6.20368">
        <ele>245.80000305176</ele>
        <time>2015-05-31T07:24:43Z</time>
      </trkpt>
      <trkpt lat="43.45868" lon="6.20364">
        <ele>246.80000305176</ele>
        <time>2015-05-31T07:24:50Z</time>
      </trkpt>
      <trkpt lat="43.45857" lon="6.20361">
        <ele>247.80000305176</ele>
        <time>2015-05-31T07:24:57Z</time>
      </trkpt>
      <trkpt lat="43.45856" lon="6.2036">
        <ele>247.80000305176</ele>
        <time>2015-05-31T07:24:58Z</time>
      </trkpt>
      <trkpt lat="43.45846" lon="6.20358">
        <ele>248.60000610352</ele>
        <time>2015-05-31T07:25:04Z</time>
      </trkpt>
      <trkpt lat="43.45843" lon="6.20358">
        <ele>249</ele>
        <time>2015-05-31T07:25:06Z</time>
      </trkpt>
      <trkpt lat="43.45831" lon="6.20358">
        <ele>249.60000610352</ele>
        <time>2015-05-31T07:25:12Z</time>
      </trkpt>
      <trkpt lat="43.45825" lon="6.20357">
        <ele>250</ele>
        <time>2015-05-31T07:25:16Z</time>
      </trkpt>
      <trkpt lat="43.45822" lon="6.20356">
        <ele>250.19999694824</ele>
        <time>2015-05-31T07:25:18Z</time>
      </trkpt>
      <trkpt lat="43.45811" lon="6.20353">
        <ele>251.39999389648</ele>
        <time>2015-05-31T07:25:24Z</time>
      </trkpt>
      <trkpt lat="43.45802" lon="6.20349">
        <ele>252.19999694824</ele>
        <time>2015-05-31T07:25:30Z</time>
      </trkpt>
      <trkpt lat="43.4579" lon="6.20345">
        <ele>253.19999694824</ele>
        <time>2015-05-31T07:25:38Z</time>
      </trkpt>
      <trkpt lat="43.45787" lon="6.20344">
        <ele>253.60000610352</ele>
        <time>2015-05-31T07:25:40Z</time>
      </trkpt>
      <trkpt lat="43.45783" lon="6.20341">
        <ele>254</ele>
        <time>2015-05-31T07:25:44Z</time>
      </trkpt>
      <trkpt lat="43.45777" lon="6.2034">
        <ele>254.80000305176</ele>
        <time>2015-05-31T07:25:48Z</time>
      </trkpt>
      <trkpt lat="43.45774" lon="6.20338">
        <ele>255.19999694824</ele>
        <time>2015-05-31T07:25:50Z</time>
      </trkpt>
      <trkpt lat="43.45764" lon="6.20336">
        <ele>256.20001220703</ele>
        <time>2015-05-31T07:25:57Z</time>
      </trkpt>
      <trkpt lat="43.45755" lon="6.20333">
        <ele>256.60000610352</ele>
        <time>2015-05-31T07:26:03Z</time>
      </trkpt>
      <trkpt lat="43.45753" lon="6.20333">
        <ele>257.39999389648</ele>
        <time>2015-05-31T07:26:05Z</time>
      </trkpt>
      <trkpt lat="43.45743" lon="6.20331">
        <ele>258.39999389648</ele>
        <time>2015-05-31T07:26:11Z</time>
      </trkpt>
      <trkpt lat="43.45734" lon="6.20329">
        <ele>259.20001220703</ele>
        <time>2015-05-31T07:26:17Z</time>
      </trkpt>
      <trkpt lat="43.45729" lon="6.20326">
        <ele>259.39999389648</ele>
        <time>2015-05-31T07:26:21Z</time>
      </trkpt>
      <trkpt lat="43.45724" lon="6.20322">
        <ele>260</ele>
        <time>2015-05-31T07:26:25Z</time>
      </trkpt>
      <trkpt lat="43.4572" lon="6.2032">
        <ele>260.39999389648</ele>
        <time>2015-05-31T07:26:28Z</time>
      </trkpt>
      <trkpt lat="43.45718" lon="6.20319">
        <ele>260.60000610352</ele>
        <time>2015-05-31T07:26:29Z</time>
      </trkpt>
      <trkpt lat="43.4571" lon="6.20311">
        <ele>261</ele>
        <time>2015-05-31T07:26:35Z</time>
      </trkpt>
      <trkpt lat="43.45706" lon="6.20308">
        <ele>261.60000610352</ele>
        <time>2015-05-31T07:26:38Z</time>
      </trkpt>
      <trkpt lat="43.457" lon="6.203">
        <ele>262.39999389648</ele>
        <time>2015-05-31T07:26:43Z</time>
      </trkpt>
      <trkpt lat="43.45698" lon="6.20295">
        <ele>262.60000610352</ele>
        <time>2015-05-31T07:26:46Z</time>
      </trkpt>
      <trkpt lat="43.45696" lon="6.20291">
        <ele>263.20001220703</ele>
        <time>2015-05-31T07:26:49Z</time>
      </trkpt>
      <trkpt lat="43.45695" lon="6.20287">
        <ele>263.39999389648</ele>
        <time>2015-05-31T07:26:51Z</time>
      </trkpt>
      <trkpt lat="43.45693" lon="6.20283">
        <ele>263.79998779297</ele>
        <time>2015-05-31T07:26:53Z</time>
      </trkpt>
      <trkpt lat="43.45692" lon="6.20279">
        <ele>264</ele>
        <time>2015-05-31T07:26:55Z</time>
      </trkpt>
      <trkpt lat="43.45689" lon="6.20267">
        <ele>265.20001220703</ele>
        <time>2015-05-31T07:27:01Z</time>
      </trkpt>
      <trkpt lat="43.45689" lon="6.20266">
        <ele>265</ele>
        <time>2015-05-31T07:27:02Z</time>
      </trkpt>
      <trkpt lat="43.4569" lon="6.20265">
        <ele>265</ele>
        <time>2015-05-31T07:27:03Z</time>
      </trkpt>
      <trkpt lat="43.45688" lon="6.20259">
        <ele>265.39999389648</ele>
        <time>2015-05-31T07:27:06Z</time>
      </trkpt>
      <trkpt lat="43.45688" lon="6.20253">
        <ele>265.20001220703</ele>
        <time>2015-05-31T07:27:09Z</time>
      </trkpt>
      <trkpt lat="43.45688" lon="6.20248">
        <ele>265.60000610352</ele>
        <time>2015-05-31T07:27:11Z</time>
      </trkpt>
      <trkpt lat="43.45687" lon="6.20242">
        <ele>266.20001220703</ele>
        <time>2015-05-31T07:27:14Z</time>
      </trkpt>
      <trkpt lat="43.45687" lon="6.20236">
        <ele>266.39999389648</ele>
        <time>2015-05-31T07:27:17Z</time>
      </trkpt>
      <trkpt lat="43.45686" lon="6.2023">
        <ele>266.39999389648</ele>
        <time>2015-05-31T07:27:20Z</time>
      </trkpt>
      <trkpt lat="43.45683" lon="6.20223">
        <ele>266.39999389648</ele>
        <time>2015-05-31T07:27:23Z</time>
      </trkpt>
      <trkpt lat="43.4568" lon="6.20213">
        <ele>267.20001220703</ele>
        <time>2015-05-31T07:27:28Z</time>
      </trkpt>
      <trkpt lat="43.45675" lon="6.20196">
        <ele>267.79998779297</ele>
        <time>2015-05-31T07:27:36Z</time>
      </trkpt>
      <trkpt lat="43.45671" lon="6.20179">
        <ele>268.20001220703</ele>
        <time>2015-05-31T07:27:43Z</time>
      </trkpt>
      <trkpt lat="43.4567" lon="6.20176">
        <ele>268.39999389648</ele>
        <time>2015-05-31T07:27:44Z</time>
      </trkpt>
      <trkpt lat="43.45665" lon="6.20164">
        <ele>269.39999389648</ele>
        <time>2015-05-31T07:27:49Z</time>
      </trkpt>
      <trkpt lat="43.45662" lon="6.20159">
        <ele>269.39999389648</ele>
        <time>2015-05-31T07:27:51Z</time>
      </trkpt>
      <trkpt lat="43.45656" lon="6.20148">
        <ele>270.20001220703</ele>
        <time>2015-05-31T07:27:56Z</time>
      </trkpt>
      <trkpt lat="43.45654" lon="6.20143">
        <ele>270.79998779297</ele>
        <time>2015-05-31T07:27:58Z</time>
      </trkpt>
      <trkpt lat="43.45643" lon="6.20126">
        <ele>271.39999389648</ele>
        <time>2015-05-31T07:28:05Z</time>
      </trkpt>
      <trkpt lat="43.45636" lon="6.20115">
        <ele>271.79998779297</ele>
        <time>2015-05-31T07:28:10Z</time>
      </trkpt>
      <trkpt lat="43.45625" lon="6.20101">
        <ele>272.79998779297</ele>
        <time>2015-05-31T07:28:17Z</time>
      </trkpt>
      <trkpt lat="43.45619" lon="6.20095">
        <ele>273.20001220703</ele>
        <time>2015-05-31T07:28:20Z</time>
      </trkpt>
      <trkpt lat="43.45608" lon="6.20084">
        <ele>273.79998779297</ele>
        <time>2015-05-31T07:28:27Z</time>
      </trkpt>
      <trkpt lat="43.45592" lon="6.2007">
        <ele>275</ele>
        <time>2015-05-31T07:28:36Z</time>
      </trkpt>
      <trkpt lat="43.45584" lon="6.20059">
        <ele>275.20001220703</ele>
        <time>2015-05-31T07:28:42Z</time>
      </trkpt>
      <trkpt lat="43.45573" lon="6.20041">
        <ele>276</ele>
        <time>2015-05-31T07:28:50Z</time>
      </trkpt>
      <trkpt lat="43.45562" lon="6.20021">
        <ele>277.20001220703</ele>
        <time>2015-05-31T07:28:58Z</time>
      </trkpt>
      <trkpt lat="43.45546" lon="6.2">
        <ele>278.20001220703</ele>
        <time>2015-05-31T07:29:07Z</time>
      </trkpt>
      <trkpt lat="43.45544" lon="6.19998">
        <ele>278.39999389648</ele>
        <time>2015-05-31T07:29:08Z</time>
      </trkpt>
      <trkpt lat="43.45532" lon="6.19985">
        <ele>279</ele>
        <time>2015-05-31T07:29:15Z</time>
      </trkpt>
      <trkpt lat="43.45522" lon="6.19978">
        <ele>279.60000610352</ele>
        <time>2015-05-31T07:29:20Z</time>
      </trkpt>
      <trkpt lat="43.45518" lon="6.19975">
        <ele>280</ele>
        <time>2015-05-31T07:29:22Z</time>
      </trkpt>
      <trkpt lat="43.45506" lon="6.19969">
        <ele>280</ele>
        <time>2015-05-31T07:29:28Z</time>
      </trkpt>
      <trkpt lat="43.45493" lon="6.19965">
        <ele>280.60000610352</ele>
        <time>2015-05-31T07:29:34Z</time>
      </trkpt>
      <trkpt lat="43.4549" lon="6.19965">
        <ele>280.79998779297</ele>
        <time>2015-05-31T07:29:35Z</time>
      </trkpt>
      <trkpt lat="43.45479" lon="6.19963">
        <ele>281.20001220703</ele>
        <time>2015-05-31T07:29:40Z</time>
      </trkpt>
      <trkpt lat="43.45462" lon="6.19961">
        <ele>281.60000610352</ele>
        <time>2015-05-31T07:29:47Z</time>
      </trkpt>
      <trkpt lat="43.45459" lon="6.19962">
        <ele>282</ele>
        <time>2015-05-31T07:29:48Z</time>
      </trkpt>
      <trkpt lat="43.4545" lon="6.19962">
        <ele>282.20001220703</ele>
        <time>2015-05-31T07:29:52Z</time>
      </trkpt>
      <trkpt lat="43.45438" lon="6.19962">
        <ele>282.39999389648</ele>
        <time>2015-05-31T07:29:57Z</time>
      </trkpt>
      <trkpt lat="43.45422" lon="6.19961">
        <ele>282.79998779297</ele>
        <time>2015-05-31T07:30:03Z</time>
      </trkpt>
      <trkpt lat="43.45416" lon="6.19961">
        <ele>283</ele>
        <time>2015-05-31T07:30:05Z</time>
      </trkpt>
      <trkpt lat="43.45408" lon="6.19961">
        <ele>283</ele>
        <time>2015-05-31T07:30:08Z</time>
      </trkpt>
      <trkpt lat="43.45396" lon="6.19961">
        <ele>282.79998779297</ele>
        <time>2015-05-31T07:30:12Z</time>
      </trkpt>
      <trkpt lat="43.45393" lon="6.19961">
        <ele>282.60000610352</ele>
        <time>2015-05-31T07:30:13Z</time>
      </trkpt>
      <trkpt lat="43.45382" lon="6.19963">
        <ele>282</ele>
        <time>2015-05-31T07:30:16Z</time>
      </trkpt>
      <trkpt lat="43.45374" lon="6.19964">
        <ele>281.60000610352</ele>
        <time>2015-05-31T07:30:18Z</time>
      </trkpt>
      <trkpt lat="43.45362" lon="6.19954">
        <ele>281.60000610352</ele>
        <time>2015-05-31T07:30:21Z</time>
      </trkpt>
      <trkpt lat="43.45358" lon="6.19937">
        <ele>281</ele>
        <time>2015-05-31T07:30:24Z</time>
      </trkpt>
      <trkpt lat="43.45357" lon="6.1993">
        <ele>281.20001220703</ele>
        <time>2015-05-31T07:30:25Z</time>
      </trkpt>
      <trkpt lat="43.45354" lon="6.19912">
        <ele>280.60000610352</ele>
        <time>2015-05-31T07:30:28Z</time>
      </trkpt>
      <trkpt lat="43.45349" lon="6.19878">
        <ele>279.60000610352</ele>
        <time>2015-05-31T07:30:33Z</time>
      </trkpt>
      <trkpt lat="43.45347" lon="6.19848">
        <ele>280.79998779297</ele>
        <time>2015-05-31T07:30:38Z</time>
      </trkpt>
      <trkpt lat="43.45344" lon="6.19823">
        <ele>280.79998779297</ele>
        <time>2015-05-31T07:30:42Z</time>
      </trkpt>
      <trkpt lat="43.45343" lon="6.19811">
        <ele>280.79998779297</ele>
        <time>2015-05-31T07:30:44Z</time>
      </trkpt>
      <trkpt lat="43.4534" lon="6.19777">
        <ele>280.39999389648</ele>
        <time>2015-05-31T07:30:49Z</time>
      </trkpt>
      <trkpt lat="43.4534" lon="6.19763">
        <ele>280</ele>
        <time>2015-05-31T07:30:51Z</time>
      </trkpt>
      <trkpt lat="43.45336" lon="6.19748">
        <ele>279.79998779297</ele>
        <time>2015-05-31T07:30:53Z</time>
      </trkpt>
      <trkpt lat="43.45334" lon="6.1974">
        <ele>279.79998779297</ele>
        <time>2015-05-31T07:30:54Z</time>
      </trkpt>
      <trkpt lat="43.45329" lon="6.19724">
        <ele>279.60000610352</ele>
        <time>2015-05-31T07:30:56Z</time>
      </trkpt>
      <trkpt lat="43.45326" lon="6.1971">
        <ele>278.39999389648</ele>
        <time>2015-05-31T07:30:58Z</time>
      </trkpt>
      <trkpt lat="43.45324" lon="6.19703">
        <ele>278</ele>
        <time>2015-05-31T07:30:59Z</time>
      </trkpt>
      <trkpt lat="43.45319" lon="6.19691">
        <ele>277.20001220703</ele>
        <time>2015-05-31T07:31:01Z</time>
      </trkpt>
      <trkpt lat="43.4531" lon="6.19683">
        <ele>276.60000610352</ele>
        <time>2015-05-31T07:31:04Z</time>
      </trkpt>
      <trkpt lat="43.45306" lon="6.1968">
        <ele>276.20001220703</ele>
        <time>2015-05-31T07:31:05Z</time>
      </trkpt>
      <trkpt lat="43.45288" lon="6.1967">
        <ele>276.39999389648</ele>
        <time>2015-05-31T07:31:11Z</time>
      </trkpt>
      <trkpt lat="43.45282" lon="6.19663">
        <ele>277.39999389648</ele>
        <time>2015-05-31T07:31:14Z</time>
      </trkpt>
      <trkpt lat="43.45278" lon="6.19659">
        <ele>277.60000610352</ele>
        <time>2015-05-31T07:31:16Z</time>
      </trkpt>
      <trkpt lat="43.45274" lon="6.1965">
        <ele>278.39999389648</ele>
        <time>2015-05-31T07:31:19Z</time>
      </trkpt>
      <trkpt lat="43.45273" lon="6.19643">
        <ele>278.79998779297</ele>
        <time>2015-05-31T07:31:21Z</time>
      </trkpt>
      <trkpt lat="43.45271" lon="6.19632">
        <ele>279.20001220703</ele>
        <time>2015-05-31T07:31:24Z</time>
      </trkpt>
      <trkpt lat="43.45271" lon="6.19628">
        <ele>279.39999389648</ele>
        <time>2015-05-31T07:31:25Z</time>
      </trkpt>
      <trkpt lat="43.4527" lon="6.19621">
        <ele>279.79998779297</ele>
        <time>2015-05-31T07:31:27Z</time>
      </trkpt>
      <trkpt lat="43.45271" lon="6.19615">
        <ele>280.39999389648</ele>
        <time>2015-05-31T07:31:29Z</time>
      </trkpt>
      <trkpt lat="43.45269" lon="6.19608">
        <ele>280.79998779297</ele>
        <time>2015-05-31T07:31:31Z</time>
      </trkpt>
      <trkpt lat="43.45263" lon="6.19594">
        <ele>281.60000610352</ele>
        <time>2015-05-31T07:31:35Z</time>
      </trkpt>
      <trkpt lat="43.4526" lon="6.19588">
        <ele>282</ele>
        <time>2015-05-31T07:31:37Z</time>
      </trkpt>
      <trkpt lat="43.45251" lon="6.19576">
        <ele>282.60000610352</ele>
        <time>2015-05-31T07:31:42Z</time>
      </trkpt>
      <trkpt lat="43.45243" lon="6.19562">
        <ele>283.60000610352</ele>
        <time>2015-05-31T07:31:48Z</time>
      </trkpt>
      <trkpt lat="43.45243" lon="6.19558">
        <ele>283.79998779297</ele>
        <time>2015-05-31T07:31:49Z</time>
      </trkpt>
      <trkpt lat="43.45245" lon="6.19546">
        <ele>284.20001220703</ele>
        <time>2015-05-31T07:31:54Z</time>
      </trkpt>
      <trkpt lat="43.45246" lon="6.19538">
        <ele>283.60000610352</ele>
        <time>2015-05-31T07:31:58Z</time>
      </trkpt>
      <trkpt lat="43.45247" lon="6.19537">
        <ele>283.60000610352</ele>
        <time>2015-05-31T07:31:59Z</time>
      </trkpt>
      <trkpt lat="43.45247" lon="6.19535">
        <ele>282.60000610352</ele>
        <time>2015-05-31T07:32:08Z</time>
      </trkpt>
      <trkpt lat="43.45247" lon="6.19535">
        <ele>282.20001220703</ele>
        <time>2015-05-31T07:32:11Z</time>
      </trkpt>
      <trkpt lat="43.4525" lon="6.19533">
        <ele>281.20001220703</ele>
        <time>2015-05-31T07:32:26Z</time>
      </trkpt>
      <trkpt lat="43.4525" lon="6.19532">
        <ele>281</ele>
        <time>2015-05-31T07:32:27Z</time>
      </trkpt>
      <trkpt lat="43.4525" lon="6.19531">
        <ele>280.79998779297</ele>
        <time>2015-05-31T07:32:29Z</time>
      </trkpt>
      <trkpt lat="43.45251" lon="6.1953">
        <ele>279.79998779297</ele>
        <time>2015-05-31T07:32:34Z</time>
      </trkpt>
      <trkpt lat="43.45251" lon="6.1953">
        <ele>279.60000610352</ele>
        <time>2015-05-31T07:32:37Z</time>
      </trkpt>
      <trkpt lat="43.45253" lon="6.19529">
        <ele>278.79998779297</ele>
        <time>2015-05-31T07:32:44Z</time>
      </trkpt>
      <trkpt lat="43.45254" lon="6.19529">
        <ele>278.20001220703</ele>
        <time>2015-05-31T07:32:45Z</time>
      </trkpt>
      <trkpt lat="43.45259" lon="6.19527">
        <ele>277</ele>
        <time>2015-05-31T07:32:48Z</time>
      </trkpt>
      <trkpt lat="43.4526" lon="6.19525">
        <ele>276.60000610352</ele>
        <time>2015-05-31T07:32:49Z</time>
      </trkpt>
      <trkpt lat="43.45261" lon="6.19523">
        <ele>275.60000610352</ele>
        <time>2015-05-31T07:32:50Z</time>
      </trkpt>
      <trkpt lat="43.45265" lon="6.19518">
        <ele>274.39999389648</ele>
        <time>2015-05-31T07:32:52Z</time>
      </trkpt>
      <trkpt lat="43.45266" lon="6.19511">
        <ele>272.79998779297</ele>
        <time>2015-05-31T07:32:54Z</time>
      </trkpt>
      <trkpt lat="43.45267" lon="6.19505">
        <ele>270.79998779297</ele>
        <time>2015-05-31T07:32:56Z</time>
      </trkpt>
      <trkpt lat="43.45269" lon="6.19499">
        <ele>269.60000610352</ele>
        <time>2015-05-31T07:32:58Z</time>
      </trkpt>
      <trkpt lat="43.45272" lon="6.19496">
        <ele>268.20001220703</ele>
        <time>2015-05-31T07:33:00Z</time>
      </trkpt>
      <trkpt lat="43.45272" lon="6.19491">
        <ele>266.79998779297</ele>
        <time>2015-05-31T07:33:02Z</time>
      </trkpt>
      <trkpt lat="43.45274" lon="6.19485">
        <ele>265.79998779297</ele>
        <time>2015-05-31T07:33:04Z</time>
      </trkpt>
      <trkpt lat="43.45275" lon="6.19482">
        <ele>265.20001220703</ele>
        <time>2015-05-31T07:33:05Z</time>
      </trkpt>
      <trkpt lat="43.45278" lon="6.1948">
        <ele>264.60000610352</ele>
        <time>2015-05-31T07:33:06Z</time>
      </trkpt>
      <trkpt lat="43.4528" lon="6.19476">
        <ele>263.20001220703</ele>
        <time>2015-05-31T07:33:08Z</time>
      </trkpt>
      <trkpt lat="43.45281" lon="6.19474">
        <ele>262.60000610352</ele>
        <time>2015-05-31T07:33:09Z</time>
      </trkpt>
      <trkpt lat="43.45282" lon="6.19473">
        <ele>261.79998779297</ele>
        <time>2015-05-31T07:33:10Z</time>
      </trkpt>
      <trkpt lat="43.45285" lon="6.19467">
        <ele>260.39999389648</ele>
        <time>2015-05-31T07:33:12Z</time>
      </trkpt>
      <trkpt lat="43.45286" lon="6.19465">
        <ele>259.79998779297</ele>
        <time>2015-05-31T07:33:13Z</time>
      </trkpt>
      <trkpt lat="43.45291" lon="6.19444">
        <ele>255</ele>
        <time>2015-05-31T07:33:19Z</time>
      </trkpt>
      <trkpt lat="43.45292" lon="6.19428">
        <ele>254</ele>
        <time>2015-05-31T07:33:22Z</time>
      </trkpt>
      <trkpt lat="43.45292" lon="6.19425">
        <ele>253.60000610352</ele>
        <time>2015-05-31T07:33:23Z</time>
      </trkpt>
      <trkpt lat="43.45294" lon="6.19423">
        <ele>253.19999694824</ele>
        <time>2015-05-31T07:33:24Z</time>
      </trkpt>
      <trkpt lat="43.45298" lon="6.1942">
        <ele>252.39999389648</ele>
        <time>2015-05-31T07:33:25Z</time>
      </trkpt>
      <trkpt lat="43.453" lon="6.19417">
        <ele>252.19999694824</ele>
        <time>2015-05-31T07:33:26Z</time>
      </trkpt>
      <trkpt lat="43.45304" lon="6.19403">
        <ele>250.80000305176</ele>
        <time>2015-05-31T07:33:29Z</time>
      </trkpt>
      <trkpt lat="43.45309" lon="6.1939">
        <ele>249.19999694824</ele>
        <time>2015-05-31T07:33:32Z</time>
      </trkpt>
      <trkpt lat="43.45312" lon="6.19386">
        <ele>248.60000610352</ele>
        <time>2015-05-31T07:33:33Z</time>
      </trkpt>
      <trkpt lat="43.45315" lon="6.19383">
        <ele>248</ele>
        <time>2015-05-31T07:33:34Z</time>
      </trkpt>
      <trkpt lat="43.45319" lon="6.19374">
        <ele>246.60000610352</ele>
        <time>2015-05-31T07:33:36Z</time>
      </trkpt>
      <trkpt lat="43.45322" lon="6.19367">
        <ele>246.60000610352</ele>
        <time>2015-05-31T07:33:37Z</time>
      </trkpt>
      <trkpt lat="43.45324" lon="6.19354">
        <ele>245.19999694824</ele>
        <time>2015-05-31T07:33:39Z</time>
      </trkpt>
      <trkpt lat="43.45327" lon="6.19348">
        <ele>244.39999389648</ele>
        <time>2015-05-31T07:33:41Z</time>
      </trkpt>
      <trkpt lat="43.45327" lon="6.19344">
        <ele>244.19999694824</ele>
        <time>2015-05-31T07:33:42Z</time>
      </trkpt>
      <trkpt lat="43.45333" lon="6.19329">
        <ele>243.39999389648</ele>
        <time>2015-05-31T07:33:45Z</time>
      </trkpt>
      <trkpt lat="43.45337" lon="6.1932">
        <ele>243</ele>
        <time>2015-05-31T07:33:47Z</time>
      </trkpt>
      <trkpt lat="43.45342" lon="6.19307">
        <ele>242</ele>
        <time>2015-05-31T07:33:50Z</time>
      </trkpt>
      <trkpt lat="43.45343" lon="6.19302">
        <ele>241.60000610352</ele>
        <time>2015-05-31T07:33:51Z</time>
      </trkpt>
      <trkpt lat="43.4535" lon="6.19288">
        <ele>240.80000305176</ele>
        <time>2015-05-31T07:33:55Z</time>
      </trkpt>
      <trkpt lat="43.45353" lon="6.19283">
        <ele>240.60000610352</ele>
        <time>2015-05-31T07:33:56Z</time>
      </trkpt>
      <trkpt lat="43.45357" lon="6.19274">
        <ele>238.80000305176</ele>
        <time>2015-05-31T07:33:58Z</time>
      </trkpt>
      <trkpt lat="43.4536" lon="6.19266">
        <ele>237.60000610352</ele>
        <time>2015-05-31T07:33:59Z</time>
      </trkpt>
      <trkpt lat="43.45361" lon="6.19259">
        <ele>237</ele>
        <time>2015-05-31T07:34:00Z</time>
      </trkpt>
      <trkpt lat="43.45366" lon="6.19247">
        <ele>235.80000305176</ele>
        <time>2015-05-31T07:34:02Z</time>
      </trkpt>
      <trkpt lat="43.45367" lon="6.19242">
        <ele>234.80000305176</ele>
        <time>2015-05-31T07:34:03Z</time>
      </trkpt>
      <trkpt lat="43.45374" lon="6.19225">
        <ele>233.80000305176</ele>
        <time>2015-05-31T07:34:06Z</time>
      </trkpt>
      <trkpt lat="43.45378" lon="6.1921">
        <ele>232.80000305176</ele>
        <time>2015-05-31T07:34:09Z</time>
      </trkpt>
      <trkpt lat="43.45379" lon="6.19203">
        <ele>232.19999694824</ele>
        <time>2015-05-31T07:34:10Z</time>
      </trkpt>
      <trkpt lat="43.45385" lon="6.19186">
        <ele>231.19999694824</ele>
        <time>2015-05-31T07:34:13Z</time>
      </trkpt>
      <trkpt lat="43.45387" lon="6.1918">
        <ele>231</ele>
        <time>2015-05-31T07:34:14Z</time>
      </trkpt>
      <trkpt lat="43.45389" lon="6.19167">
        <ele>230</ele>
        <time>2015-05-31T07:34:16Z</time>
      </trkpt>
      <trkpt lat="43.4539" lon="6.19162">
        <ele>229.80000305176</ele>
        <time>2015-05-31T07:34:17Z</time>
      </trkpt>
      <trkpt lat="43.45395" lon="6.19156">
        <ele>229.19999694824</ele>
        <time>2015-05-31T07:34:20Z</time>
      </trkpt>
      <trkpt lat="43.45401" lon="6.19156">
        <ele>228.80000305176</ele>
        <time>2015-05-31T07:34:22Z</time>
      </trkpt>
      <trkpt lat="43.45401" lon="6.19154">
        <ele>228.60000610352</ele>
        <time>2015-05-31T07:34:23Z</time>
      </trkpt>
      <trkpt lat="43.45397" lon="6.19149">
        <ele>228</ele>
        <time>2015-05-31T07:34:26Z</time>
      </trkpt>
      <trkpt lat="43.45396" lon="6.19143">
        <ele>228.80000305176</ele>
        <time>2015-05-31T07:34:29Z</time>
      </trkpt>
      <trkpt lat="43.45394" lon="6.19136">
        <ele>228.60000610352</ele>
        <time>2015-05-31T07:34:32Z</time>
      </trkpt>
      <trkpt lat="43.45391" lon="6.19133">
        <ele>229.39999389648</ele>
        <time>2015-05-31T07:34:34Z</time>
      </trkpt>
      <trkpt lat="43.45386" lon="6.1913">
        <ele>229.60000610352</ele>
        <time>2015-05-31T07:34:37Z</time>
      </trkpt>
      <trkpt lat="43.45381" lon="6.19124">
        <ele>230.19999694824</ele>
        <time>2015-05-31T07:34:41Z</time>
      </trkpt>
      <trkpt lat="43.45378" lon="6.19118">
        <ele>230.80000305176</ele>
        <time>2015-05-31T07:34:44Z</time>
      </trkpt>
      <trkpt lat="43.45374" lon="6.19112">
        <ele>231</ele>
        <time>2015-05-31T07:34:47Z</time>
      </trkpt>
      <trkpt lat="43.4537" lon="6.19106">
        <ele>232</ele>
        <time>2015-05-31T07:34:50Z</time>
      </trkpt>
      <trkpt lat="43.45369" lon="6.19105">
        <ele>233.19999694824</ele>
        <time>2015-05-31T07:34:52Z</time>
      </trkpt>
      <trkpt lat="43.4537" lon="6.19105">
        <ele>233.60000610352</ele>
        <time>2015-05-31T07:34:54Z</time>
      </trkpt>
      <trkpt lat="43.4537" lon="6.19104">
        <ele>233.39999389648</ele>
        <time>2015-05-31T07:34:57Z</time>
      </trkpt>
      <trkpt lat="43.45366" lon="6.191">
        <ele>233.80000305176</ele>
        <time>2015-05-31T07:35:07Z</time>
      </trkpt>
      <trkpt lat="43.45367" lon="6.19101">
        <ele>234</ele>
        <time>2015-05-31T07:35:08Z</time>
      </trkpt>
      <trkpt lat="43.45367" lon="6.191">
        <ele>234.19999694824</ele>
        <time>2015-05-31T07:35:12Z</time>
      </trkpt>
      <trkpt lat="43.45367" lon="6.191">
        <ele>234.19999694824</ele>
        <time>2015-05-31T07:35:17Z</time>
      </trkpt>
      <trkpt lat="43.45363" lon="6.19093">
        <ele>234.80000305176</ele>
        <time>2015-05-31T07:35:24Z</time>
      </trkpt>
      <trkpt lat="43.45361" lon="6.19091">
        <ele>235.60000610352</ele>
        <time>2015-05-31T07:35:26Z</time>
      </trkpt>
      <trkpt lat="43.45357" lon="6.19086">
        <ele>236</ele>
        <time>2015-05-31T07:35:30Z</time>
      </trkpt>
      <trkpt lat="43.45353" lon="6.19082">
        <ele>236.60000610352</ele>
        <time>2015-05-31T07:35:33Z</time>
      </trkpt>
      <trkpt lat="43.4535" lon="6.19078">
        <ele>237.60000610352</ele>
        <time>2015-05-31T07:35:37Z</time>
      </trkpt>
      <trkpt lat="43.45347" lon="6.19076">
        <ele>238.39999389648</ele>
        <time>2015-05-31T07:35:40Z</time>
      </trkpt>
      <trkpt lat="43.45338" lon="6.1907">
        <ele>240</ele>
        <time>2015-05-31T07:35:48Z</time>
      </trkpt>
      <trkpt lat="43.45336" lon="6.19066">
        <ele>240.80000305176</ele>
        <time>2015-05-31T07:35:52Z</time>
      </trkpt>
      <trkpt lat="43.45334" lon="6.19062">
        <ele>241.19999694824</ele>
        <time>2015-05-31T07:35:55Z</time>
      </trkpt>
      <trkpt lat="43.45334" lon="6.19055">
        <ele>241.39999389648</ele>
        <time>2015-05-31T07:36:00Z</time>
      </trkpt>
      <trkpt lat="43.4533" lon="6.19049">
        <ele>242.19999694824</ele>
        <time>2015-05-31T07:36:05Z</time>
      </trkpt>
      <trkpt lat="43.45329" lon="6.19046">
        <ele>242.60000610352</ele>
        <time>2015-05-31T07:36:07Z</time>
      </trkpt>
      <trkpt lat="43.45329" lon="6.19042">
        <ele>243.19999694824</ele>
        <time>2015-05-31T07:36:10Z</time>
      </trkpt>
      <trkpt lat="43.45325" lon="6.19031">
        <ele>244</ele>
        <time>2015-05-31T07:36:17Z</time>
      </trkpt>
      <trkpt lat="43.45324" lon="6.19029">
        <ele>244.39999389648</ele>
        <time>2015-05-31T07:36:19Z</time>
      </trkpt>
      <trkpt lat="43.45323" lon="6.19019">
        <ele>245.19999694824</ele>
        <time>2015-05-31T07:36:25Z</time>
      </trkpt>
      <trkpt lat="43.45322" lon="6.19011">
        <ele>245.39999389648</ele>
        <time>2015-05-31T07:36:30Z</time>
      </trkpt>
      <trkpt lat="43.45322" lon="6.19009">
        <ele>245.39999389648</ele>
        <time>2015-05-31T07:36:32Z</time>
      </trkpt>
      <trkpt lat="43.45321" lon="6.19001">
        <ele>245.39999389648</ele>
        <time>2015-05-31T07:36:36Z</time>
      </trkpt>
      <trkpt lat="43.45318" lon="6.18995">
        <ele>245.60000610352</ele>
        <time>2015-05-31T07:36:38Z</time>
      </trkpt>
      <trkpt lat="43.45317" lon="6.18987">
        <ele>246</ele>
        <time>2015-05-31T07:36:41Z</time>
      </trkpt>
      <trkpt lat="43.45313" lon="6.18973">
        <ele>246.60000610352</ele>
        <time>2015-05-31T07:36:47Z</time>
      </trkpt>
      <trkpt lat="43.45312" lon="6.18969">
        <ele>247</ele>
        <time>2015-05-31T07:36:49Z</time>
      </trkpt>
      <trkpt lat="43.45312" lon="6.18965">
        <ele>247</ele>
        <time>2015-05-31T07:36:51Z</time>
      </trkpt>
      <trkpt lat="43.45311" lon="6.18956">
        <ele>247.60000610352</ele>
        <time>2015-05-31T07:36:55Z</time>
      </trkpt>
      <trkpt lat="43.4531" lon="6.18951">
        <ele>248</ele>
        <time>2015-05-31T07:36:57Z</time>
      </trkpt>
      <trkpt lat="43.45308" lon="6.1894">
        <ele>248</ele>
        <time>2015-05-31T07:37:01Z</time>
      </trkpt>
      <trkpt lat="43.45304" lon="6.18922">
        <ele>249</ele>
        <time>2015-05-31T07:37:08Z</time>
      </trkpt>
      <trkpt lat="43.45302" lon="6.18912">
        <ele>249.19999694824</ele>
        <time>2015-05-31T07:37:12Z</time>
      </trkpt>
      <trkpt lat="43.45299" lon="6.189">
        <ele>249.60000610352</ele>
        <time>2015-05-31T07:37:17Z</time>
      </trkpt>
      <trkpt lat="43.45298" lon="6.18883">
        <ele>249.80000305176</ele>
        <time>2015-05-31T07:37:22Z</time>
      </trkpt>
      <trkpt lat="43.45293" lon="6.18862">
        <ele>249.60000610352</ele>
        <time>2015-05-31T07:37:29Z</time>
      </trkpt>
      <trkpt lat="43.45287" lon="6.18844">
        <ele>250</ele>
        <time>2015-05-31T07:37:35Z</time>
      </trkpt>
      <trkpt lat="43.45285" lon="6.18838">
        <ele>250.19999694824</ele>
        <time>2015-05-31T07:37:37Z</time>
      </trkpt>
      <trkpt lat="43.4528" lon="6.18824">
        <ele>251.19999694824</ele>
        <time>2015-05-31T07:37:43Z</time>
      </trkpt>
      <trkpt lat="43.45277" lon="6.18818">
        <ele>252.19999694824</ele>
        <time>2015-05-31T07:37:46Z</time>
      </trkpt>
      <trkpt lat="43.45276" lon="6.18814">
        <ele>252.80000305176</ele>
        <time>2015-05-31T07:37:48Z</time>
      </trkpt>
      <trkpt lat="43.45276" lon="6.18806">
        <ele>253.19999694824</ele>
        <time>2015-05-31T07:37:52Z</time>
      </trkpt>
      <trkpt lat="43.45272" lon="6.18792">
        <ele>254</ele>
        <time>2015-05-31T07:37:58Z</time>
      </trkpt>
      <trkpt lat="43.45272" lon="6.18786">
        <ele>254.19999694824</ele>
        <time>2015-05-31T07:38:00Z</time>
      </trkpt>
      <trkpt lat="43.4527" lon="6.18778">
        <ele>254.60000610352</ele>
        <time>2015-05-31T07:38:03Z</time>
      </trkpt>
      <trkpt lat="43.4527" lon="6.18772">
        <ele>255.19999694824</ele>
        <time>2015-05-31T07:38:06Z</time>
      </trkpt>
      <trkpt lat="43.45268" lon="6.18769">
        <ele>255.19999694824</ele>
        <time>2015-05-31T07:38:08Z</time>
      </trkpt>
      <trkpt lat="43.45267" lon="6.18768">
        <ele>255.39999389648</ele>
        <time>2015-05-31T07:38:09Z</time>
      </trkpt>
      <trkpt lat="43.45263" lon="6.18761">
        <ele>255.80000305176</ele>
        <time>2015-05-31T07:38:12Z</time>
      </trkpt>
      <trkpt lat="43.45262" lon="6.18759">
        <ele>256</ele>
        <time>2015-05-31T07:38:13Z</time>
      </trkpt>
      <trkpt lat="43.45261" lon="6.18753">
        <ele>256</ele>
        <time>2015-05-31T07:38:15Z</time>
      </trkpt>
      <trkpt lat="43.45258" lon="6.18745">
        <ele>256.39999389648</ele>
        <time>2015-05-31T07:38:18Z</time>
      </trkpt>
      <trkpt lat="43.45255" lon="6.18739">
        <ele>256.20001220703</ele>
        <time>2015-05-31T07:38:20Z</time>
      </trkpt>
      <trkpt lat="43.45254" lon="6.18721">
        <ele>255.39999389648</ele>
        <time>2015-05-31T07:38:25Z</time>
      </trkpt>
      <trkpt lat="43.45252" lon="6.18715">
        <ele>255.19999694824</ele>
        <time>2015-05-31T07:38:26Z</time>
      </trkpt>
      <trkpt lat="43.4525" lon="6.18697">
        <ele>254.80000305176</ele>
        <time>2015-05-31T07:38:30Z</time>
      </trkpt>
      <trkpt lat="43.4525" lon="6.18693">
        <ele>254.80000305176</ele>
        <time>2015-05-31T07:38:31Z</time>
      </trkpt>
      <trkpt lat="43.4525" lon="6.18689">
        <ele>254.19999694824</ele>
        <time>2015-05-31T07:38:32Z</time>
      </trkpt>
      <trkpt lat="43.45248" lon="6.18672">
        <ele>253</ele>
        <time>2015-05-31T07:38:36Z</time>
      </trkpt>
      <trkpt lat="43.45247" lon="6.18666">
        <ele>253.19999694824</ele>
        <time>2015-05-31T07:38:37Z</time>
      </trkpt>
      <trkpt lat="43.45245" lon="6.18656">
        <ele>252.39999389648</ele>
        <time>2015-05-31T07:38:39Z</time>
      </trkpt>
      <trkpt lat="43.45244" lon="6.18652">
        <ele>252</ele>
        <time>2015-05-31T07:38:40Z</time>
      </trkpt>
      <trkpt lat="43.45245" lon="6.18648">
        <ele>252</ele>
        <time>2015-05-31T07:38:41Z</time>
      </trkpt>
      <trkpt lat="43.45246" lon="6.18638">
        <ele>251.39999389648</ele>
        <time>2015-05-31T07:38:43Z</time>
      </trkpt>
      <trkpt lat="43.45244" lon="6.18632">
        <ele>251.19999694824</ele>
        <time>2015-05-31T07:38:44Z</time>
      </trkpt>
      <trkpt lat="43.45242" lon="6.18614">
        <ele>249.80000305176</ele>
        <time>2015-05-31T07:38:47Z</time>
      </trkpt>
      <trkpt lat="43.4524" lon="6.18603">
        <ele>248.60000610352</ele>
        <time>2015-05-31T07:38:49Z</time>
      </trkpt>
      <trkpt lat="43.45243" lon="6.18591">
        <ele>248</ele>
        <time>2015-05-31T07:38:51Z</time>
      </trkpt>
      <trkpt lat="43.45242" lon="6.18585">
        <ele>247.19999694824</ele>
        <time>2015-05-31T07:38:52Z</time>
      </trkpt>
      <trkpt lat="43.45241" lon="6.18574">
        <ele>246.19999694824</ele>
        <time>2015-05-31T07:38:54Z</time>
      </trkpt>
      <trkpt lat="43.4524" lon="6.18568">
        <ele>245.60000610352</ele>
        <time>2015-05-31T07:38:55Z</time>
      </trkpt>
      <trkpt lat="43.4524" lon="6.18557">
        <ele>245</ele>
        <time>2015-05-31T07:38:57Z</time>
      </trkpt>
      <trkpt lat="43.45239" lon="6.18545">
        <ele>244</ele>
        <time>2015-05-31T07:38:59Z</time>
      </trkpt>
      <trkpt lat="43.45238" lon="6.18528">
        <ele>243.39999389648</ele>
        <time>2015-05-31T07:39:02Z</time>
      </trkpt>
      <trkpt lat="43.45236" lon="6.18522">
        <ele>243.39999389648</ele>
        <time>2015-05-31T07:39:03Z</time>
      </trkpt>
      <trkpt lat="43.45235" lon="6.18509">
        <ele>243</ele>
        <time>2015-05-31T07:39:05Z</time>
      </trkpt>
      <trkpt lat="43.45235" lon="6.18503">
        <ele>242.80000305176</ele>
        <time>2015-05-31T07:39:06Z</time>
      </trkpt>
      <trkpt lat="43.45233" lon="6.18481">
        <ele>241.80000305176</ele>
        <time>2015-05-31T07:39:10Z</time>
      </trkpt>
      <trkpt lat="43.45232" lon="6.18477">
        <ele>241.80000305176</ele>
        <time>2015-05-31T07:39:11Z</time>
      </trkpt>
      <trkpt lat="43.45228" lon="6.18463">
        <ele>241.19999694824</ele>
        <time>2015-05-31T07:39:14Z</time>
      </trkpt>
      <trkpt lat="43.45228" lon="6.18445">
        <ele>241</ele>
        <time>2015-05-31T07:39:18Z</time>
      </trkpt>
      <trkpt lat="43.45226" lon="6.18426">
        <ele>240.80000305176</ele>
        <time>2015-05-31T07:39:23Z</time>
      </trkpt>
      <trkpt lat="43.45228" lon="6.18424">
        <ele>240.60000610352</ele>
        <time>2015-05-31T07:39:24Z</time>
      </trkpt>
      <trkpt lat="43.4523" lon="6.18419">
        <ele>239.39999389648</ele>
        <time>2015-05-31T07:39:26Z</time>
      </trkpt>
      <trkpt lat="43.4523" lon="6.18416">
        <ele>238.80000305176</ele>
        <time>2015-05-31T07:39:27Z</time>
      </trkpt>
      <trkpt lat="43.45232" lon="6.18413">
        <ele>238.19999694824</ele>
        <time>2015-05-31T07:39:28Z</time>
      </trkpt>
      <trkpt lat="43.45233" lon="6.18406">
        <ele>237</ele>
        <time>2015-05-31T07:39:30Z</time>
      </trkpt>
      <trkpt lat="43.45232" lon="6.18404">
        <ele>236.80000305176</ele>
        <time>2015-05-31T07:39:31Z</time>
      </trkpt>
      <trkpt lat="43.45227" lon="6.184">
        <ele>236.39999389648</ele>
        <time>2015-05-31T07:39:34Z</time>
      </trkpt>
      <trkpt lat="43.45226" lon="6.18399">
        <ele>236.60000610352</ele>
        <time>2015-05-31T07:39:35Z</time>
      </trkpt>
      <trkpt lat="43.45226" lon="6.18399">
        <ele>236.39999389648</ele>
        <time>2015-05-31T07:39:36Z</time>
      </trkpt>
      <trkpt lat="43.45219" lon="6.18396">
        <ele>237.80000305176</ele>
        <time>2015-05-31T07:39:45Z</time>
      </trkpt>
      <trkpt lat="43.45219" lon="6.18396">
        <ele>238</ele>
        <time>2015-05-31T07:39:47Z</time>
      </trkpt>
      <trkpt lat="43.45218" lon="6.18396">
        <ele>238.19999694824</ele>
        <time>2015-05-31T07:39:51Z</time>
      </trkpt>
      <trkpt lat="43.45213" lon="6.18396">
        <ele>238</ele>
        <time>2015-05-31T07:39:55Z</time>
      </trkpt>
      <trkpt lat="43.4521" lon="6.18397">
        <ele>238.60000610352</ele>
        <time>2015-05-31T07:39:57Z</time>
      </trkpt>
      <trkpt lat="43.45206" lon="6.18398">
        <ele>238.80000305176</ele>
        <time>2015-05-31T07:40:00Z</time>
      </trkpt>
      <trkpt lat="43.45205" lon="6.18398">
        <ele>239.19999694824</ele>
        <time>2015-05-31T07:40:01Z</time>
      </trkpt>
      <trkpt lat="43.45203" lon="6.18397">
        <ele>239.39999389648</ele>
        <time>2015-05-31T07:40:02Z</time>
      </trkpt>
      <trkpt lat="43.45203" lon="6.18396">
        <ele>239.60000610352</ele>
        <time>2015-05-31T07:40:03Z</time>
      </trkpt>
      <trkpt lat="43.45197" lon="6.18396">
        <ele>239.80000305176</ele>
        <time>2015-05-31T07:40:06Z</time>
      </trkpt>
      <trkpt lat="43.45194" lon="6.18396">
        <ele>240</ele>
        <time>2015-05-31T07:40:08Z</time>
      </trkpt>
      <trkpt lat="43.45193" lon="6.18396">
        <ele>240.19999694824</ele>
        <time>2015-05-31T07:40:09Z</time>
      </trkpt>
      <trkpt lat="43.45188" lon="6.18397">
        <ele>241</ele>
        <time>2015-05-31T07:40:12Z</time>
      </trkpt>
      <trkpt lat="43.45185" lon="6.184">
        <ele>241.39999389648</ele>
        <time>2015-05-31T07:40:14Z</time>
      </trkpt>
      <trkpt lat="43.45184" lon="6.18399">
        <ele>241.60000610352</ele>
        <time>2015-05-31T07:40:15Z</time>
      </trkpt>
      <trkpt lat="43.45183" lon="6.18398">
        <ele>241.60000610352</ele>
        <time>2015-05-31T07:40:18Z</time>
      </trkpt>
      <trkpt lat="43.45176" lon="6.18393">
        <ele>242.39999389648</ele>
        <time>2015-05-31T07:40:24Z</time>
      </trkpt>
      <trkpt lat="43.45174" lon="6.18391">
        <ele>242.60000610352</ele>
        <time>2015-05-31T07:40:26Z</time>
      </trkpt>
      <trkpt lat="43.45173" lon="6.18392">
        <ele>242.60000610352</ele>
        <time>2015-05-31T07:40:29Z</time>
      </trkpt>
      <trkpt lat="43.45169" lon="6.18389">
        <ele>243.60000610352</ele>
        <time>2015-05-31T07:40:36Z</time>
      </trkpt>
      <trkpt lat="43.45167" lon="6.18388">
        <ele>244.19999694824</ele>
        <time>2015-05-31T07:40:41Z</time>
      </trkpt>
      <trkpt lat="43.45165" lon="6.18387">
        <ele>244.19999694824</ele>
        <time>2015-05-31T07:40:43Z</time>
      </trkpt>
      <trkpt lat="43.45164" lon="6.18385">
        <ele>244.60000610352</ele>
        <time>2015-05-31T07:40:47Z</time>
      </trkpt>
      <trkpt lat="43.45163" lon="6.18386">
        <ele>244.80000305176</ele>
        <time>2015-05-31T07:40:51Z</time>
      </trkpt>
      <trkpt lat="43.45161" lon="6.18384">
        <ele>246</ele>
        <time>2015-05-31T07:40:59Z</time>
      </trkpt>
      <trkpt lat="43.45158" lon="6.1838">
        <ele>247</ele>
        <time>2015-05-31T07:41:07Z</time>
      </trkpt>
      <trkpt lat="43.45158" lon="6.18379">
        <ele>247.39999389648</ele>
        <time>2015-05-31T07:41:09Z</time>
      </trkpt>
      <trkpt lat="43.45157" lon="6.18375">
        <ele>248.19999694824</ele>
        <time>2015-05-31T07:41:16Z</time>
      </trkpt>
      <trkpt lat="43.45159" lon="6.18368">
        <ele>249.19999694824</ele>
        <time>2015-05-31T07:41:24Z</time>
      </trkpt>
      <trkpt lat="43.4516" lon="6.18363">
        <ele>250.19999694824</ele>
        <time>2015-05-31T07:41:29Z</time>
      </trkpt>
      <trkpt lat="43.45159" lon="6.18359">
        <ele>251.19999694824</ele>
        <time>2015-05-31T07:41:34Z</time>
      </trkpt>
      <trkpt lat="43.45157" lon="6.18355">
        <ele>252.60000610352</ele>
        <time>2015-05-31T07:41:42Z</time>
      </trkpt>
      <trkpt lat="43.45152" lon="6.18351">
        <ele>253.80000305176</ele>
        <time>2015-05-31T07:41:51Z</time>
      </trkpt>
      <trkpt lat="43.45152" lon="6.18351">
        <ele>254</ele>
        <time>2015-05-31T07:41:52Z</time>
      </trkpt>
      <trkpt lat="43.4515" lon="6.1835">
        <ele>255</ele>
        <time>2015-05-31T07:41:58Z</time>
      </trkpt>
      <trkpt lat="43.45149" lon="6.18349">
        <ele>255</ele>
        <time>2015-05-31T07:42:01Z</time>
      </trkpt>
      <trkpt lat="43.45145" lon="6.18344">
        <ele>256.20001220703</ele>
        <time>2015-05-31T07:42:08Z</time>
      </trkpt>
      <trkpt lat="43.45144" lon="6.18343">
        <ele>256.20001220703</ele>
        <time>2015-05-31T07:42:10Z</time>
      </trkpt>
      <trkpt lat="43.45144" lon="6.18342">
        <ele>256.39999389648</ele>
        <time>2015-05-31T07:42:15Z</time>
      </trkpt>
      <trkpt lat="43.45144" lon="6.18342">
        <ele>256.39999389648</ele>
        <time>2015-05-31T07:42:17Z</time>
      </trkpt>
      <trkpt lat="43.45144" lon="6.18342">
        <ele>256.60000610352</ele>
        <time>2015-05-31T07:42:25Z</time>
      </trkpt>
      <trkpt lat="43.45144" lon="6.18342">
        <ele>256.39999389648</ele>
        <time>2015-05-31T07:42:41Z</time>
      </trkpt>
      <trkpt lat="43.45144" lon="6.18341">
        <ele>256.39999389648</ele>
        <time>2015-05-31T07:42:48Z</time>
      </trkpt>
      <trkpt lat="43.45144" lon="6.18341">
        <ele>256.39999389648</ele>
        <time>2015-05-31T07:42:55Z</time>
      </trkpt>
      <trkpt lat="43.45137" lon="6.18337">
        <ele>256.60000610352</ele>
        <time>2015-05-31T07:43:00Z</time>
      </trkpt>
      <trkpt lat="43.45134" lon="6.18331">
        <ele>256.60000610352</ele>
        <time>2015-05-31T07:43:05Z</time>
      </trkpt>
      <trkpt lat="43.45133" lon="6.18321">
        <ele>257</ele>
        <time>2015-05-31T07:43:09Z</time>
      </trkpt>
      <trkpt lat="43.45134" lon="6.18319">
        <ele>257.20001220703</ele>
        <time>2015-05-31T07:43:10Z</time>
      </trkpt>
      <trkpt lat="43.45136" lon="6.18314">
        <ele>256.79998779297</ele>
        <time>2015-05-31T07:43:12Z</time>
      </trkpt>
      <trkpt lat="43.45139" lon="6.18305">
        <ele>256.20001220703</ele>
        <time>2015-05-31T07:43:14Z</time>
      </trkpt>
      <trkpt lat="43.4515" lon="6.18288">
        <ele>255</ele>
        <time>2015-05-31T07:43:18Z</time>
      </trkpt>
      <trkpt lat="43.45152" lon="6.18283">
        <ele>254.60000610352</ele>
        <time>2015-05-31T07:43:19Z</time>
      </trkpt>
      <trkpt lat="43.45157" lon="6.18275">
        <ele>253.39999389648</ele>
        <time>2015-05-31T07:43:21Z</time>
      </trkpt>
      <trkpt lat="43.45162" lon="6.18266">
        <ele>253</ele>
        <time>2015-05-31T07:43:24Z</time>
      </trkpt>
      <trkpt lat="43.45169" lon="6.18259">
        <ele>252.19999694824</ele>
        <time>2015-05-31T07:43:27Z</time>
      </trkpt>
      <trkpt lat="43.45171" lon="6.18255">
        <ele>252</ele>
        <time>2015-05-31T07:43:29Z</time>
      </trkpt>
      <trkpt lat="43.45171" lon="6.18252">
        <ele>251.80000305176</ele>
        <time>2015-05-31T07:43:30Z</time>
      </trkpt>
      <trkpt lat="43.45173" lon="6.18247">
        <ele>251.39999389648</ele>
        <time>2015-05-31T07:43:33Z</time>
      </trkpt>
      <trkpt lat="43.45174" lon="6.18246">
        <ele>251</ele>
        <time>2015-05-31T07:43:34Z</time>
      </trkpt>
      <trkpt lat="43.45174" lon="6.18242">
        <ele>250.60000610352</ele>
        <time>2015-05-31T07:43:36Z</time>
      </trkpt>
      <trkpt lat="43.45173" lon="6.18241">
        <ele>250.60000610352</ele>
        <time>2015-05-31T07:43:38Z</time>
      </trkpt>
      <trkpt lat="43.45169" lon="6.18238">
        <ele>249.80000305176</ele>
        <time>2015-05-31T07:43:41Z</time>
      </trkpt>
      <trkpt lat="43.45166" lon="6.18233">
        <ele>249</ele>
        <time>2015-05-31T07:43:43Z</time>
      </trkpt>
      <trkpt lat="43.45166" lon="6.1823">
        <ele>248</ele>
        <time>2015-05-31T07:43:44Z</time>
      </trkpt>
      <trkpt lat="43.4517" lon="6.18217">
        <ele>247.60000610352</ele>
        <time>2015-05-31T07:43:47Z</time>
      </trkpt>
      <trkpt lat="43.45179" lon="6.18206">
        <ele>247.39999389648</ele>
        <time>2015-05-31T07:43:50Z</time>
      </trkpt>
      <trkpt lat="43.45182" lon="6.18205">
        <ele>247</ele>
        <time>2015-05-31T07:43:51Z</time>
      </trkpt>
      <trkpt lat="43.45184" lon="6.18203">
        <ele>246.80000305176</ele>
        <time>2015-05-31T07:43:52Z</time>
      </trkpt>
      <trkpt lat="43.45189" lon="6.18192">
        <ele>245.60000610352</ele>
        <time>2015-05-31T07:43:56Z</time>
      </trkpt>
      <trkpt lat="43.45187" lon="6.18188">
        <ele>244.60000610352</ele>
        <time>2015-05-31T07:43:58Z</time>
      </trkpt>
      <trkpt lat="43.45185" lon="6.18181">
        <ele>243</ele>
        <time>2015-05-31T07:44:01Z</time>
      </trkpt>
      <trkpt lat="43.45184" lon="6.18179">
        <ele>242.39999389648</ele>
        <time>2015-05-31T07:44:02Z</time>
      </trkpt>
      <trkpt lat="43.45183" lon="6.18176">
        <ele>242</ele>
        <time>2015-05-31T07:44:03Z</time>
      </trkpt>
      <trkpt lat="43.45178" lon="6.18166">
        <ele>241.19999694824</ele>
        <time>2015-05-31T07:44:06Z</time>
      </trkpt>
      <trkpt lat="43.45176" lon="6.18165">
        <ele>241</ele>
        <time>2015-05-31T07:44:07Z</time>
      </trkpt>
      <trkpt lat="43.45173" lon="6.18165">
        <ele>240.80000305176</ele>
        <time>2015-05-31T07:44:08Z</time>
      </trkpt>
      <trkpt lat="43.45169" lon="6.18162">
        <ele>240.39999389648</ele>
        <time>2015-05-31T07:44:10Z</time>
      </trkpt>
      <trkpt lat="43.45164" lon="6.18157">
        <ele>239.19999694824</ele>
        <time>2015-05-31T07:44:12Z</time>
      </trkpt>
      <trkpt lat="43.45161" lon="6.18153">
        <ele>238.19999694824</ele>
        <time>2015-05-31T07:44:14Z</time>
      </trkpt>
      <trkpt lat="43.4516" lon="6.18153">
        <ele>238</ele>
        <time>2015-05-31T07:44:15Z</time>
      </trkpt>
      <trkpt lat="43.45157" lon="6.1815">
        <ele>237.80000305176</ele>
        <time>2015-05-31T07:44:22Z</time>
      </trkpt>
      <trkpt lat="43.45156" lon="6.18149">
        <ele>237.60000610352</ele>
        <time>2015-05-31T07:44:31Z</time>
      </trkpt>
      <trkpt lat="43.45156" lon="6.18149">
        <ele>237.19999694824</ele>
        <time>2015-05-31T07:44:34Z</time>
      </trkpt>
      <trkpt lat="43.45155" lon="6.18148">
        <ele>236.39999389648</ele>
        <time>2015-05-31T07:44:41Z</time>
      </trkpt>
      <trkpt lat="43.4515" lon="6.18145">
        <ele>235.80000305176</ele>
        <time>2015-05-31T07:44:49Z</time>
      </trkpt>
      <trkpt lat="43.45148" lon="6.18141">
        <ele>235.39999389648</ele>
        <time>2015-05-31T07:44:51Z</time>
      </trkpt>
      <trkpt lat="43.45148" lon="6.18138">
        <ele>235.19999694824</ele>
        <time>2015-05-31T07:44:52Z</time>
      </trkpt>
      <trkpt lat="43.45148" lon="6.18135">
        <ele>234.39999389648</ele>
        <time>2015-05-31T07:44:54Z</time>
      </trkpt>
      <trkpt lat="43.45148" lon="6.18134">
        <ele>234</ele>
        <time>2015-05-31T07:44:55Z</time>
      </trkpt>
      <trkpt lat="43.45146" lon="6.18126">
        <ele>233.80000305176</ele>
        <time>2015-05-31T07:45:02Z</time>
      </trkpt>
      <trkpt lat="43.45144" lon="6.18122">
        <ele>233.60000610352</ele>
        <time>2015-05-31T07:45:08Z</time>
      </trkpt>
      <trkpt lat="43.45143" lon="6.18121">
        <ele>233.39999389648</ele>
        <time>2015-05-31T07:45:18Z</time>
      </trkpt>
      <trkpt lat="43.4514" lon="6.1812">
        <ele>232.80000305176</ele>
        <time>2015-05-31T07:45:24Z</time>
      </trkpt>
      <trkpt lat="43.45138" lon="6.18121">
        <ele>232</ele>
        <time>2015-05-31T07:45:26Z</time>
      </trkpt>
      <trkpt lat="43.45137" lon="6.18121">
        <ele>231.60000610352</ele>
        <time>2015-05-31T07:45:27Z</time>
      </trkpt>
      <trkpt lat="43.45136" lon="6.18121">
        <ele>230.60000610352</ele>
        <time>2015-05-31T07:45:34Z</time>
      </trkpt>
      <trkpt lat="43.45135" lon="6.18122">
        <ele>230.80000305176</ele>
        <time>2015-05-31T07:45:44Z</time>
      </trkpt>
      <trkpt lat="43.45133" lon="6.18121">
        <ele>229.60000610352</ele>
        <time>2015-05-31T07:45:52Z</time>
      </trkpt>
      <trkpt lat="43.45132" lon="6.18122">
        <ele>228.60000610352</ele>
        <time>2015-05-31T07:45:55Z</time>
      </trkpt>
      <trkpt lat="43.45131" lon="6.18123">
        <ele>228.60000610352</ele>
        <time>2015-05-31T07:45:56Z</time>
      </trkpt>
      <trkpt lat="43.45128" lon="6.18124">
        <ele>227.39999389648</ele>
        <time>2015-05-31T07:46:01Z</time>
      </trkpt>
      <trkpt lat="43.45127" lon="6.18124">
        <ele>227.19999694824</ele>
        <time>2015-05-31T07:46:02Z</time>
      </trkpt>
      <trkpt lat="43.45126" lon="6.18124">
        <ele>226.19999694824</ele>
        <time>2015-05-31T07:46:06Z</time>
      </trkpt>
      <trkpt lat="43.45123" lon="6.18123">
        <ele>225.80000305176</ele>
        <time>2015-05-31T07:46:09Z</time>
      </trkpt>
      <trkpt lat="43.45122" lon="6.1812">
        <ele>225.19999694824</ele>
        <time>2015-05-31T07:46:11Z</time>
      </trkpt>
      <trkpt lat="43.45123" lon="6.18117">
        <ele>225</ele>
        <time>2015-05-31T07:46:12Z</time>
      </trkpt>
      <trkpt lat="43.45124" lon="6.18115">
        <ele>224.80000305176</ele>
        <time>2015-05-31T07:46:13Z</time>
      </trkpt>
      <trkpt lat="43.45126" lon="6.1811">
        <ele>225.19999694824</ele>
        <time>2015-05-31T07:46:15Z</time>
      </trkpt>
      <trkpt lat="43.45127" lon="6.18104">
        <ele>225.19999694824</ele>
        <time>2015-05-31T07:46:18Z</time>
      </trkpt>
      <trkpt lat="43.4513" lon="6.18089">
        <ele>224</ele>
        <time>2015-05-31T07:46:22Z</time>
      </trkpt>
      <trkpt lat="43.45132" lon="6.18086">
        <ele>223.80000305176</ele>
        <time>2015-05-31T07:46:23Z</time>
      </trkpt>
      <trkpt lat="43.45135" lon="6.18072">
        <ele>223.60000610352</ele>
        <time>2015-05-31T07:46:27Z</time>
      </trkpt>
      <trkpt lat="43.45137" lon="6.18069">
        <ele>223.19999694824</ele>
        <time>2015-05-31T07:46:29Z</time>
      </trkpt>
      <trkpt lat="43.45139" lon="6.18066">
        <ele>223</ele>
        <time>2015-05-31T07:46:31Z</time>
      </trkpt>
      <trkpt lat="43.45137" lon="6.18063">
        <ele>222.80000305176</ele>
        <time>2015-05-31T07:46:34Z</time>
      </trkpt>
      <trkpt lat="43.45136" lon="6.18062">
        <ele>222.80000305176</ele>
        <time>2015-05-31T07:46:36Z</time>
      </trkpt>
      <trkpt lat="43.45131" lon="6.18058">
        <ele>222.19999694824</ele>
        <time>2015-05-31T07:46:43Z</time>
      </trkpt>
      <trkpt lat="43.45126" lon="6.18055">
        <ele>221.19999694824</ele>
        <time>2015-05-31T07:46:45Z</time>
      </trkpt>
      <trkpt lat="43.4512" lon="6.18055">
        <ele>219.60000610352</ele>
        <time>2015-05-31T07:46:47Z</time>
      </trkpt>
      <trkpt lat="43.45118" lon="6.18055">
        <ele>219.39999389648</ele>
        <time>2015-05-31T07:46:48Z</time>
      </trkpt>
      <trkpt lat="43.45115" lon="6.18053">
        <ele>219</ele>
        <time>2015-05-31T07:46:50Z</time>
      </trkpt>
      <trkpt lat="43.45112" lon="6.18051">
        <ele>218.39999389648</ele>
        <time>2015-05-31T07:46:51Z</time>
      </trkpt>
      <trkpt lat="43.4511" lon="6.18048">
        <ele>217.60000610352</ele>
        <time>2015-05-31T07:46:52Z</time>
      </trkpt>
      <trkpt lat="43.45108" lon="6.18046">
        <ele>217</ele>
        <time>2015-05-31T07:46:53Z</time>
      </trkpt>
      <trkpt lat="43.45107" lon="6.18041">
        <ele>215.80000305176</ele>
        <time>2015-05-31T07:46:55Z</time>
      </trkpt>
      <trkpt lat="43.45103" lon="6.1803">
        <ele>214.80000305176</ele>
        <time>2015-05-31T07:46:57Z</time>
      </trkpt>
      <trkpt lat="43.45104" lon="6.18017">
        <ele>213.60000610352</ele>
        <time>2015-05-31T07:46:59Z</time>
      </trkpt>
      <trkpt lat="43.45109" lon="6.18007">
        <ele>212.80000305176</ele>
        <time>2015-05-31T07:47:01Z</time>
      </trkpt>
      <trkpt lat="43.45115" lon="6.17992">
        <ele>212.39999389648</ele>
        <time>2015-05-31T07:47:04Z</time>
      </trkpt>
      <trkpt lat="43.45115" lon="6.17981">
        <ele>212.19999694824</ele>
        <time>2015-05-31T07:47:06Z</time>
      </trkpt>
      <trkpt lat="43.45116" lon="6.17974">
        <ele>211.80000305176</ele>
        <time>2015-05-31T07:47:09Z</time>
      </trkpt>
      <trkpt lat="43.45116" lon="6.17973">
        <ele>211.80000305176</ele>
        <time>2015-05-31T07:47:10Z</time>
      </trkpt>
      <trkpt lat="43.45116" lon="6.17974">
        <ele>211.80000305176</ele>
        <time>2015-05-31T07:47:13Z</time>
      </trkpt>
      <trkpt lat="43.45115" lon="6.17974">
        <ele>211.60000610352</ele>
        <time>2015-05-31T07:47:22Z</time>
      </trkpt>
      <trkpt lat="43.45116" lon="6.17973">
        <ele>211.60000610352</ele>
        <time>2015-05-31T07:47:38Z</time>
      </trkpt>
      <trkpt lat="43.45116" lon="6.17973">
        <ele>211.39999389648</ele>
        <time>2015-05-31T07:47:46Z</time>
      </trkpt>
      <trkpt lat="43.45115" lon="6.17973">
        <ele>211.19999694824</ele>
        <time>2015-05-31T07:47:47Z</time>
      </trkpt>
      <trkpt lat="43.45115" lon="6.17972">
        <ele>211.19999694824</ele>
        <time>2015-05-31T07:48:07Z</time>
      </trkpt>
      <trkpt lat="43.45115" lon="6.17972">
        <ele>210.60000610352</ele>
        <time>2015-05-31T07:51:21Z</time>
      </trkpt>
      <trkpt lat="43.45115" lon="6.17972">
        <ele>210.39999389648</ele>
        <time>2015-05-31T07:51:42Z</time>
      </trkpt>
      <trkpt lat="43.45115" lon="6.17972">
        <ele>210.39999389648</ele>
        <time>2015-05-31T07:51:55Z</time>
      </trkpt>
      <trkpt lat="43.45115" lon="6.17972">
        <ele>210.39999389648</ele>
        <time>2015-05-31T07:51:58Z</time>
      </trkpt>
      <trkpt lat="43.45115" lon="6.17972">
        <ele>210.39999389648</ele>
        <time>2015-05-31T07:52:14Z</time>
      </trkpt>
      <trkpt lat="43.45114" lon="6.17972">
        <ele>210.60000610352</ele>
        <time>2015-05-31T07:52:26Z</time>
      </trkpt>
      <trkpt lat="43.45114" lon="6.17972">
        <ele>210.39999389648</ele>
        <time>2015-05-31T07:53:11Z</time>
      </trkpt>
      <trkpt lat="43.45114" lon="6.17972">
        <ele>210.19999694824</ele>
        <time>2015-05-31T07:53:19Z</time>
      </trkpt>
      <trkpt lat="43.45115" lon="6.17975">
        <ele>210.19999694824</ele>
        <time>2015-05-31T07:53:26Z</time>
      </trkpt>
      <trkpt lat="43.45114" lon="6.17976">
        <ele>209.80000305176</ele>
        <time>2015-05-31T07:53:34Z</time>
      </trkpt>
      <trkpt lat="43.45114" lon="6.17976">
        <ele>210</ele>
        <time>2015-05-31T07:53:50Z</time>
      </trkpt>
      <trkpt lat="43.45114" lon="6.17974">
        <ele>209.19999694824</ele>
        <time>2015-05-31T07:55:13Z</time>
      </trkpt>
      <trkpt lat="43.45114" lon="6.17974">
        <ele>208.80000305176</ele>
        <time>2015-05-31T07:55:16Z</time>
      </trkpt>
      <trkpt lat="43.45114" lon="6.17974">
        <ele>209</ele>
        <time>2015-05-31T07:55:32Z</time>
      </trkpt>
      <trkpt lat="43.45114" lon="6.17975">
        <ele>208.80000305176</ele>
        <time>2015-05-31T07:56:03Z</time>
      </trkpt>
      <trkpt lat="43.45114" lon="6.17975">
        <ele>209</ele>
        <time>2015-05-31T07:56:35Z</time>
      </trkpt>
      <trkpt lat="43.45114" lon="6.17975">
        <ele>208.60000610352</ele>
        <time>2015-05-31T07:57:36Z</time>
      </trkpt>
      <trkpt lat="43.45115" lon="6.17975">
        <ele>209</ele>
        <time>2015-05-31T07:57:47Z</time>
      </trkpt>
      <trkpt lat="43.45115" lon="6.17975">
        <ele>208.80000305176</ele>
        <time>2015-05-31T07:58:05Z</time>
      </trkpt>
      <trkpt lat="43.45115" lon="6.17975">
        <ele>208.60000610352</ele>
        <time>2015-05-31T07:58:12Z</time>
      </trkpt>
      <trkpt lat="43.45115" lon="6.17974">
        <ele>208.60000610352</ele>
        <time>2015-05-31T07:58:31Z</time>
      </trkpt>
      <trkpt lat="43.45115" lon="6.17974">
        <ele>208.80000305176</ele>
        <time>2015-05-31T07:58:41Z</time>
      </trkpt>
      <trkpt lat="43.45115" lon="6.17974">
        <ele>208.39999389648</ele>
        <time>2015-05-31T08:00:46Z</time>
      </trkpt>
      <trkpt lat="43.45115" lon="6.17974">
        <ele>208.80000305176</ele>
        <time>2015-05-31T08:01:05Z</time>
      </trkpt>
      <trkpt lat="43.45115" lon="6.17974">
        <ele>208.60000610352</ele>
        <time>2015-05-31T08:01:17Z</time>
      </trkpt>
      <trkpt lat="43.45115" lon="6.17974">
        <ele>209</ele>
        <time>2015-05-31T08:01:19Z</time>
      </trkpt>
      <trkpt lat="43.45115" lon="6.17976">
        <ele>209</ele>
        <time>2015-05-31T08:01:25Z</time>
      </trkpt>
      <trkpt lat="43.45116" lon="6.17979">
        <ele>209</ele>
        <time>2015-05-31T08:01:34Z</time>
      </trkpt>
      <trkpt lat="43.45116" lon="6.17979">
        <ele>209</ele>
        <time>2015-05-31T08:01:44Z</time>
      </trkpt>
      <trkpt lat="43.45116" lon="6.17979">
        <ele>209</ele>
        <time>2015-05-31T08:01:56Z</time>
      </trkpt>
      <trkpt lat="43.45116" lon="6.17979">
        <ele>209</ele>
        <time>2015-05-31T08:02:01Z</time>
      </trkpt>
      <trkpt lat="43.45115" lon="6.17981">
        <ele>209</ele>
        <time>2015-05-31T08:02:05Z</time>
      </trkpt>
      <trkpt lat="43.45115" lon="6.17984">
        <ele>209.19999694824</ele>
        <time>2015-05-31T08:02:08Z</time>
      </trkpt>
      <trkpt lat="43.45113" lon="6.17996">
        <ele>209.60000610352</ele>
        <time>2015-05-31T08:02:14Z</time>
      </trkpt>
      <trkpt lat="43.4511" lon="6.18004">
        <ele>209.80000305176</ele>
        <time>2015-05-31T08:02:20Z</time>
      </trkpt>
      <trkpt lat="43.45108" lon="6.18009">
        <ele>209.60000610352</ele>
        <time>2015-05-31T08:02:24Z</time>
      </trkpt>
      <trkpt lat="43.45106" lon="6.18012">
        <ele>209.60000610352</ele>
        <time>2015-05-31T08:02:26Z</time>
      </trkpt>
      <trkpt lat="43.45105" lon="6.18016">
        <ele>209.80000305176</ele>
        <time>2015-05-31T08:02:30Z</time>
      </trkpt>
      <trkpt lat="43.45103" lon="6.18019">
        <ele>210</ele>
        <time>2015-05-31T08:02:33Z</time>
      </trkpt>
      <trkpt lat="43.45098" lon="6.18023">
        <ele>209.80000305176</ele>
        <time>2015-05-31T08:02:38Z</time>
      </trkpt>
      <trkpt lat="43.451" lon="6.18026">
        <ele>210.19999694824</ele>
        <time>2015-05-31T08:02:40Z</time>
      </trkpt>
      <trkpt lat="43.45102" lon="6.18021">
        <ele>210</ele>
        <time>2015-05-31T08:02:43Z</time>
      </trkpt>
      <trkpt lat="43.45102" lon="6.18018">
        <ele>210</ele>
        <time>2015-05-31T08:02:45Z</time>
      </trkpt>
      <trkpt lat="43.45102" lon="6.18006">
        <ele>209.80000305176</ele>
        <time>2015-05-31T08:02:49Z</time>
      </trkpt>
      <trkpt lat="43.45106" lon="6.17998">
        <ele>209</ele>
        <time>2015-05-31T08:02:52Z</time>
      </trkpt>
      <trkpt lat="43.45112" lon="6.17994">
        <ele>209.39999389648</ele>
        <time>2015-05-31T08:02:57Z</time>
      </trkpt>
      <trkpt lat="43.45115" lon="6.17988">
        <ele>209.39999389648</ele>
        <time>2015-05-31T08:03:01Z</time>
      </trkpt>
      <trkpt lat="43.45116" lon="6.17985">
        <ele>209.39999389648</ele>
        <time>2015-05-31T08:03:06Z</time>
      </trkpt>
      <trkpt lat="43.45116" lon="6.17985">
        <ele>209.39999389648</ele>
        <time>2015-05-31T08:03:12Z</time>
      </trkpt>
      <trkpt lat="43.45116" lon="6.17985">
        <ele>209.19999694824</ele>
        <time>2015-05-31T08:03:17Z</time>
      </trkpt>
      <trkpt lat="43.45116" lon="6.17984">
        <ele>209</ele>
        <time>2015-05-31T08:03:45Z</time>
      </trkpt>
      <trkpt lat="43.45116" lon="6.17984">
        <ele>209</ele>
        <time>2015-05-31T08:03:57Z</time>
      </trkpt>
      <trkpt lat="43.45116" lon="6.17983">
        <ele>209</ele>
        <time>2015-05-31T08:04:20Z</time>
      </trkpt>
      <trkpt lat="43.45116" lon="6.17983">
        <ele>209.19999694824</ele>
        <time>2015-05-31T08:04:48Z</time>
      </trkpt>
      <trkpt lat="43.45116" lon="6.17984">
        <ele>209.19999694824</ele>
        <time>2015-05-31T08:05:04Z</time>
      </trkpt>
      <trkpt lat="43.45116" lon="6.17983">
        <ele>209.39999389648</ele>
        <time>2015-05-31T08:05:16Z</time>
      </trkpt>
      <trkpt lat="43.45116" lon="6.17983">
        <ele>209.19999694824</ele>
        <time>2015-05-31T08:05:27Z</time>
      </trkpt>
      <trkpt lat="43.45116" lon="6.17983">
        <ele>209.39999389648</ele>
        <time>2015-05-31T08:05:55Z</time>
      </trkpt>
      <trkpt lat="43.45114" lon="6.17986">
        <ele>209.19999694824</ele>
        <time>2015-05-31T08:06:28Z</time>
      </trkpt>
      <trkpt lat="43.45115" lon="6.17988">
        <ele>209.19999694824</ele>
        <time>2015-05-31T08:06:29Z</time>
      </trkpt>
      <trkpt lat="43.45113" lon="6.17996">
        <ele>209.39999389648</ele>
        <time>2015-05-31T08:06:32Z</time>
      </trkpt>
      <trkpt lat="43.45108" lon="6.18011">
        <ele>210</ele>
        <time>2015-05-31T08:06:38Z</time>
      </trkpt>
      <trkpt lat="43.45101" lon="6.18028">
        <ele>210.19999694824</ele>
        <time>2015-05-31T08:06:43Z</time>
      </trkpt>
      <trkpt lat="43.45099" lon="6.18033">
        <ele>210</ele>
        <time>2015-05-31T08:06:44Z</time>
      </trkpt>
      <trkpt lat="43.45095" lon="6.18047">
        <ele>210.19999694824</ele>
        <time>2015-05-31T08:06:47Z</time>
      </trkpt>
      <trkpt lat="43.45091" lon="6.18061">
        <ele>210.60000610352</ele>
        <time>2015-05-31T08:06:50Z</time>
      </trkpt>
      <trkpt lat="43.45089" lon="6.1807">
        <ele>211.39999389648</ele>
        <time>2015-05-31T08:06:52Z</time>
      </trkpt>
      <trkpt lat="43.45084" lon="6.18085">
        <ele>211.19999694824</ele>
        <time>2015-05-31T08:06:55Z</time>
      </trkpt>
      <trkpt lat="43.45081" lon="6.18095">
        <ele>211.80000305176</ele>
        <time>2015-05-31T08:06:57Z</time>
      </trkpt>
      <trkpt lat="43.45076" lon="6.1811">
        <ele>212.19999694824</ele>
        <time>2015-05-31T08:07:00Z</time>
      </trkpt>
      <trkpt lat="43.45073" lon="6.18116">
        <ele>212.19999694824</ele>
        <time>2015-05-31T08:07:01Z</time>
      </trkpt>
      <trkpt lat="43.45064" lon="6.1814">
        <ele>213.19999694824</ele>
        <time>2015-05-31T08:07:06Z</time>
      </trkpt>
      <trkpt lat="43.45049" lon="6.18184">
        <ele>214.39999389648</ele>
        <time>2015-05-31T08:07:16Z</time>
      </trkpt>
      <trkpt lat="43.45042" lon="6.182">
        <ele>215</ele>
        <time>2015-05-31T08:07:20Z</time>
      </trkpt>
      <trkpt lat="43.45038" lon="6.18212">
        <ele>215.60000610352</ele>
        <time>2015-05-31T08:07:23Z</time>
      </trkpt>
      <trkpt lat="43.45034" lon="6.18221">
        <ele>216.19999694824</ele>
        <time>2015-05-31T08:07:26Z</time>
      </trkpt>
      <trkpt lat="43.45028" lon="6.18237">
        <ele>217.19999694824</ele>
        <time>2015-05-31T08:07:31Z</time>
      </trkpt>
      <trkpt lat="43.45025" lon="6.18261">
        <ele>218.39999389648</ele>
        <time>2015-05-31T08:07:38Z</time>
      </trkpt>
      <trkpt lat="43.45025" lon="6.18274">
        <ele>219.19999694824</ele>
        <time>2015-05-31T08:07:42Z</time>
      </trkpt>
      <trkpt lat="43.45024" lon="6.18283">
        <ele>219.80000305176</ele>
        <time>2015-05-31T08:07:45Z</time>
      </trkpt>
      <trkpt lat="43.45023" lon="6.18289">
        <ele>220.19999694824</ele>
        <time>2015-05-31T08:07:47Z</time>
      </trkpt>
      <trkpt lat="43.45021" lon="6.18308">
        <ele>221.39999389648</ele>
        <time>2015-05-31T08:07:53Z</time>
      </trkpt>
      <trkpt lat="43.45013" lon="6.18337">
        <ele>222.39999389648</ele>
        <time>2015-05-31T08:08:03Z</time>
      </trkpt>
      <trkpt lat="43.44992" lon="6.18386">
        <ele>224.19999694824</ele>
        <time>2015-05-31T08:08:19Z</time>
      </trkpt>
      <trkpt lat="43.44989" lon="6.18399">
        <ele>224.39999389648</ele>
        <time>2015-05-31T08:08:23Z</time>
      </trkpt>
      <trkpt lat="43.44979" lon="6.18461">
        <ele>227.39999389648</ele>
        <time>2015-05-31T08:08:42Z</time>
      </trkpt>
      <trkpt lat="43.44978" lon="6.18467">
        <ele>227.60000610352</ele>
        <time>2015-05-31T08:08:44Z</time>
      </trkpt>
      <trkpt lat="43.44976" lon="6.18483">
        <ele>228.60000610352</ele>
        <time>2015-05-31T08:08:49Z</time>
      </trkpt>
      <trkpt lat="43.44975" lon="6.18489">
        <ele>229.39999389648</ele>
        <time>2015-05-31T08:08:51Z</time>
      </trkpt>
      <trkpt lat="43.44975" lon="6.18494">
        <ele>229.80000305176</ele>
        <time>2015-05-31T08:08:53Z</time>
      </trkpt>
      <trkpt lat="43.44973" lon="6.18505">
        <ele>230.19999694824</ele>
        <time>2015-05-31T08:08:57Z</time>
      </trkpt>
      <trkpt lat="43.44971" lon="6.18527">
        <ele>230.60000610352</ele>
        <time>2015-05-31T08:09:04Z</time>
      </trkpt>
      <trkpt lat="43.44971" lon="6.1853">
        <ele>231</ele>
        <time>2015-05-31T08:09:05Z</time>
      </trkpt>
      <trkpt lat="43.4497" lon="6.1855">
        <ele>231.39999389648</ele>
        <time>2015-05-31T08:09:11Z</time>
      </trkpt>
      <trkpt lat="43.44969" lon="6.18566">
        <ele>232</ele>
        <time>2015-05-31T08:09:16Z</time>
      </trkpt>
      <trkpt lat="43.44968" lon="6.1857">
        <ele>232</ele>
        <time>2015-05-31T08:09:17Z</time>
      </trkpt>
      <trkpt lat="43.4497" lon="6.18602">
        <ele>232</ele>
        <time>2015-05-31T08:09:25Z</time>
      </trkpt>
      <trkpt lat="43.44973" lon="6.18624">
        <ele>230.60000610352</ele>
        <time>2015-05-31T08:09:28Z</time>
      </trkpt>
      <trkpt lat="43.44974" lon="6.18634">
        <ele>229.80000305176</ele>
        <time>2015-05-31T08:09:29Z</time>
      </trkpt>
      <trkpt lat="43.44974" lon="6.18643">
        <ele>229.19999694824</ele>
        <time>2015-05-31T08:09:30Z</time>
      </trkpt>
      <trkpt lat="43.44977" lon="6.18661">
        <ele>228.60000610352</ele>
        <time>2015-05-31T08:09:32Z</time>
      </trkpt>
      <trkpt lat="43.44981" lon="6.18667">
        <ele>228.39999389648</ele>
        <time>2015-05-31T08:09:33Z</time>
      </trkpt>
      <trkpt lat="43.44989" lon="6.18682">
        <ele>229</ele>
        <time>2015-05-31T08:09:36Z</time>
      </trkpt>
      <trkpt lat="43.44989" lon="6.18687">
        <ele>228.80000305176</ele>
        <time>2015-05-31T08:09:37Z</time>
      </trkpt>
      <trkpt lat="43.44986" lon="6.18701">
        <ele>229.80000305176</ele>
        <time>2015-05-31T08:09:41Z</time>
      </trkpt>
      <trkpt lat="43.44986" lon="6.18704">
        <ele>230.19999694824</ele>
        <time>2015-05-31T08:09:42Z</time>
      </trkpt>
      <trkpt lat="43.44983" lon="6.18724">
        <ele>231</ele>
        <time>2015-05-31T08:09:48Z</time>
      </trkpt>
      <trkpt lat="43.44983" lon="6.18728">
        <ele>231.19999694824</ele>
        <time>2015-05-31T08:09:49Z</time>
      </trkpt>
      <trkpt lat="43.44984" lon="6.1874">
        <ele>232.19999694824</ele>
        <time>2015-05-31T08:09:53Z</time>
      </trkpt>
      <trkpt lat="43.44987" lon="6.18745">
        <ele>232.39999389648</ele>
        <time>2015-05-31T08:09:55Z</time>
      </trkpt>
      <trkpt lat="43.44999" lon="6.18752">
        <ele>234.19999694824</ele>
        <time>2015-05-31T08:10:00Z</time>
      </trkpt>
      <trkpt lat="43.45002" lon="6.18752">
        <ele>234.39999389648</ele>
        <time>2015-05-31T08:10:01Z</time>
      </trkpt>
      <trkpt lat="43.45013" lon="6.18757">
        <ele>235.39999389648</ele>
        <time>2015-05-31T08:10:06Z</time>
      </trkpt>
      <trkpt lat="43.45026" lon="6.18771">
        <ele>236.19999694824</ele>
        <time>2015-05-31T08:10:13Z</time>
      </trkpt>
      <trkpt lat="43.45031" lon="6.18782">
        <ele>237.19999694824</ele>
        <time>2015-05-31T08:10:18Z</time>
      </trkpt>
      <trkpt lat="43.45039" lon="6.18806">
        <ele>238.80000305176</ele>
        <time>2015-05-31T08:10:27Z</time>
      </trkpt>
      <trkpt lat="43.45041" lon="6.18811">
        <ele>239.19999694824</ele>
        <time>2015-05-31T08:10:29Z</time>
      </trkpt>
      <trkpt lat="43.45051" lon="6.18838">
        <ele>240.39999389648</ele>
        <time>2015-05-31T08:10:39Z</time>
      </trkpt>
      <trkpt lat="43.45052" lon="6.18841">
        <ele>240.39999389648</ele>
        <time>2015-05-31T08:10:40Z</time>
      </trkpt>
      <trkpt lat="43.45057" lon="6.18863">
        <ele>241</ele>
        <time>2015-05-31T08:10:48Z</time>
      </trkpt>
      <trkpt lat="43.45057" lon="6.18864">
        <ele>241.19999694824</ele>
        <time>2015-05-31T08:10:49Z</time>
      </trkpt>
      <trkpt lat="43.45055" lon="6.18868">
        <ele>241.19999694824</ele>
        <time>2015-05-31T08:10:51Z</time>
      </trkpt>
      <trkpt lat="43.45052" lon="6.18872">
        <ele>241.60000610352</ele>
        <time>2015-05-31T08:10:53Z</time>
      </trkpt>
      <trkpt lat="43.45039" lon="6.18888">
        <ele>240</ele>
        <time>2015-05-31T08:10:58Z</time>
      </trkpt>
      <trkpt lat="43.45029" lon="6.18907">
        <ele>238.80000305176</ele>
        <time>2015-05-31T08:11:01Z</time>
      </trkpt>
      <trkpt lat="43.45024" lon="6.18916">
        <ele>238.19999694824</ele>
        <time>2015-05-31T08:11:02Z</time>
      </trkpt>
      <trkpt lat="43.4502" lon="6.18924">
        <ele>237.60000610352</ele>
        <time>2015-05-31T08:11:03Z</time>
      </trkpt>
      <trkpt lat="43.45013" lon="6.1894">
        <ele>236.19999694824</ele>
        <time>2015-05-31T08:11:05Z</time>
      </trkpt>
      <trkpt lat="43.45008" lon="6.18958">
        <ele>234.80000305176</ele>
        <time>2015-05-31T08:11:07Z</time>
      </trkpt>
      <trkpt lat="43.45006" lon="6.18968">
        <ele>233.80000305176</ele>
        <time>2015-05-31T08:11:08Z</time>
      </trkpt>
      <trkpt lat="43.45001" lon="6.18999">
        <ele>232.60000610352</ele>
        <time>2015-05-31T08:11:11Z</time>
      </trkpt>
      <trkpt lat="43.45" lon="6.1902">
        <ele>231</ele>
        <time>2015-05-31T08:11:13Z</time>
      </trkpt>
      <trkpt lat="43.45" lon="6.19043">
        <ele>230</ele>
        <time>2015-05-31T08:11:15Z</time>
      </trkpt>
      <trkpt lat="43.44999" lon="6.19066">
        <ele>228.80000305176</ele>
        <time>2015-05-31T08:11:17Z</time>
      </trkpt>
      <trkpt lat="43.45" lon="6.19077">
        <ele>228.19999694824</ele>
        <time>2015-05-31T08:11:18Z</time>
      </trkpt>
      <trkpt lat="43.45002" lon="6.19089">
        <ele>227.39999389648</ele>
        <time>2015-05-31T08:11:19Z</time>
      </trkpt>
      <trkpt lat="43.45001" lon="6.19111">
        <ele>225.60000610352</ele>
        <time>2015-05-31T08:11:21Z</time>
      </trkpt>
      <trkpt lat="43.45" lon="6.19121">
        <ele>225.19999694824</ele>
        <time>2015-05-31T08:11:22Z</time>
      </trkpt>
      <trkpt lat="43.44997" lon="6.19143">
        <ele>224.60000610352</ele>
        <time>2015-05-31T08:11:24Z</time>
      </trkpt>
      <trkpt lat="43.44992" lon="6.19165">
        <ele>223.60000610352</ele>
        <time>2015-05-31T08:11:26Z</time>
      </trkpt>
      <trkpt lat="43.44989" lon="6.19185">
        <ele>222</ele>
        <time>2015-05-31T08:11:28Z</time>
      </trkpt>
      <trkpt lat="43.44986" lon="6.19207">
        <ele>220.19999694824</ele>
        <time>2015-05-31T08:11:30Z</time>
      </trkpt>
      <trkpt lat="43.44985" lon="6.1922">
        <ele>219</ele>
        <time>2015-05-31T08:11:31Z</time>
      </trkpt>
      <trkpt lat="43.44982" lon="6.19233">
        <ele>218</ele>
        <time>2015-05-31T08:11:32Z</time>
      </trkpt>
      <trkpt lat="43.44975" lon="6.19254">
        <ele>216.19999694824</ele>
        <time>2015-05-31T08:11:34Z</time>
      </trkpt>
      <trkpt lat="43.44971" lon="6.19265">
        <ele>215.60000610352</ele>
        <time>2015-05-31T08:11:35Z</time>
      </trkpt>
      <trkpt lat="43.44969" lon="6.19275">
        <ele>214.80000305176</ele>
        <time>2015-05-31T08:11:36Z</time>
      </trkpt>
      <trkpt lat="43.44963" lon="6.19294">
        <ele>213.60000610352</ele>
        <time>2015-05-31T08:11:38Z</time>
      </trkpt>
      <trkpt lat="43.44962" lon="6.19304">
        <ele>212.80000305176</ele>
        <time>2015-05-31T08:11:39Z</time>
      </trkpt>
      <trkpt lat="43.4496" lon="6.19314">
        <ele>212.39999389648</ele>
        <time>2015-05-31T08:11:40Z</time>
      </trkpt>
      <trkpt lat="43.4496" lon="6.19324">
        <ele>212.39999389648</ele>
        <time>2015-05-31T08:11:41Z</time>
      </trkpt>
      <trkpt lat="43.44961" lon="6.19342">
        <ele>210.80000305176</ele>
        <time>2015-05-31T08:11:43Z</time>
      </trkpt>
      <trkpt lat="43.4496" lon="6.19359">
        <ele>209.19999694824</ele>
        <time>2015-05-31T08:11:45Z</time>
      </trkpt>
      <trkpt lat="43.44962" lon="6.19373">
        <ele>208.80000305176</ele>
        <time>2015-05-31T08:11:47Z</time>
      </trkpt>
      <trkpt lat="43.4496" lon="6.19379">
        <ele>208.19999694824</ele>
        <time>2015-05-31T08:11:48Z</time>
      </trkpt>
      <trkpt lat="43.44957" lon="6.19382">
        <ele>208</ele>
        <time>2015-05-31T08:11:49Z</time>
      </trkpt>
      <trkpt lat="43.44951" lon="6.19381">
        <ele>208.19999694824</ele>
        <time>2015-05-31T08:11:51Z</time>
      </trkpt>
      <trkpt lat="43.4495" lon="6.19366">
        <ele>207.19999694824</ele>
        <time>2015-05-31T08:11:54Z</time>
      </trkpt>
      <trkpt lat="43.44949" lon="6.1936">
        <ele>207</ele>
        <time>2015-05-31T08:11:55Z</time>
      </trkpt>
      <trkpt lat="43.44947" lon="6.19352">
        <ele>206</ele>
        <time>2015-05-31T08:11:56Z</time>
      </trkpt>
      <trkpt lat="43.44945" lon="6.19346">
        <ele>205</ele>
        <time>2015-05-31T08:11:57Z</time>
      </trkpt>
      <trkpt lat="43.44941" lon="6.1934">
        <ele>204.19999694824</ele>
        <time>2015-05-31T08:11:58Z</time>
      </trkpt>
      <trkpt lat="43.44938" lon="6.19335">
        <ele>203.60000610352</ele>
        <time>2015-05-31T08:11:59Z</time>
      </trkpt>
      <trkpt lat="43.44926" lon="6.19318">
        <ele>202.39999389648</ele>
        <time>2015-05-31T08:12:02Z</time>
      </trkpt>
      <trkpt lat="43.44921" lon="6.19296">
        <ele>201.19999694824</ele>
        <time>2015-05-31T08:12:05Z</time>
      </trkpt>
      <trkpt lat="43.44921" lon="6.19288">
        <ele>200.60000610352</ele>
        <time>2015-05-31T08:12:06Z</time>
      </trkpt>
      <trkpt lat="43.4492" lon="6.19276">
        <ele>199.80000305176</ele>
        <time>2015-05-31T08:12:08Z</time>
      </trkpt>
      <trkpt lat="43.44919" lon="6.19271">
        <ele>199.19999694824</ele>
        <time>2015-05-31T08:12:10Z</time>
      </trkpt>
      <trkpt lat="43.44919" lon="6.19269">
        <ele>198.80000305176</ele>
        <time>2015-05-31T08:12:11Z</time>
      </trkpt>
      <trkpt lat="43.44916" lon="6.19265">
        <ele>198.39999389648</ele>
        <time>2015-05-31T08:12:14Z</time>
      </trkpt>
      <trkpt lat="43.44916" lon="6.19265">
        <ele>198.19999694824</ele>
        <time>2015-05-31T08:12:18Z</time>
      </trkpt>
      <trkpt lat="43.44915" lon="6.19264">
        <ele>198</ele>
        <time>2015-05-31T08:12:19Z</time>
      </trkpt>
      <trkpt lat="43.44913" lon="6.19263">
        <ele>197.80000305176</ele>
        <time>2015-05-31T08:12:20Z</time>
      </trkpt>
      <trkpt lat="43.44905" lon="6.19256">
        <ele>196.39999389648</ele>
        <time>2015-05-31T08:12:24Z</time>
      </trkpt>
      <trkpt lat="43.44901" lon="6.19251">
        <ele>196.39999389648</ele>
        <time>2015-05-31T08:12:26Z</time>
      </trkpt>
      <trkpt lat="43.44895" lon="6.19239">
        <ele>195.19999694824</ele>
        <time>2015-05-31T08:12:29Z</time>
      </trkpt>
      <trkpt lat="43.44889" lon="6.19227">
        <ele>194.80000305176</ele>
        <time>2015-05-31T08:12:33Z</time>
      </trkpt>
      <trkpt lat="43.44887" lon="6.19217">
        <ele>194.19999694824</ele>
        <time>2015-05-31T08:12:35Z</time>
      </trkpt>
      <trkpt lat="43.44887" lon="6.19213">
        <ele>194.39999389648</ele>
        <time>2015-05-31T08:12:37Z</time>
      </trkpt>
      <trkpt lat="43.44885" lon="6.19191">
        <ele>193.60000610352</ele>
        <time>2015-05-31T08:12:41Z</time>
      </trkpt>
      <trkpt lat="43.44884" lon="6.19171">
        <ele>192.60000610352</ele>
        <time>2015-05-31T08:12:44Z</time>
      </trkpt>
      <trkpt lat="43.44881" lon="6.19165">
        <ele>191.80000305176</ele>
        <time>2015-05-31T08:12:46Z</time>
      </trkpt>
      <trkpt lat="43.44876" lon="6.19165">
        <ele>191.39999389648</ele>
        <time>2015-05-31T08:12:48Z</time>
      </trkpt>
      <trkpt lat="43.44874" lon="6.19167">
        <ele>191</ele>
        <time>2015-05-31T08:12:49Z</time>
      </trkpt>
      <trkpt lat="43.44871" lon="6.19175">
        <ele>189.80000305176</ele>
        <time>2015-05-31T08:12:51Z</time>
      </trkpt>
      <trkpt lat="43.4487" lon="6.1918">
        <ele>189.80000305176</ele>
        <time>2015-05-31T08:12:52Z</time>
      </trkpt>
      <trkpt lat="43.44869" lon="6.19185">
        <ele>190</ele>
        <time>2015-05-31T08:12:53Z</time>
      </trkpt>
      <trkpt lat="43.44865" lon="6.19209">
        <ele>190.19999694824</ele>
        <time>2015-05-31T08:12:58Z</time>
      </trkpt>
      <trkpt lat="43.44864" lon="6.19229">
        <ele>189</ele>
        <time>2015-05-31T08:13:01Z</time>
      </trkpt>
      <trkpt lat="43.44864" lon="6.19236">
        <ele>188.80000305176</ele>
        <time>2015-05-31T08:13:02Z</time>
      </trkpt>
      <trkpt lat="43.44864" lon="6.19243">
        <ele>188.60000610352</ele>
        <time>2015-05-31T08:13:03Z</time>
      </trkpt>
      <trkpt lat="43.44864" lon="6.19258">
        <ele>188.60000610352</ele>
        <time>2015-05-31T08:13:05Z</time>
      </trkpt>
      <trkpt lat="43.44867" lon="6.19282">
        <ele>187.80000305176</ele>
        <time>2015-05-31T08:13:08Z</time>
      </trkpt>
      <trkpt lat="43.44869" lon="6.1929">
        <ele>187.19999694824</ele>
        <time>2015-05-31T08:13:09Z</time>
      </trkpt>
      <trkpt lat="43.44871" lon="6.19309">
        <ele>187</ele>
        <time>2015-05-31T08:13:12Z</time>
      </trkpt>
      <trkpt lat="43.44869" lon="6.19313">
        <ele>186.80000305176</ele>
        <time>2015-05-31T08:13:13Z</time>
      </trkpt>
      <trkpt lat="43.44861" lon="6.19313">
        <ele>186.19999694824</ele>
        <time>2015-05-31T08:13:16Z</time>
      </trkpt>
      <trkpt lat="43.44846" lon="6.19303">
        <ele>184.19999694824</ele>
        <time>2015-05-31T08:13:20Z</time>
      </trkpt>
      <trkpt lat="43.44842" lon="6.19301">
        <ele>183</ele>
        <time>2015-05-31T08:13:21Z</time>
      </trkpt>
      <trkpt lat="43.44837" lon="6.193">
        <ele>182.19999694824</ele>
        <time>2015-05-31T08:13:22Z</time>
      </trkpt>
      <trkpt lat="43.44833" lon="6.19299">
        <ele>181.60000610352</ele>
        <time>2015-05-31T08:13:23Z</time>
      </trkpt>
      <trkpt lat="43.4483" lon="6.19299">
        <ele>180.60000610352</ele>
        <time>2015-05-31T08:13:24Z</time>
      </trkpt>
      <trkpt lat="43.44828" lon="6.19301">
        <ele>179.60000610352</ele>
        <time>2015-05-31T08:13:25Z</time>
      </trkpt>
      <trkpt lat="43.44825" lon="6.19309">
        <ele>178.80000305176</ele>
        <time>2015-05-31T08:13:27Z</time>
      </trkpt>
      <trkpt lat="43.44824" lon="6.19315">
        <ele>178.60000610352</ele>
        <time>2015-05-31T08:13:28Z</time>
      </trkpt>
      <trkpt lat="43.44822" lon="6.19322">
        <ele>177.80000305176</ele>
        <time>2015-05-31T08:13:29Z</time>
      </trkpt>
      <trkpt lat="43.4482" lon="6.19328">
        <ele>176.60000610352</ele>
        <time>2015-05-31T08:13:30Z</time>
      </trkpt>
      <trkpt lat="43.44819" lon="6.19334">
        <ele>176.19999694824</ele>
        <time>2015-05-31T08:13:31Z</time>
      </trkpt>
      <trkpt lat="43.44818" lon="6.1934">
        <ele>175.60000610352</ele>
        <time>2015-05-31T08:13:32Z</time>
      </trkpt>
      <trkpt lat="43.44816" lon="6.19349">
        <ele>174.80000305176</ele>
        <time>2015-05-31T08:13:35Z</time>
      </trkpt>
      <trkpt lat="43.44815" lon="6.19349">
        <ele>174.39999389648</ele>
        <time>2015-05-31T08:13:36Z</time>
      </trkpt>
      <trkpt lat="43.44815" lon="6.19348">
        <ele>174</ele>
        <time>2015-05-31T08:13:39Z</time>
      </trkpt>
      <trkpt lat="43.44815" lon="6.19349">
        <ele>174</ele>
        <time>2015-05-31T08:13:42Z</time>
      </trkpt>
      <trkpt lat="43.44812" lon="6.19352">
        <ele>173.80000305176</ele>
        <time>2015-05-31T08:13:44Z</time>
      </trkpt>
      <trkpt lat="43.44809" lon="6.19353">
        <ele>173.80000305176</ele>
        <time>2015-05-31T08:13:45Z</time>
      </trkpt>
      <trkpt lat="43.44794" lon="6.19356">
        <ele>173.39999389648</ele>
        <time>2015-05-31T08:13:49Z</time>
      </trkpt>
      <trkpt lat="43.44766" lon="6.19362">
        <ele>172.80000305176</ele>
        <time>2015-05-31T08:13:55Z</time>
      </trkpt>
      <trkpt lat="43.44748" lon="6.19365">
        <ele>172.19999694824</ele>
        <time>2015-05-31T08:13:59Z</time>
      </trkpt>
      <trkpt lat="43.44745" lon="6.19366">
        <ele>172.60000610352</ele>
        <time>2015-05-31T08:14:00Z</time>
      </trkpt>
      <trkpt lat="43.44732" lon="6.19369">
        <ele>173.60000610352</ele>
        <time>2015-05-31T08:14:04Z</time>
      </trkpt>
      <trkpt lat="43.44724" lon="6.19381">
        <ele>175.19999694824</ele>
        <time>2015-05-31T08:14:08Z</time>
      </trkpt>
      <trkpt lat="43.44719" lon="6.19408">
        <ele>176.80000305176</ele>
        <time>2015-05-31T08:14:15Z</time>
      </trkpt>
      <trkpt lat="43.44717" lon="6.19426">
        <ele>176.80000305176</ele>
        <time>2015-05-31T08:14:19Z</time>
      </trkpt>
      <trkpt lat="43.44711" lon="6.19451">
        <ele>176.39999389648</ele>
        <time>2015-05-31T08:14:24Z</time>
      </trkpt>
      <trkpt lat="43.44702" lon="6.19473">
        <ele>176.80000305176</ele>
        <time>2015-05-31T08:14:29Z</time>
      </trkpt>
      <trkpt lat="43.44687" lon="6.19489">
        <ele>177</ele>
        <time>2015-05-31T08:14:34Z</time>
      </trkpt>
      <trkpt lat="43.4466" lon="6.19511">
        <ele>177.39999389648</ele>
        <time>2015-05-31T08:14:42Z</time>
      </trkpt>
      <trkpt lat="43.44643" lon="6.19527">
        <ele>176.80000305176</ele>
        <time>2015-05-31T08:14:48Z</time>
      </trkpt>
      <trkpt lat="43.44625" lon="6.19546">
        <ele>177.60000610352</ele>
        <time>2015-05-31T08:14:53Z</time>
      </trkpt>
      <trkpt lat="43.44599" lon="6.19575">
        <ele>178</ele>
        <time>2015-05-31T08:15:01Z</time>
      </trkpt>
      <trkpt lat="43.44582" lon="6.19593">
        <ele>178.19999694824</ele>
        <time>2015-05-31T08:15:06Z</time>
      </trkpt>
      <trkpt lat="43.4455" lon="6.19615">
        <ele>178.39999389648</ele>
        <time>2015-05-31T08:15:15Z</time>
      </trkpt>
      <trkpt lat="43.44545" lon="6.19616">
        <ele>178.39999389648</ele>
        <time>2015-05-31T08:15:16Z</time>
      </trkpt>
      <trkpt lat="43.44532" lon="6.19614">
        <ele>178.80000305176</ele>
        <time>2015-05-31T08:15:19Z</time>
      </trkpt>
      <trkpt lat="43.44528" lon="6.19613">
        <ele>178.80000305176</ele>
        <time>2015-05-31T08:15:20Z</time>
      </trkpt>
      <trkpt lat="43.44519" lon="6.19609">
        <ele>178.80000305176</ele>
        <time>2015-05-31T08:15:22Z</time>
      </trkpt>
      <trkpt lat="43.44503" lon="6.19599">
        <ele>178.39999389648</ele>
        <time>2015-05-31T08:15:26Z</time>
      </trkpt>
      <trkpt lat="43.44495" lon="6.19598">
        <ele>178.60000610352</ele>
        <time>2015-05-31T08:15:28Z</time>
      </trkpt>
      <trkpt lat="43.44487" lon="6.19605">
        <ele>178.39999389648</ele>
        <time>2015-05-31T08:15:30Z</time>
      </trkpt>
      <trkpt lat="43.44479" lon="6.19622">
        <ele>177.39999389648</ele>
        <time>2015-05-31T08:15:33Z</time>
      </trkpt>
      <trkpt lat="43.44473" lon="6.19635">
        <ele>176.60000610352</ele>
        <time>2015-05-31T08:15:35Z</time>
      </trkpt>
      <trkpt lat="43.44467" lon="6.19652">
        <ele>175.39999389648</ele>
        <time>2015-05-31T08:15:37Z</time>
      </trkpt>
      <trkpt lat="43.4446" lon="6.19671">
        <ele>174.80000305176</ele>
        <time>2015-05-31T08:15:39Z</time>
      </trkpt>
      <trkpt lat="43.4445" lon="6.19701">
        <ele>173</ele>
        <time>2015-05-31T08:15:42Z</time>
      </trkpt>
      <trkpt lat="43.44442" lon="6.19725">
        <ele>172</ele>
        <time>2015-05-31T08:15:44Z</time>
      </trkpt>
      <trkpt lat="43.44439" lon="6.19736">
        <ele>171.80000305176</ele>
        <time>2015-05-31T08:15:45Z</time>
      </trkpt>
      <trkpt lat="43.44432" lon="6.19782">
        <ele>171.39999389648</ele>
        <time>2015-05-31T08:15:49Z</time>
      </trkpt>
      <trkpt lat="43.44424" lon="6.19838">
        <ele>172.19999694824</ele>
        <time>2015-05-31T08:15:55Z</time>
      </trkpt>
      <trkpt lat="43.44422" lon="6.19846">
        <ele>172.19999694824</ele>
        <time>2015-05-31T08:15:56Z</time>
      </trkpt>
      <trkpt lat="43.44421" lon="6.1986">
        <ele>172.19999694824</ele>
        <time>2015-05-31T08:15:58Z</time>
      </trkpt>
      <trkpt lat="43.44423" lon="6.19874">
        <ele>172.80000305176</ele>
        <time>2015-05-31T08:16:00Z</time>
      </trkpt>
      <trkpt lat="43.44427" lon="6.19905">
        <ele>173.60000610352</ele>
        <time>2015-05-31T08:16:05Z</time>
      </trkpt>
      <trkpt lat="43.44429" lon="6.19917">
        <ele>173.39999389648</ele>
        <time>2015-05-31T08:16:07Z</time>
      </trkpt>
      <trkpt lat="43.44427" lon="6.19937">
        <ele>173.39999389648</ele>
        <time>2015-05-31T08:16:11Z</time>
      </trkpt>
      <trkpt lat="43.4442" lon="6.19951">
        <ele>174</ele>
        <time>2015-05-31T08:16:15Z</time>
      </trkpt>
      <trkpt lat="43.44418" lon="6.19952">
        <ele>174.19999694824</ele>
        <time>2015-05-31T08:16:16Z</time>
      </trkpt>
      <trkpt lat="43.44414" lon="6.19958">
        <ele>174.39999389648</ele>
        <time>2015-05-31T08:16:20Z</time>
      </trkpt>
      <trkpt lat="43.44412" lon="6.19962">
        <ele>174.60000610352</ele>
        <time>2015-05-31T08:16:23Z</time>
      </trkpt>
      <trkpt lat="43.44414" lon="6.19964">
        <ele>174.80000305176</ele>
        <time>2015-05-31T08:16:25Z</time>
      </trkpt>
      <trkpt lat="43.44421" lon="6.19966">
        <ele>173.60000610352</ele>
        <time>2015-05-31T08:16:30Z</time>
      </trkpt>
      <trkpt lat="43.44418" lon="6.19972">
        <ele>173</ele>
        <time>2015-05-31T08:16:32Z</time>
      </trkpt>
      <trkpt lat="43.44416" lon="6.19975">
        <ele>173</ele>
        <time>2015-05-31T08:16:33Z</time>
      </trkpt>
      <trkpt lat="43.44404" lon="6.19987">
        <ele>172.80000305176</ele>
        <time>2015-05-31T08:16:37Z</time>
      </trkpt>
      <trkpt lat="43.44397" lon="6.20001">
        <ele>172</ele>
        <time>2015-05-31T08:16:40Z</time>
      </trkpt>
      <trkpt lat="43.44393" lon="6.20013">
        <ele>172</ele>
        <time>2015-05-31T08:16:42Z</time>
      </trkpt>
      <trkpt lat="43.44392" lon="6.20019">
        <ele>172</ele>
        <time>2015-05-31T08:16:43Z</time>
      </trkpt>
      <trkpt lat="43.44383" lon="6.2007">
        <ele>172</ele>
        <time>2015-05-31T08:16:52Z</time>
      </trkpt>
      <trkpt lat="43.44381" lon="6.20081">
        <ele>172</ele>
        <time>2015-05-31T08:16:54Z</time>
      </trkpt>
      <trkpt lat="43.44374" lon="6.20101">
        <ele>172</ele>
        <time>2015-05-31T08:16:58Z</time>
      </trkpt>
      <trkpt lat="43.44366" lon="6.20137">
        <ele>171.80000305176</ele>
        <time>2015-05-31T08:17:04Z</time>
      </trkpt>
      <trkpt lat="43.44361" lon="6.20173">
        <ele>171.60000610352</ele>
        <time>2015-05-31T08:17:09Z</time>
      </trkpt>
      <trkpt lat="43.4436" lon="6.20196">
        <ele>171.60000610352</ele>
        <time>2015-05-31T08:17:12Z</time>
      </trkpt>
      <trkpt lat="43.4436" lon="6.20243">
        <ele>171.60000610352</ele>
        <time>2015-05-31T08:17:18Z</time>
      </trkpt>
      <trkpt lat="43.44353" lon="6.20296">
        <ele>171.80000305176</ele>
        <time>2015-05-31T08:17:25Z</time>
      </trkpt>
      <trkpt lat="43.44349" lon="6.20327">
        <ele>171.60000610352</ele>
        <time>2015-05-31T08:17:29Z</time>
      </trkpt>
      <trkpt lat="43.44349" lon="6.20348">
        <ele>171.80000305176</ele>
        <time>2015-05-31T08:17:32Z</time>
      </trkpt>
      <trkpt lat="43.44353" lon="6.20383">
        <ele>171.80000305176</ele>
        <time>2015-05-31T08:17:37Z</time>
      </trkpt>
      <trkpt lat="43.44355" lon="6.2039">
        <ele>172</ele>
        <time>2015-05-31T08:17:38Z</time>
      </trkpt>
      <trkpt lat="43.44364" lon="6.20425">
        <ele>172.19999694824</ele>
        <time>2015-05-31T08:17:43Z</time>
      </trkpt>
      <trkpt lat="43.44369" lon="6.20452">
        <ele>172.19999694824</ele>
        <time>2015-05-31T08:17:47Z</time>
      </trkpt>
      <trkpt lat="43.44371" lon="6.20474">
        <ele>172</ele>
        <time>2015-05-31T08:17:50Z</time>
      </trkpt>
      <trkpt lat="43.44371" lon="6.20515">
        <ele>172.19999694824</ele>
        <time>2015-05-31T08:17:56Z</time>
      </trkpt>
      <trkpt lat="43.4437" lon="6.20521">
        <ele>172.19999694824</ele>
        <time>2015-05-31T08:17:57Z</time>
      </trkpt>
      <trkpt lat="43.44366" lon="6.20538">
        <ele>172.80000305176</ele>
        <time>2015-05-31T08:18:00Z</time>
      </trkpt>
      <trkpt lat="43.44363" lon="6.20551">
        <ele>172.60000610352</ele>
        <time>2015-05-31T08:18:02Z</time>
      </trkpt>
      <trkpt lat="43.4436" lon="6.20556">
        <ele>172</ele>
        <time>2015-05-31T08:18:03Z</time>
      </trkpt>
      <trkpt lat="43.44345" lon="6.20585">
        <ele>173.39999389648</ele>
        <time>2015-05-31T08:18:09Z</time>
      </trkpt>
      <trkpt lat="43.44338" lon="6.20608">
        <ele>172.60000610352</ele>
        <time>2015-05-31T08:18:13Z</time>
      </trkpt>
      <trkpt lat="43.44328" lon="6.20645">
        <ele>173.19999694824</ele>
        <time>2015-05-31T08:18:20Z</time>
      </trkpt>
      <trkpt lat="43.4433" lon="6.20674">
        <ele>173.39999389648</ele>
        <time>2015-05-31T08:18:25Z</time>
      </trkpt>
      <trkpt lat="43.44339" lon="6.20709">
        <ele>173</ele>
        <time>2015-05-31T08:18:31Z</time>
      </trkpt>
      <trkpt lat="43.44342" lon="6.20715">
        <ele>172.80000305176</ele>
        <time>2015-05-31T08:18:32Z</time>
      </trkpt>
      <trkpt lat="43.44345" lon="6.20721">
        <ele>172.80000305176</ele>
        <time>2015-05-31T08:18:33Z</time>
      </trkpt>
      <trkpt lat="43.44356" lon="6.20734">
        <ele>173</ele>
        <time>2015-05-31T08:18:36Z</time>
      </trkpt>
      <trkpt lat="43.44359" lon="6.20737">
        <ele>173.39999389648</ele>
        <time>2015-05-31T08:18:37Z</time>
      </trkpt>
      <trkpt lat="43.44374" lon="6.20758">
        <ele>173.19999694824</ele>
        <time>2015-05-31T08:18:42Z</time>
      </trkpt>
      <trkpt lat="43.44392" lon="6.20796">
        <ele>173.80000305176</ele>
        <time>2015-05-31T08:18:50Z</time>
      </trkpt>
      <trkpt lat="43.44408" lon="6.20823">
        <ele>173.80000305176</ele>
        <time>2015-05-31T08:18:58Z</time>
      </trkpt>
      <trkpt lat="43.44423" lon="6.20849">
        <ele>173.80000305176</ele>
        <time>2015-05-31T08:19:07Z</time>
      </trkpt>
      <trkpt lat="43.44431" lon="6.20867">
        <ele>173.80000305176</ele>
        <time>2015-05-31T08:19:13Z</time>
      </trkpt>
      <trkpt lat="43.44431" lon="6.2087">
        <ele>173.80000305176</ele>
        <time>2015-05-31T08:19:14Z</time>
      </trkpt>
      <trkpt lat="43.44429" lon="6.20873">
        <ele>174.39999389648</ele>
        <time>2015-05-31T08:19:16Z</time>
      </trkpt>
      <trkpt lat="43.44428" lon="6.20873">
        <ele>174.39999389648</ele>
        <time>2015-05-31T08:19:17Z</time>
      </trkpt>
      <trkpt lat="43.44427" lon="6.20875">
        <ele>174.60000610352</ele>
        <time>2015-05-31T08:19:18Z</time>
      </trkpt>
      <trkpt lat="43.44423" lon="6.20879">
        <ele>174.60000610352</ele>
        <time>2015-05-31T08:19:25Z</time>
      </trkpt>
      <trkpt lat="43.44421" lon="6.20879">
        <ele>174.39999389648</ele>
        <time>2015-05-31T08:19:26Z</time>
      </trkpt>
      <trkpt lat="43.44418" lon="6.20884">
        <ele>173.80000305176</ele>
        <time>2015-05-31T08:19:28Z</time>
      </trkpt>
      <trkpt lat="43.44416" lon="6.2089">
        <ele>173.80000305176</ele>
        <time>2015-05-31T08:19:30Z</time>
      </trkpt>
      <trkpt lat="43.44413" lon="6.20895">
        <ele>173.60000610352</ele>
        <time>2015-05-31T08:19:32Z</time>
      </trkpt>
      <trkpt lat="43.44411" lon="6.20901">
        <ele>174</ele>
        <time>2015-05-31T08:19:35Z</time>
      </trkpt>
      <trkpt lat="43.44404" lon="6.20911">
        <ele>174.80000305176</ele>
        <time>2015-05-31T08:19:40Z</time>
      </trkpt>
      <trkpt lat="43.444" lon="6.20916">
        <ele>174.80000305176</ele>
        <time>2015-05-31T08:19:43Z</time>
      </trkpt>
      <trkpt lat="43.44398" lon="6.2092">
        <ele>174.80000305176</ele>
        <time>2015-05-31T08:19:45Z</time>
      </trkpt>
      <trkpt lat="43.44397" lon="6.20923">
        <ele>175</ele>
        <time>2015-05-31T08:19:46Z</time>
      </trkpt>
      <trkpt lat="43.44389" lon="6.20939">
        <ele>174.80000305176</ele>
        <time>2015-05-31T08:19:52Z</time>
      </trkpt>
      <trkpt lat="43.44384" lon="6.2095">
        <ele>175.19999694824</ele>
        <time>2015-05-31T08:19:55Z</time>
      </trkpt>
      <trkpt lat="43.44381" lon="6.2096">
        <ele>175.60000610352</ele>
        <time>2015-05-31T08:19:58Z</time>
      </trkpt>
      <trkpt lat="43.4438" lon="6.20986">
        <ele>175</ele>
        <time>2015-05-31T08:20:04Z</time>
      </trkpt>
      <trkpt lat="43.44377" lon="6.21006">
        <ele>175.19999694824</ele>
        <time>2015-05-31T08:20:10Z</time>
      </trkpt>
      <trkpt lat="43.44376" lon="6.2101">
        <ele>175.19999694824</ele>
        <time>2015-05-31T08:20:11Z</time>
      </trkpt>
      <trkpt lat="43.44376" lon="6.21023">
        <ele>175.60000610352</ele>
        <time>2015-05-31T08:20:14Z</time>
      </trkpt>
      <trkpt lat="43.44379" lon="6.21037">
        <ele>175.60000610352</ele>
        <time>2015-05-31T08:20:17Z</time>
      </trkpt>
      <trkpt lat="43.44379" lon="6.21063">
        <ele>175</ele>
        <time>2015-05-31T08:20:23Z</time>
      </trkpt>
      <trkpt lat="43.44384" lon="6.2108">
        <ele>175.80000305176</ele>
        <time>2015-05-31T08:20:28Z</time>
      </trkpt>
      <trkpt lat="43.44388" lon="6.21099">
        <ele>175.80000305176</ele>
        <time>2015-05-31T08:20:33Z</time>
      </trkpt>
      <trkpt lat="43.4439" lon="6.21107">
        <ele>176</ele>
        <time>2015-05-31T08:20:35Z</time>
      </trkpt>
      <trkpt lat="43.44392" lon="6.21126">
        <ele>176.39999389648</ele>
        <time>2015-05-31T08:20:39Z</time>
      </trkpt>
      <trkpt lat="43.44392" lon="6.21148">
        <ele>177.19999694824</ele>
        <time>2015-05-31T08:20:44Z</time>
      </trkpt>
      <trkpt lat="43.44389" lon="6.21165">
        <ele>177.19999694824</ele>
        <time>2015-05-31T08:20:48Z</time>
      </trkpt>
      <trkpt lat="43.44388" lon="6.21188">
        <ele>177.80000305176</ele>
        <time>2015-05-31T08:20:54Z</time>
      </trkpt>
      <trkpt lat="43.44386" lon="6.21216">
        <ele>178</ele>
        <time>2015-05-31T08:21:01Z</time>
      </trkpt>
      <trkpt lat="43.44384" lon="6.21232">
        <ele>178.60000610352</ele>
        <time>2015-05-31T08:21:05Z</time>
      </trkpt>
      <trkpt lat="43.44383" lon="6.21237">
        <ele>178.39999389648</ele>
        <time>2015-05-31T08:21:06Z</time>
      </trkpt>
      <trkpt lat="43.4438" lon="6.21257">
        <ele>179</ele>
        <time>2015-05-31T08:21:12Z</time>
      </trkpt>
      <trkpt lat="43.44378" lon="6.21262">
        <ele>179</ele>
        <time>2015-05-31T08:21:13Z</time>
      </trkpt>
      <trkpt lat="43.44373" lon="6.21277">
        <ele>179.19999694824</ele>
        <time>2015-05-31T08:21:17Z</time>
      </trkpt>
      <trkpt lat="43.44364" lon="6.21306">
        <ele>179.80000305176</ele>
        <time>2015-05-31T08:21:24Z</time>
      </trkpt>
      <trkpt lat="43.4436" lon="6.21323">
        <ele>180.39999389648</ele>
        <time>2015-05-31T08:21:28Z</time>
      </trkpt>
      <trkpt lat="43.44357" lon="6.21331">
        <ele>180.80000305176</ele>
        <time>2015-05-31T08:21:30Z</time>
      </trkpt>
      <trkpt lat="43.44351" lon="6.21363">
        <ele>181.39999389648</ele>
        <time>2015-05-31T08:21:37Z</time>
      </trkpt>
      <trkpt lat="43.44347" lon="6.21395">
        <ele>181.39999389648</ele>
        <time>2015-05-31T08:21:43Z</time>
      </trkpt>
      <trkpt lat="43.44345" lon="6.21436">
        <ele>181.60000610352</ele>
        <time>2015-05-31T08:21:51Z</time>
      </trkpt>
      <trkpt lat="43.44344" lon="6.21441">
        <ele>181.80000305176</ele>
        <time>2015-05-31T08:21:52Z</time>
      </trkpt>
      <trkpt lat="43.44347" lon="6.21473">
        <ele>182.39999389648</ele>
        <time>2015-05-31T08:21:59Z</time>
      </trkpt>
      <trkpt lat="43.44349" lon="6.21487">
        <ele>183.19999694824</ele>
        <time>2015-05-31T08:22:02Z</time>
      </trkpt>
      <trkpt lat="43.4435" lon="6.21512">
        <ele>183.19999694824</ele>
        <time>2015-05-31T08:22:07Z</time>
      </trkpt>
      <trkpt lat="43.44352" lon="6.21525">
        <ele>183.39999389648</ele>
        <time>2015-05-31T08:22:10Z</time>
      </trkpt>
      <trkpt lat="43.44357" lon="6.2153">
        <ele>183.39999389648</ele>
        <time>2015-05-31T08:22:12Z</time>
      </trkpt>
      <trkpt lat="43.44373" lon="6.21535">
        <ele>184</ele>
        <time>2015-05-31T08:22:17Z</time>
      </trkpt>
      <trkpt lat="43.44387" lon="6.21539">
        <ele>185</ele>
        <time>2015-05-31T08:22:22Z</time>
      </trkpt>
      <trkpt lat="43.4441" lon="6.21542">
        <ele>184.39999389648</ele>
        <time>2015-05-31T08:22:28Z</time>
      </trkpt>
      <trkpt lat="43.44413" lon="6.21544">
        <ele>184.80000305176</ele>
        <time>2015-05-31T08:22:29Z</time>
      </trkpt>
      <trkpt lat="43.44415" lon="6.21548">
        <ele>185</ele>
        <time>2015-05-31T08:22:30Z</time>
      </trkpt>
      <trkpt lat="43.44418" lon="6.21558">
        <ele>185</ele>
        <time>2015-05-31T08:22:32Z</time>
      </trkpt>
      <trkpt lat="43.44431" lon="6.21582">
        <ele>185</ele>
        <time>2015-05-31T08:22:38Z</time>
      </trkpt>
      <trkpt lat="43.44437" lon="6.21614">
        <ele>185.80000305176</ele>
        <time>2015-05-31T08:22:45Z</time>
      </trkpt>
      <trkpt lat="43.44442" lon="6.21642">
        <ele>185.80000305176</ele>
        <time>2015-05-31T08:22:51Z</time>
      </trkpt>
      <trkpt lat="43.44443" lon="6.21662">
        <ele>185.60000610352</ele>
        <time>2015-05-31T08:22:55Z</time>
      </trkpt>
      <trkpt lat="43.44441" lon="6.21672">
        <ele>185.80000305176</ele>
        <time>2015-05-31T08:22:57Z</time>
      </trkpt>
      <trkpt lat="43.44433" lon="6.21708">
        <ele>185.19999694824</ele>
        <time>2015-05-31T08:23:04Z</time>
      </trkpt>
      <trkpt lat="43.44433" lon="6.21738">
        <ele>185.60000610352</ele>
        <time>2015-05-31T08:23:10Z</time>
      </trkpt>
      <trkpt lat="43.44435" lon="6.21771">
        <ele>186</ele>
        <time>2015-05-31T08:23:17Z</time>
      </trkpt>
      <trkpt lat="43.44434" lon="6.21781">
        <ele>186.80000305176</ele>
        <time>2015-05-31T08:23:20Z</time>
      </trkpt>
      <trkpt lat="43.44434" lon="6.21788">
        <ele>187.19999694824</ele>
        <time>2015-05-31T08:23:22Z</time>
      </trkpt>
      <trkpt lat="43.44433" lon="6.21799">
        <ele>187.60000610352</ele>
        <time>2015-05-31T08:23:25Z</time>
      </trkpt>
      <trkpt lat="43.44434" lon="6.21805">
        <ele>188</ele>
        <time>2015-05-31T08:23:27Z</time>
      </trkpt>
      <trkpt lat="43.44435" lon="6.21811">
        <ele>188.39999389648</ele>
        <time>2015-05-31T08:23:29Z</time>
      </trkpt>
      <trkpt lat="43.44436" lon="6.21818">
        <ele>188.80000305176</ele>
        <time>2015-05-31T08:23:32Z</time>
      </trkpt>
      <trkpt lat="43.44436" lon="6.2182">
        <ele>189</ele>
        <time>2015-05-31T08:23:33Z</time>
      </trkpt>
      <trkpt lat="43.44434" lon="6.21826">
        <ele>189.39999389648</ele>
        <time>2015-05-31T08:23:38Z</time>
      </trkpt>
      <trkpt lat="43.44434" lon="6.21827">
        <ele>189.19999694824</ele>
        <time>2015-05-31T08:23:42Z</time>
      </trkpt>
      <trkpt lat="43.44434" lon="6.21827">
        <ele>189.19999694824</ele>
        <time>2015-05-31T08:23:44Z</time>
      </trkpt>
      <trkpt lat="43.44434" lon="6.21827">
        <ele>189.19999694824</ele>
        <time>2015-05-31T08:23:49Z</time>
      </trkpt>
      <trkpt lat="43.44431" lon="6.21833">
        <ele>189.19999694824</ele>
        <time>2015-05-31T08:23:58Z</time>
      </trkpt>
      <trkpt lat="43.4442" lon="6.21853">
        <ele>189.39999389648</ele>
        <time>2015-05-31T08:24:05Z</time>
      </trkpt>
      <trkpt lat="43.44415" lon="6.21877">
        <ele>189.19999694824</ele>
        <time>2015-05-31T08:24:10Z</time>
      </trkpt>
      <trkpt lat="43.4441" lon="6.21914">
        <ele>189</ele>
        <time>2015-05-31T08:24:16Z</time>
      </trkpt>
      <trkpt lat="43.44408" lon="6.21928">
        <ele>189.39999389648</ele>
        <time>2015-05-31T08:24:18Z</time>
      </trkpt>
      <trkpt lat="43.44405" lon="6.21961">
        <ele>189.39999389648</ele>
        <time>2015-05-31T08:24:23Z</time>
      </trkpt>
      <trkpt lat="43.44405" lon="6.21968">
        <ele>189.60000610352</ele>
        <time>2015-05-31T08:24:24Z</time>
      </trkpt>
      <trkpt lat="43.44403" lon="6.21989">
        <ele>190</ele>
        <time>2015-05-31T08:24:27Z</time>
      </trkpt>
      <trkpt lat="43.44403" lon="6.22031">
        <ele>189.39999389648</ele>
        <time>2015-05-31T08:24:32Z</time>
      </trkpt>
      <trkpt lat="43.44402" lon="6.22049">
        <ele>189</ele>
        <time>2015-05-31T08:24:34Z</time>
      </trkpt>
      <trkpt lat="43.444" lon="6.22057">
        <ele>189</ele>
        <time>2015-05-31T08:24:35Z</time>
      </trkpt>
      <trkpt lat="43.44395" lon="6.22092">
        <ele>189</ele>
        <time>2015-05-31T08:24:39Z</time>
      </trkpt>
      <trkpt lat="43.44387" lon="6.2214">
        <ele>188.80000305176</ele>
        <time>2015-05-31T08:24:45Z</time>
      </trkpt>
      <trkpt lat="43.44387" lon="6.2217">
        <ele>189.19999694824</ele>
        <time>2015-05-31T08:24:49Z</time>
      </trkpt>
      <trkpt lat="43.44388" lon="6.2219">
        <ele>189.19999694824</ele>
        <time>2015-05-31T08:24:52Z</time>
      </trkpt>
      <trkpt lat="43.44389" lon="6.22202">
        <ele>189.80000305176</ele>
        <time>2015-05-31T08:24:54Z</time>
      </trkpt>
      <trkpt lat="43.44392" lon="6.22214">
        <ele>190.19999694824</ele>
        <time>2015-05-31T08:24:56Z</time>
      </trkpt>
      <trkpt lat="43.44389" lon="6.22232">
        <ele>190.80000305176</ele>
        <time>2015-05-31T08:25:00Z</time>
      </trkpt>
      <trkpt lat="43.44382" lon="6.22241">
        <ele>190.60000610352</ele>
        <time>2015-05-31T08:25:04Z</time>
      </trkpt>
      <trkpt lat="43.44381" lon="6.22244">
        <ele>190.39999389648</ele>
        <time>2015-05-31T08:25:05Z</time>
      </trkpt>
      <trkpt lat="43.44378" lon="6.22257">
        <ele>189.19999694824</ele>
        <time>2015-05-31T08:25:08Z</time>
      </trkpt>
      <trkpt lat="43.44375" lon="6.22263">
        <ele>188.19999694824</ele>
        <time>2015-05-31T08:25:09Z</time>
      </trkpt>
      <trkpt lat="43.44369" lon="6.22284">
        <ele>187.60000610352</ele>
        <time>2015-05-31T08:25:12Z</time>
      </trkpt>
      <trkpt lat="43.44365" lon="6.22297">
        <ele>188</ele>
        <time>2015-05-31T08:25:14Z</time>
      </trkpt>
      <trkpt lat="43.44352" lon="6.22313">
        <ele>187</ele>
        <time>2015-05-31T08:25:18Z</time>
      </trkpt>
      <trkpt lat="43.44346" lon="6.22332">
        <ele>187.80000305176</ele>
        <time>2015-05-31T08:25:22Z</time>
      </trkpt>
      <trkpt lat="43.44344" lon="6.2234">
        <ele>188.39999389648</ele>
        <time>2015-05-31T08:25:24Z</time>
      </trkpt>
      <trkpt lat="43.44344" lon="6.22349">
        <ele>188.80000305176</ele>
        <time>2015-05-31T08:25:26Z</time>
      </trkpt>
      <trkpt lat="43.4434" lon="6.22367">
        <ele>189.19999694824</ele>
        <time>2015-05-31T08:25:30Z</time>
      </trkpt>
      <trkpt lat="43.44333" lon="6.22377">
        <ele>189.39999389648</ele>
        <time>2015-05-31T08:25:33Z</time>
      </trkpt>
      <trkpt lat="43.4432" lon="6.22388">
        <ele>189.60000610352</ele>
        <time>2015-05-31T08:25:37Z</time>
      </trkpt>
      <trkpt lat="43.44299" lon="6.22396">
        <ele>190</ele>
        <time>2015-05-31T08:25:42Z</time>
      </trkpt>
      <trkpt lat="43.44278" lon="6.22391">
        <ele>190</ele>
        <time>2015-05-31T08:25:47Z</time>
      </trkpt>
      <trkpt lat="43.44269" lon="6.2239">
        <ele>190.19999694824</ele>
        <time>2015-05-31T08:25:49Z</time>
      </trkpt>
      <trkpt lat="43.44255" lon="6.2239">
        <ele>189.39999389648</ele>
        <time>2015-05-31T08:25:52Z</time>
      </trkpt>
      <trkpt lat="43.44228" lon="6.22393">
        <ele>189.60000610352</ele>
        <time>2015-05-31T08:25:58Z</time>
      </trkpt>
      <trkpt lat="43.44215" lon="6.22394">
        <ele>188.80000305176</ele>
        <time>2015-05-31T08:26:01Z</time>
      </trkpt>
      <trkpt lat="43.44202" lon="6.22402">
        <ele>188.39999389648</ele>
        <time>2015-05-31T08:26:04Z</time>
      </trkpt>
      <trkpt lat="43.44199" lon="6.22414">
        <ele>188</ele>
        <time>2015-05-31T08:26:06Z</time>
      </trkpt>
      <trkpt lat="43.44199" lon="6.22428">
        <ele>188</ele>
        <time>2015-05-31T08:26:08Z</time>
      </trkpt>
      <trkpt lat="43.44199" lon="6.22452">
        <ele>189.19999694824</ele>
        <time>2015-05-31T08:26:12Z</time>
      </trkpt>
      <trkpt lat="43.44198" lon="6.2247">
        <ele>189</ele>
        <time>2015-05-31T08:26:14Z</time>
      </trkpt>
      <trkpt lat="43.44197" lon="6.22484">
        <ele>189.60000610352</ele>
        <time>2015-05-31T08:26:16Z</time>
      </trkpt>
      <trkpt lat="43.44197" lon="6.22498">
        <ele>190.60000610352</ele>
        <time>2015-05-31T08:26:19Z</time>
      </trkpt>
      <trkpt lat="43.44197" lon="6.22502">
        <ele>190.80000305176</ele>
        <time>2015-05-31T08:26:20Z</time>
      </trkpt>
      <trkpt lat="43.44202" lon="6.22519">
        <ele>192</ele>
        <time>2015-05-31T08:26:26Z</time>
      </trkpt>
      <trkpt lat="43.44206" lon="6.22537">
        <ele>193.19999694824</ele>
        <time>2015-05-31T08:26:33Z</time>
      </trkpt>
      <trkpt lat="43.44208" lon="6.22558">
        <ele>193</ele>
        <time>2015-05-31T08:26:39Z</time>
      </trkpt>
      <trkpt lat="43.44209" lon="6.22567">
        <ele>191.80000305176</ele>
        <time>2015-05-31T08:26:42Z</time>
      </trkpt>
      <trkpt lat="43.44207" lon="6.22576">
        <ele>191.19999694824</ele>
        <time>2015-05-31T08:26:44Z</time>
      </trkpt>
      <trkpt lat="43.44206" lon="6.22579">
        <ele>190.39999389648</ele>
        <time>2015-05-31T08:26:45Z</time>
      </trkpt>
      <trkpt lat="43.44195" lon="6.22605">
        <ele>189.39999389648</ele>
        <time>2015-05-31T08:26:48Z</time>
      </trkpt>
      <trkpt lat="43.44189" lon="6.22621">
        <ele>191</ele>
        <time>2015-05-31T08:26:52Z</time>
      </trkpt>
      <trkpt lat="43.44176" lon="6.22637">
        <ele>190.60000610352</ele>
        <time>2015-05-31T08:26:57Z</time>
      </trkpt>
      <trkpt lat="43.44171" lon="6.22645">
        <ele>190.19999694824</ele>
        <time>2015-05-31T08:26:58Z</time>
      </trkpt>
      <trkpt lat="43.4416" lon="6.22656">
        <ele>189.39999389648</ele>
        <time>2015-05-31T08:27:01Z</time>
      </trkpt>
      <trkpt lat="43.44154" lon="6.22661">
        <ele>190.19999694824</ele>
        <time>2015-05-31T08:27:05Z</time>
      </trkpt>
      <trkpt lat="43.44148" lon="6.22671">
        <ele>190.60000610352</ele>
        <time>2015-05-31T08:27:14Z</time>
      </trkpt>
      <trkpt lat="43.44147" lon="6.22674">
        <ele>191</ele>
        <time>2015-05-31T08:27:21Z</time>
      </trkpt>
      <trkpt lat="43.44146" lon="6.22674">
        <ele>191</ele>
        <time>2015-05-31T08:27:22Z</time>
      </trkpt>
      <trkpt lat="43.44145" lon="6.22675">
        <ele>191</ele>
        <time>2015-05-31T08:27:24Z</time>
      </trkpt>
      <trkpt lat="43.44138" lon="6.22679">
        <ele>191.19999694824</ele>
        <time>2015-05-31T08:27:28Z</time>
      </trkpt>
      <trkpt lat="43.44128" lon="6.22691">
        <ele>191</ele>
        <time>2015-05-31T08:27:33Z</time>
      </trkpt>
      <trkpt lat="43.44123" lon="6.22695">
        <ele>192</ele>
        <time>2015-05-31T08:27:35Z</time>
      </trkpt>
      <trkpt lat="43.44116" lon="6.22704">
        <ele>192.80000305176</ele>
        <time>2015-05-31T08:27:39Z</time>
      </trkpt>
      <trkpt lat="43.44114" lon="6.22706">
        <ele>193</ele>
        <time>2015-05-31T08:27:40Z</time>
      </trkpt>
      <trkpt lat="43.44103" lon="6.22715">
        <ele>193.60000610352</ele>
        <time>2015-05-31T08:27:45Z</time>
      </trkpt>
      <trkpt lat="43.44084" lon="6.22728">
        <ele>194</ele>
        <time>2015-05-31T08:27:52Z</time>
      </trkpt>
      <trkpt lat="43.44069" lon="6.22736">
        <ele>194.39999389648</ele>
        <time>2015-05-31T08:27:58Z</time>
      </trkpt>
      <trkpt lat="43.44064" lon="6.22737">
        <ele>194.60000610352</ele>
        <time>2015-05-31T08:28:00Z</time>
      </trkpt>
      <trkpt lat="43.44046" lon="6.22747">
        <ele>194.39999389648</ele>
        <time>2015-05-31T08:28:06Z</time>
      </trkpt>
      <trkpt lat="43.44034" lon="6.22756">
        <ele>194.19999694824</ele>
        <time>2015-05-31T08:28:10Z</time>
      </trkpt>
      <trkpt lat="43.44032" lon="6.22759">
        <ele>194.60000610352</ele>
        <time>2015-05-31T08:28:11Z</time>
      </trkpt>
      <trkpt lat="43.44009" lon="6.22786">
        <ele>194</ele>
        <time>2015-05-31T08:28:19Z</time>
      </trkpt>
      <trkpt lat="43.43999" lon="6.22795">
        <ele>193.60000610352</ele>
        <time>2015-05-31T08:28:22Z</time>
      </trkpt>
      <trkpt lat="43.43988" lon="6.2281">
        <ele>193.80000305176</ele>
        <time>2015-05-31T08:28:26Z</time>
      </trkpt>
      <trkpt lat="43.4398" lon="6.2282">
        <ele>193.39999389648</ele>
        <time>2015-05-31T08:28:29Z</time>
      </trkpt>
      <trkpt lat="43.43977" lon="6.22827">
        <ele>193</ele>
        <time>2015-05-31T08:28:30Z</time>
      </trkpt>
      <trkpt lat="43.43973" lon="6.22837">
        <ele>192.60000610352</ele>
        <time>2015-05-31T08:28:32Z</time>
      </trkpt>
      <trkpt lat="43.43971" lon="6.22842">
        <ele>192.19999694824</ele>
        <time>2015-05-31T08:28:33Z</time>
      </trkpt>
      <trkpt lat="43.43965" lon="6.22853">
        <ele>192.39999389648</ele>
        <time>2015-05-31T08:28:35Z</time>
      </trkpt>
      <trkpt lat="43.43962" lon="6.2286">
        <ele>192</ele>
        <time>2015-05-31T08:28:36Z</time>
      </trkpt>
      <trkpt lat="43.4396" lon="6.22867">
        <ele>191.60000610352</ele>
        <time>2015-05-31T08:28:37Z</time>
      </trkpt>
      <trkpt lat="43.43954" lon="6.22892">
        <ele>191.39999389648</ele>
        <time>2015-05-31T08:28:41Z</time>
      </trkpt>
      <trkpt lat="43.4395" lon="6.22902">
        <ele>191.19999694824</ele>
        <time>2015-05-31T08:28:43Z</time>
      </trkpt>
      <trkpt lat="43.43938" lon="6.22931">
        <ele>192.19999694824</ele>
        <time>2015-05-31T08:28:48Z</time>
      </trkpt>
      <trkpt lat="43.43931" lon="6.22947">
        <ele>191.39999389648</ele>
        <time>2015-05-31T08:28:52Z</time>
      </trkpt>
      <trkpt lat="43.43922" lon="6.22971">
        <ele>191.60000610352</ele>
        <time>2015-05-31T08:28:57Z</time>
      </trkpt>
      <trkpt lat="43.43913" lon="6.22997">
        <ele>191.60000610352</ele>
        <time>2015-05-31T08:29:02Z</time>
      </trkpt>
      <trkpt lat="43.43907" lon="6.23027">
        <ele>191.80000305176</ele>
        <time>2015-05-31T08:29:08Z</time>
      </trkpt>
      <trkpt lat="43.43904" lon="6.23053">
        <ele>192.39999389648</ele>
        <time>2015-05-31T08:29:13Z</time>
      </trkpt>
      <trkpt lat="43.43902" lon="6.23072">
        <ele>192.80000305176</ele>
        <time>2015-05-31T08:29:17Z</time>
      </trkpt>
      <trkpt lat="43.43898" lon="6.23098">
        <ele>192.39999389648</ele>
        <time>2015-05-31T08:29:22Z</time>
      </trkpt>
      <trkpt lat="43.43893" lon="6.23124">
        <ele>193</ele>
        <time>2015-05-31T08:29:28Z</time>
      </trkpt>
      <trkpt lat="43.43889" lon="6.23151">
        <ele>193.19999694824</ele>
        <time>2015-05-31T08:29:34Z</time>
      </trkpt>
      <trkpt lat="43.43884" lon="6.23182">
        <ele>194</ele>
        <time>2015-05-31T08:29:41Z</time>
      </trkpt>
      <trkpt lat="43.43879" lon="6.23199">
        <ele>194.39999389648</ele>
        <time>2015-05-31T08:29:45Z</time>
      </trkpt>
      <trkpt lat="43.43877" lon="6.23209">
        <ele>195.19999694824</ele>
        <time>2015-05-31T08:29:48Z</time>
      </trkpt>
      <trkpt lat="43.43875" lon="6.23216">
        <ele>195.60000610352</ele>
        <time>2015-05-31T08:29:50Z</time>
      </trkpt>
      <trkpt lat="43.43869" lon="6.23232">
        <ele>195.80000305176</ele>
        <time>2015-05-31T08:29:54Z</time>
      </trkpt>
      <trkpt lat="43.43865" lon="6.23247">
        <ele>197</ele>
        <time>2015-05-31T08:29:59Z</time>
      </trkpt>
      <trkpt lat="43.43856" lon="6.2327">
        <ele>197.39999389648</ele>
        <time>2015-05-31T08:30:06Z</time>
      </trkpt>
      <trkpt lat="43.43855" lon="6.23277">
        <ele>197.80000305176</ele>
        <time>2015-05-31T08:30:09Z</time>
      </trkpt>
      <trkpt lat="43.4385" lon="6.23286">
        <ele>198</ele>
        <time>2015-05-31T08:30:12Z</time>
      </trkpt>
      <trkpt lat="43.43845" lon="6.23302">
        <ele>198</ele>
        <time>2015-05-31T08:30:17Z</time>
      </trkpt>
      <trkpt lat="43.43836" lon="6.23322">
        <ele>197.60000610352</ele>
        <time>2015-05-31T08:30:21Z</time>
      </trkpt>
      <trkpt lat="43.43828" lon="6.23339">
        <ele>196</ele>
        <time>2015-05-31T08:30:23Z</time>
      </trkpt>
      <trkpt lat="43.43824" lon="6.23347">
        <ele>195.39999389648</ele>
        <time>2015-05-31T08:30:24Z</time>
      </trkpt>
      <trkpt lat="43.43817" lon="6.23354">
        <ele>195.39999389648</ele>
        <time>2015-05-31T08:30:25Z</time>
      </trkpt>
      <trkpt lat="43.43813" lon="6.23357">
        <ele>195.39999389648</ele>
        <time>2015-05-31T08:30:26Z</time>
      </trkpt>
      <trkpt lat="43.43806" lon="6.23363">
        <ele>195.60000610352</ele>
        <time>2015-05-31T08:30:29Z</time>
      </trkpt>
      <trkpt lat="43.43805" lon="6.23369">
        <ele>195.39999389648</ele>
        <time>2015-05-31T08:30:34Z</time>
      </trkpt>
      <trkpt lat="43.43805" lon="6.23369">
        <ele>195.39999389648</ele>
        <time>2015-05-31T08:30:35Z</time>
      </trkpt>
      <trkpt lat="43.43804" lon="6.23369">
        <ele>195.39999389648</ele>
        <time>2015-05-31T08:30:38Z</time>
      </trkpt>
      <trkpt lat="43.43804" lon="6.23369">
        <ele>195.80000305176</ele>
        <time>2015-05-31T08:30:42Z</time>
      </trkpt>
      <trkpt lat="43.43804" lon="6.23369">
        <ele>195.80000305176</ele>
        <time>2015-05-31T08:30:47Z</time>
      </trkpt>
      <trkpt lat="43.43804" lon="6.23369">
        <ele>195.60000610352</ele>
        <time>2015-05-31T08:31:12Z</time>
      </trkpt>
      <trkpt lat="43.43804" lon="6.2337">
        <ele>195.39999389648</ele>
        <time>2015-05-31T08:31:17Z</time>
      </trkpt>
      <trkpt lat="43.43803" lon="6.2337">
        <ele>195.60000610352</ele>
        <time>2015-05-31T08:31:20Z</time>
      </trkpt>
      <trkpt lat="43.43803" lon="6.2337">
        <ele>195.39999389648</ele>
        <time>2015-05-31T08:31:23Z</time>
      </trkpt>
      <trkpt lat="43.43803" lon="6.2337">
        <ele>195.19999694824</ele>
        <time>2015-05-31T08:31:35Z</time>
      </trkpt>
      <trkpt lat="43.43805" lon="6.2337">
        <ele>195.39999389648</ele>
        <time>2015-05-31T08:32:12Z</time>
      </trkpt>
      <trkpt lat="43.43803" lon="6.2337">
        <ele>195.39999389648</ele>
        <time>2015-05-31T08:32:21Z</time>
      </trkpt>
      <trkpt lat="43.43801" lon="6.23369">
        <ele>195.19999694824</ele>
        <time>2015-05-31T08:32:28Z</time>
      </trkpt>
      <trkpt lat="43.43797" lon="6.23364">
        <ele>195.19999694824</ele>
        <time>2015-05-31T08:32:30Z</time>
      </trkpt>
      <trkpt lat="43.43793" lon="6.23358">
        <ele>194.80000305176</ele>
        <time>2015-05-31T08:32:32Z</time>
      </trkpt>
      <trkpt lat="43.43781" lon="6.23342">
        <ele>194.60000610352</ele>
        <time>2015-05-31T08:32:36Z</time>
      </trkpt>
      <trkpt lat="43.43754" lon="6.23308">
        <ele>193.39999389648</ele>
        <time>2015-05-31T08:32:43Z</time>
      </trkpt>
      <trkpt lat="43.43749" lon="6.23303">
        <ele>193.19999694824</ele>
        <time>2015-05-31T08:32:44Z</time>
      </trkpt>
      <trkpt lat="43.43739" lon="6.23294">
        <ele>193</ele>
        <time>2015-05-31T08:32:46Z</time>
      </trkpt>
      <trkpt lat="43.43733" lon="6.2329">
        <ele>192.80000305176</ele>
        <time>2015-05-31T08:32:47Z</time>
      </trkpt>
      <trkpt lat="43.43726" lon="6.23292">
        <ele>192.60000610352</ele>
        <time>2015-05-31T08:32:48Z</time>
      </trkpt>
      <trkpt lat="43.43713" lon="6.23294">
        <ele>192</ele>
        <time>2015-05-31T08:32:50Z</time>
      </trkpt>
      <trkpt lat="43.43706" lon="6.23294">
        <ele>191.80000305176</ele>
        <time>2015-05-31T08:32:51Z</time>
      </trkpt>
      <trkpt lat="43.43689" lon="6.23275">
        <ele>191</ele>
        <time>2015-05-31T08:32:54Z</time>
      </trkpt>
      <trkpt lat="43.43674" lon="6.23257">
        <ele>190.60000610352</ele>
        <time>2015-05-31T08:32:57Z</time>
      </trkpt>
      <trkpt lat="43.43668" lon="6.23253">
        <ele>190.60000610352</ele>
        <time>2015-05-31T08:32:58Z</time>
      </trkpt>
      <trkpt lat="43.43657" lon="6.23247">
        <ele>190.39999389648</ele>
        <time>2015-05-31T08:33:00Z</time>
      </trkpt>
      <trkpt lat="43.43643" lon="6.23243">
        <ele>190.60000610352</ele>
        <time>2015-05-31T08:33:02Z</time>
      </trkpt>
      <trkpt lat="43.43615" lon="6.23242">
        <ele>190.39999389648</ele>
        <time>2015-05-31T08:33:06Z</time>
      </trkpt>
      <trkpt lat="43.43589" lon="6.23241">
        <ele>190.19999694824</ele>
        <time>2015-05-31T08:33:10Z</time>
      </trkpt>
      <trkpt lat="43.43577" lon="6.23247">
        <ele>190.19999694824</ele>
        <time>2015-05-31T08:33:12Z</time>
      </trkpt>
      <trkpt lat="43.43568" lon="6.23258">
        <ele>190</ele>
        <time>2015-05-31T08:33:14Z</time>
      </trkpt>
      <trkpt lat="43.4354" lon="6.23294">
        <ele>190.19999694824</ele>
        <time>2015-05-31T08:33:20Z</time>
      </trkpt>
      <trkpt lat="43.4353" lon="6.23301">
        <ele>190.39999389648</ele>
        <time>2015-05-31T08:33:22Z</time>
      </trkpt>
      <trkpt lat="43.43505" lon="6.23304">
        <ele>190.80000305176</ele>
        <time>2015-05-31T08:33:26Z</time>
      </trkpt>
      <trkpt lat="43.43437" lon="6.23304">
        <ele>190.39999389648</ele>
        <time>2015-05-31T08:33:37Z</time>
      </trkpt>
      <trkpt lat="43.43388" lon="6.23303">
        <ele>191</ele>
        <time>2015-05-31T08:33:45Z</time>
      </trkpt>
      <trkpt lat="43.43372" lon="6.23302">
        <ele>191</ele>
        <time>2015-05-31T08:33:48Z</time>
      </trkpt>
      <trkpt lat="43.43345" lon="6.233">
        <ele>191.60000610352</ele>
        <time>2015-05-31T08:33:53Z</time>
      </trkpt>
      <trkpt lat="43.4334" lon="6.233">
        <ele>192</ele>
        <time>2015-05-31T08:33:54Z</time>
      </trkpt>
      <trkpt lat="43.43327" lon="6.23299">
        <ele>193</ele>
        <time>2015-05-31T08:33:57Z</time>
      </trkpt>
      <trkpt lat="43.43311" lon="6.23299">
        <ele>194.19999694824</ele>
        <time>2015-05-31T08:34:01Z</time>
      </trkpt>
      <trkpt lat="43.43298" lon="6.23299">
        <ele>194.80000305176</ele>
        <time>2015-05-31T08:34:04Z</time>
      </trkpt>
      <trkpt lat="43.43287" lon="6.23298">
        <ele>195.39999389648</ele>
        <time>2015-05-31T08:34:07Z</time>
      </trkpt>
      <trkpt lat="43.43279" lon="6.23298">
        <ele>195.80000305176</ele>
        <time>2015-05-31T08:34:09Z</time>
      </trkpt>
      <trkpt lat="43.4325" lon="6.23299">
        <ele>196.39999389648</ele>
        <time>2015-05-31T08:34:17Z</time>
      </trkpt>
      <trkpt lat="43.43218" lon="6.23298">
        <ele>197.60000610352</ele>
        <time>2015-05-31T08:34:26Z</time>
      </trkpt>
      <trkpt lat="43.43198" lon="6.23295">
        <ele>198.19999694824</ele>
        <time>2015-05-31T08:34:32Z</time>
      </trkpt>
      <trkpt lat="43.43191" lon="6.23287">
        <ele>197.60000610352</ele>
        <time>2015-05-31T08:34:34Z</time>
      </trkpt>
      <trkpt lat="43.43184" lon="6.23277">
        <ele>197.39999389648</ele>
        <time>2015-05-31T08:34:36Z</time>
      </trkpt>
      <trkpt lat="43.43147" lon="6.2322">
        <ele>197.19999694824</ele>
        <time>2015-05-31T08:34:47Z</time>
      </trkpt>
      <trkpt lat="43.43129" lon="6.23193">
        <ele>197.60000610352</ele>
        <time>2015-05-31T08:34:53Z</time>
      </trkpt>
      <trkpt lat="43.43114" lon="6.23174">
        <ele>198.19999694824</ele>
        <time>2015-05-31T08:34:58Z</time>
      </trkpt>
      <trkpt lat="43.43074" lon="6.2315">
        <ele>197</ele>
        <time>2015-05-31T08:35:06Z</time>
      </trkpt>
      <trkpt lat="43.43032" lon="6.23121">
        <ele>196.80000305176</ele>
        <time>2015-05-31T08:35:14Z</time>
      </trkpt>
      <trkpt lat="43.43027" lon="6.23117">
        <ele>196.80000305176</ele>
        <time>2015-05-31T08:35:15Z</time>
      </trkpt>
      <trkpt lat="43.43023" lon="6.2311">
        <ele>196.80000305176</ele>
        <time>2015-05-31T08:35:16Z</time>
      </trkpt>
      <trkpt lat="43.43011" lon="6.2309">
        <ele>197</ele>
        <time>2015-05-31T08:35:19Z</time>
      </trkpt>
      <trkpt lat="43.42989" lon="6.23053">
        <ele>197.19999694824</ele>
        <time>2015-05-31T08:35:25Z</time>
      </trkpt>
      <trkpt lat="43.42974" lon="6.23021">
        <ele>197.19999694824</ele>
        <time>2015-05-31T08:35:30Z</time>
      </trkpt>
      <trkpt lat="43.42969" lon="6.23008">
        <ele>197.60000610352</ele>
        <time>2015-05-31T08:35:32Z</time>
      </trkpt>
      <trkpt lat="43.4296" lon="6.22958">
        <ele>197.60000610352</ele>
        <time>2015-05-31T08:35:39Z</time>
      </trkpt>
      <trkpt lat="43.42955" lon="6.22937">
        <ele>198.19999694824</ele>
        <time>2015-05-31T08:35:42Z</time>
      </trkpt>
      <trkpt lat="43.4295" lon="6.22917">
        <ele>198.60000610352</ele>
        <time>2015-05-31T08:35:45Z</time>
      </trkpt>
      <trkpt lat="43.42942" lon="6.22895">
        <ele>198</ele>
        <time>2015-05-31T08:35:48Z</time>
      </trkpt>
      <trkpt lat="43.42934" lon="6.22882">
        <ele>197.19999694824</ele>
        <time>2015-05-31T08:35:50Z</time>
      </trkpt>
      <trkpt lat="43.42922" lon="6.22873">
        <ele>197</ele>
        <time>2015-05-31T08:35:52Z</time>
      </trkpt>
      <trkpt lat="43.42911" lon="6.22871">
        <ele>196.80000305176</ele>
        <time>2015-05-31T08:35:54Z</time>
      </trkpt>
      <trkpt lat="43.42897" lon="6.2288">
        <ele>197.60000610352</ele>
        <time>2015-05-31T08:35:57Z</time>
      </trkpt>
      <trkpt lat="43.42894" lon="6.22885">
        <ele>197.60000610352</ele>
        <time>2015-05-31T08:35:58Z</time>
      </trkpt>
      <trkpt lat="43.42885" lon="6.22896">
        <ele>197.19999694824</ele>
        <time>2015-05-31T08:36:00Z</time>
      </trkpt>
      <trkpt lat="43.42871" lon="6.229">
        <ele>196.19999694824</ele>
        <time>2015-05-31T08:36:02Z</time>
      </trkpt>
      <trkpt lat="43.42865" lon="6.22901">
        <ele>195.80000305176</ele>
        <time>2015-05-31T08:36:03Z</time>
      </trkpt>
      <trkpt lat="43.42858" lon="6.22898">
        <ele>195.39999389648</ele>
        <time>2015-05-31T08:36:04Z</time>
      </trkpt>
      <trkpt lat="43.42844" lon="6.22895">
        <ele>194.19999694824</ele>
        <time>2015-05-31T08:36:06Z</time>
      </trkpt>
      <trkpt lat="43.42809" lon="6.22884">
        <ele>194.19999694824</ele>
        <time>2015-05-31T08:36:11Z</time>
      </trkpt>
      <trkpt lat="43.42795" lon="6.22879">
        <ele>194.19999694824</ele>
        <time>2015-05-31T08:36:13Z</time>
      </trkpt>
      <trkpt lat="43.42775" lon="6.22867">
        <ele>193.80000305176</ele>
        <time>2015-05-31T08:36:16Z</time>
      </trkpt>
      <trkpt lat="43.42764" lon="6.22858">
        <ele>193.60000610352</ele>
        <time>2015-05-31T08:36:18Z</time>
      </trkpt>
      <trkpt lat="43.42758" lon="6.22854">
        <ele>193.60000610352</ele>
        <time>2015-05-31T08:36:19Z</time>
      </trkpt>
      <trkpt lat="43.42742" lon="6.2284">
        <ele>193.19999694824</ele>
        <time>2015-05-31T08:36:22Z</time>
      </trkpt>
      <trkpt lat="43.42732" lon="6.22817">
        <ele>192.80000305176</ele>
        <time>2015-05-31T08:36:25Z</time>
      </trkpt>
      <trkpt lat="43.42724" lon="6.22789">
        <ele>192.39999389648</ele>
        <time>2015-05-31T08:36:28Z</time>
      </trkpt>
      <trkpt lat="43.42717" lon="6.22772">
        <ele>192</ele>
        <time>2015-05-31T08:36:30Z</time>
      </trkpt>
      <trkpt lat="43.42697" lon="6.22719">
        <ele>191.80000305176</ele>
        <time>2015-05-31T08:36:36Z</time>
      </trkpt>
      <trkpt lat="43.42688" lon="6.22684">
        <ele>191.60000610352</ele>
        <time>2015-05-31T08:36:40Z</time>
      </trkpt>
      <trkpt lat="43.42685" lon="6.22666">
        <ele>191.80000305176</ele>
        <time>2015-05-31T08:36:42Z</time>
      </trkpt>
      <trkpt lat="43.42681" lon="6.22651">
        <ele>191.60000610352</ele>
        <time>2015-05-31T08:36:44Z</time>
      </trkpt>
      <trkpt lat="43.42676" lon="6.22636">
        <ele>191.60000610352</ele>
        <time>2015-05-31T08:36:46Z</time>
      </trkpt>
      <trkpt lat="43.42659" lon="6.22572">
        <ele>191.60000610352</ele>
        <time>2015-05-31T08:36:54Z</time>
      </trkpt>
      <trkpt lat="43.42639" lon="6.225">
        <ele>192.19999694824</ele>
        <time>2015-05-31T08:37:03Z</time>
      </trkpt>
      <trkpt lat="43.42629" lon="6.22467">
        <ele>191.60000610352</ele>
        <time>2015-05-31T08:37:07Z</time>
      </trkpt>
      <trkpt lat="43.42622" lon="6.22453">
        <ele>191.80000305176</ele>
        <time>2015-05-31T08:37:09Z</time>
      </trkpt>
      <trkpt lat="43.42617" lon="6.22449">
        <ele>192</ele>
        <time>2015-05-31T08:37:10Z</time>
      </trkpt>
      <trkpt lat="43.42607" lon="6.22441">
        <ele>191.80000305176</ele>
        <time>2015-05-31T08:37:12Z</time>
      </trkpt>
      <trkpt lat="43.42596" lon="6.22432">
        <ele>192.60000610352</ele>
        <time>2015-05-31T08:37:15Z</time>
      </trkpt>
      <trkpt lat="43.42594" lon="6.22427">
        <ele>192.60000610352</ele>
        <time>2015-05-31T08:37:16Z</time>
      </trkpt>
      <trkpt lat="43.42596" lon="6.22419">
        <ele>193.19999694824</ele>
        <time>2015-05-31T08:37:18Z</time>
      </trkpt>
      <trkpt lat="43.42598" lon="6.22415">
        <ele>193.39999389648</ele>
        <time>2015-05-31T08:37:19Z</time>
      </trkpt>
      <trkpt lat="43.42603" lon="6.22406">
        <ele>193.39999389648</ele>
        <time>2015-05-31T08:37:21Z</time>
      </trkpt>
      <trkpt lat="43.42606" lon="6.22396">
        <ele>193.39999389648</ele>
        <time>2015-05-31T08:37:23Z</time>
      </trkpt>
      <trkpt lat="43.42607" lon="6.2239">
        <ele>193.19999694824</ele>
        <time>2015-05-31T08:37:24Z</time>
      </trkpt>
      <trkpt lat="43.42611" lon="6.2237">
        <ele>192.60000610352</ele>
        <time>2015-05-31T08:37:27Z</time>
      </trkpt>
      <trkpt lat="43.42615" lon="6.22356">
        <ele>192.19999694824</ele>
        <time>2015-05-31T08:37:29Z</time>
      </trkpt>
      <trkpt lat="43.42617" lon="6.2235">
        <ele>192.19999694824</ele>
        <time>2015-05-31T08:37:30Z</time>
      </trkpt>
      <trkpt lat="43.42634" lon="6.22328">
        <ele>192.39999389648</ele>
        <time>2015-05-31T08:37:35Z</time>
      </trkpt>
      <trkpt lat="43.42637" lon="6.22323">
        <ele>192.39999389648</ele>
        <time>2015-05-31T08:37:36Z</time>
      </trkpt>
      <trkpt lat="43.42645" lon="6.22314">
        <ele>192.80000305176</ele>
        <time>2015-05-31T08:37:39Z</time>
      </trkpt>
      <trkpt lat="43.42647" lon="6.22315">
        <ele>192.80000305176</ele>
        <time>2015-05-31T08:37:40Z</time>
      </trkpt>
      <trkpt lat="43.42658" lon="6.22331">
        <ele>192.60000610352</ele>
        <time>2015-05-31T08:37:44Z</time>
      </trkpt>
      <trkpt lat="43.42664" lon="6.22341">
        <ele>192.60000610352</ele>
        <time>2015-05-31T08:37:46Z</time>
      </trkpt>
      <trkpt lat="43.42675" lon="6.22352">
        <ele>192.60000610352</ele>
        <time>2015-05-31T08:37:49Z</time>
      </trkpt>
      <trkpt lat="43.42682" lon="6.22359">
        <ele>192.60000610352</ele>
        <time>2015-05-31T08:37:51Z</time>
      </trkpt>
      <trkpt lat="43.42711" lon="6.22381">
        <ele>192.80000305176</ele>
        <time>2015-05-31T08:37:58Z</time>
      </trkpt>
      <trkpt lat="43.42719" lon="6.22385">
        <ele>193</ele>
        <time>2015-05-31T08:38:00Z</time>
      </trkpt>
      <trkpt lat="43.42731" lon="6.2239">
        <ele>193.19999694824</ele>
        <time>2015-05-31T08:38:03Z</time>
      </trkpt>
      <trkpt lat="43.42735" lon="6.22392">
        <ele>193.19999694824</ele>
        <time>2015-05-31T08:38:04Z</time>
      </trkpt>
      <trkpt lat="43.42747" lon="6.22401">
        <ele>193.39999389648</ele>
        <time>2015-05-31T08:38:07Z</time>
      </trkpt>
      <trkpt lat="43.42755" lon="6.22407">
        <ele>193.60000610352</ele>
        <time>2015-05-31T08:38:09Z</time>
      </trkpt>
      <trkpt lat="43.42771" lon="6.22411">
        <ele>194.39999389648</ele>
        <time>2015-05-31T08:38:13Z</time>
      </trkpt>
      <trkpt lat="43.42781" lon="6.22415">
        <ele>195.39999389648</ele>
        <time>2015-05-31T08:38:16Z</time>
      </trkpt>
      <trkpt lat="43.4279" lon="6.22424">
        <ele>196.60000610352</ele>
        <time>2015-05-31T08:38:20Z</time>
      </trkpt>
      <trkpt lat="43.42792" lon="6.22427">
        <ele>196.80000305176</ele>
        <time>2015-05-31T08:38:21Z</time>
      </trkpt>
      <trkpt lat="43.42799" lon="6.22427">
        <ele>197.60000610352</ele>
        <time>2015-05-31T08:38:24Z</time>
      </trkpt>
      <trkpt lat="43.42805" lon="6.22421">
        <ele>197.80000305176</ele>
        <time>2015-05-31T08:38:27Z</time>
      </trkpt>
      <trkpt lat="43.42809" lon="6.22415">
        <ele>198.39999389648</ele>
        <time>2015-05-31T08:38:29Z</time>
      </trkpt>
      <trkpt lat="43.42812" lon="6.22409">
        <ele>199</ele>
        <time>2015-05-31T08:38:31Z</time>
      </trkpt>
      <trkpt lat="43.42826" lon="6.22388">
        <ele>199.39999389648</ele>
        <time>2015-05-31T08:38:38Z</time>
      </trkpt>
      <trkpt lat="43.42841" lon="6.22366">
        <ele>199.39999389648</ele>
        <time>2015-05-31T08:38:44Z</time>
      </trkpt>
      <trkpt lat="43.42846" lon="6.22359">
        <ele>199.39999389648</ele>
        <time>2015-05-31T08:38:46Z</time>
      </trkpt>
      <trkpt lat="43.42857" lon="6.22338">
        <ele>199.60000610352</ele>
        <time>2015-05-31T08:38:52Z</time>
      </trkpt>
      <trkpt lat="43.42858" lon="6.22335">
        <ele>199.60000610352</ele>
        <time>2015-05-31T08:38:53Z</time>
      </trkpt>
      <trkpt lat="43.42857" lon="6.22331">
        <ele>199.80000305176</ele>
        <time>2015-05-31T08:38:54Z</time>
      </trkpt>
      <trkpt lat="43.42855" lon="6.22322">
        <ele>199.60000610352</ele>
        <time>2015-05-31T08:38:56Z</time>
      </trkpt>
      <trkpt lat="43.42847" lon="6.22301">
        <ele>199.19999694824</ele>
        <time>2015-05-31T08:39:00Z</time>
      </trkpt>
      <trkpt lat="43.42842" lon="6.2229">
        <ele>199.19999694824</ele>
        <time>2015-05-31T08:39:02Z</time>
      </trkpt>
      <trkpt lat="43.42821" lon="6.22243">
        <ele>198.19999694824</ele>
        <time>2015-05-31T08:39:10Z</time>
      </trkpt>
      <trkpt lat="43.42814" lon="6.22244">
        <ele>198.19999694824</ele>
        <time>2015-05-31T08:39:12Z</time>
      </trkpt>
      <trkpt lat="43.42808" lon="6.22252">
        <ele>197.60000610352</ele>
        <time>2015-05-31T08:39:14Z</time>
      </trkpt>
      <trkpt lat="43.42801" lon="6.22258">
        <ele>196.39999389648</ele>
        <time>2015-05-31T08:39:16Z</time>
      </trkpt>
      <trkpt lat="43.42796" lon="6.22262">
        <ele>195.39999389648</ele>
        <time>2015-05-31T08:39:18Z</time>
      </trkpt>
      <trkpt lat="43.42794" lon="6.22262">
        <ele>195.39999389648</ele>
        <time>2015-05-31T08:39:19Z</time>
      </trkpt>
      <trkpt lat="43.42792" lon="6.22262">
        <ele>195</ele>
        <time>2015-05-31T08:39:23Z</time>
      </trkpt>
      <trkpt lat="43.42792" lon="6.22262">
        <ele>195</ele>
        <time>2015-05-31T08:39:33Z</time>
      </trkpt>
      <trkpt lat="43.42792" lon="6.22262">
        <ele>194.80000305176</ele>
        <time>2015-05-31T08:39:42Z</time>
      </trkpt>
    </trkseg>
  </trk>
</gpx>